<?xml version="1.0" encoding="UTF-8" standalone="no" ?>
<gpx xmlns="http://www.topografix.com/GPX/1/1" xmlns:xsi="http://www.w3.org/2001/XMLSchema-instance" xsi:schemaLocation="http://www.topografix.com/GPX/1/1 http://www.topografix.com/GPX/1/1/gpx.xsd" version="1.1" creator="VisuGPX - https://www.visugpx.com">
  <metadata>
    <name>La Roche des Arnauds par le Pas du Pas</name>
    <desc><![CDATA[Rando CAF Valence du 17 mai 2022 organisée par Pascale.

Notes :
- Le Pas du Pas est raide et glissant et comporte quelques passages exposés. A éviter par temps humide.
- Au retour sur la fin lorsque l'on arrive à la route (D2) il est plus simple de la prendre sur quelques centaine de mètres pour prendre un sentier un peu plus bas que d'essayer de passer par les sentiers dans la forêt qui n'existent plus vraiment.]]></desc>
  </metadata>
  <trk>
    <name><![CDATA[2022-05-17 16:18:32]]></name>
    <trkseg>
      <trkpt lat="45.01493" lon="5.33187">
        <ele>392.84</ele>
        <time>2022-05-17T06:09:25Z</time>
      </trkpt>
      <trkpt lat="45.01494" lon="5.33188">
        <ele>392.84</ele>
        <time>2022-05-17T06:09:26Z</time>
      </trkpt>
      <trkpt lat="45.01498" lon="5.33189">
        <ele>392.84</ele>
        <time>2022-05-17T06:09:44Z</time>
      </trkpt>
      <trkpt lat="45.01502" lon="5.33189">
        <ele>392.84</ele>
        <time>2022-05-17T06:10:00Z</time>
      </trkpt>
      <trkpt lat="45.01509" lon="5.33184">
        <ele>392.84</ele>
        <time>2022-05-17T06:10:15Z</time>
      </trkpt>
      <trkpt lat="45.01512" lon="5.33183">
        <ele>392.84</ele>
        <time>2022-05-17T06:10:19Z</time>
      </trkpt>
      <trkpt lat="45.01529" lon="5.33164">
        <ele>392.84</ele>
        <time>2022-05-17T06:10:38Z</time>
      </trkpt>
      <trkpt lat="45.01545" lon="5.33141">
        <ele>392.84</ele>
        <time>2022-05-17T06:10:57Z</time>
      </trkpt>
      <trkpt lat="45.0156" lon="5.33123">
        <ele>392.84</ele>
        <time>2022-05-17T06:11:13Z</time>
      </trkpt>
      <trkpt lat="45.0158" lon="5.33101">
        <ele>392.84</ele>
        <time>2022-05-17T06:11:32Z</time>
      </trkpt>
      <trkpt lat="45.01585" lon="5.33095">
        <ele>392.84</ele>
        <time>2022-05-17T06:11:45Z</time>
      </trkpt>
      <trkpt lat="45.01597" lon="5.33076">
        <ele>392.84</ele>
        <time>2022-05-17T06:12:01Z</time>
      </trkpt>
      <trkpt lat="45.016" lon="5.33069">
        <ele>392.84</ele>
        <time>2022-05-17T06:12:12Z</time>
      </trkpt>
      <trkpt lat="45.01604" lon="5.33051">
        <ele>391.39</ele>
        <time>2022-05-17T06:12:26Z</time>
      </trkpt>
      <trkpt lat="45.01607" lon="5.33058">
        <ele>392.84</ele>
        <time>2022-05-17T06:12:40Z</time>
      </trkpt>
      <trkpt lat="45.01606" lon="5.33077">
        <ele>392.84</ele>
        <time>2022-05-17T06:12:54Z</time>
      </trkpt>
      <trkpt lat="45.01604" lon="5.33082">
        <ele>392.84</ele>
        <time>2022-05-17T06:12:59Z</time>
      </trkpt>
      <trkpt lat="45.01591" lon="5.331">
        <ele>393.8</ele>
        <time>2022-05-17T06:13:14Z</time>
      </trkpt>
      <trkpt lat="45.0159" lon="5.33101">
        <ele>393.8</ele>
        <time>2022-05-17T06:13:15Z</time>
      </trkpt>
      <trkpt lat="45.01579" lon="5.33112">
        <ele>394.28</ele>
        <time>2022-05-17T06:13:29Z</time>
      </trkpt>
      <trkpt lat="45.01569" lon="5.33127">
        <ele>395.24</ele>
        <time>2022-05-17T06:13:42Z</time>
      </trkpt>
      <trkpt lat="45.01559" lon="5.33143">
        <ele>396.2</ele>
        <time>2022-05-17T06:13:55Z</time>
      </trkpt>
      <trkpt lat="45.01556" lon="5.33148">
        <ele>396.68</ele>
        <time>2022-05-17T06:13:59Z</time>
      </trkpt>
      <trkpt lat="45.01549" lon="5.33169">
        <ele>397.64</ele>
        <time>2022-05-17T06:14:14Z</time>
      </trkpt>
      <trkpt lat="45.01544" lon="5.3318">
        <ele>398.12</ele>
        <time>2022-05-17T06:14:21Z</time>
      </trkpt>
      <trkpt lat="45.0154" lon="5.33186">
        <ele>398.12</ele>
        <time>2022-05-17T06:14:26Z</time>
      </trkpt>
      <trkpt lat="45.01537" lon="5.33192">
        <ele>398.6</ele>
        <time>2022-05-17T06:14:31Z</time>
      </trkpt>
      <trkpt lat="45.01531" lon="5.33199">
        <ele>399.08</ele>
        <time>2022-05-17T06:14:38Z</time>
      </trkpt>
      <trkpt lat="45.01517" lon="5.33208">
        <ele>400.05</ele>
        <time>2022-05-17T06:14:52Z</time>
      </trkpt>
      <trkpt lat="45.01512" lon="5.33213">
        <ele>400.53</ele>
        <time>2022-05-17T06:14:58Z</time>
      </trkpt>
      <trkpt lat="45.01509" lon="5.33237">
        <ele>401.49</ele>
        <time>2022-05-17T06:15:13Z</time>
      </trkpt>
      <trkpt lat="45.01507" lon="5.33258">
        <ele>402.45</ele>
        <time>2022-05-17T06:15:28Z</time>
      </trkpt>
      <trkpt lat="45.01506" lon="5.33262">
        <ele>402.45</ele>
        <time>2022-05-17T06:15:31Z</time>
      </trkpt>
      <trkpt lat="45.01496" lon="5.33281">
        <ele>403.89</ele>
        <time>2022-05-17T06:15:46Z</time>
      </trkpt>
      <trkpt lat="45.01496" lon="5.33282">
        <ele>403.89</ele>
        <time>2022-05-17T06:15:47Z</time>
      </trkpt>
      <trkpt lat="45.01482" lon="5.33302">
        <ele>404.85</ele>
        <time>2022-05-17T06:16:03Z</time>
      </trkpt>
      <trkpt lat="45.01479" lon="5.33308">
        <ele>404.85</ele>
        <time>2022-05-17T06:17:30Z</time>
      </trkpt>
      <trkpt lat="45.01477" lon="5.33314">
        <ele>404.85</ele>
        <time>2022-05-17T06:17:54Z</time>
      </trkpt>
      <trkpt lat="45.0147" lon="5.33327">
        <ele>405.33</ele>
        <time>2022-05-17T06:18:07Z</time>
      </trkpt>
      <trkpt lat="45.01464" lon="5.33338">
        <ele>405.33</ele>
        <time>2022-05-17T06:18:17Z</time>
      </trkpt>
      <trkpt lat="45.01463" lon="5.33341">
        <ele>406.29</ele>
        <time>2022-05-17T06:18:19Z</time>
      </trkpt>
      <trkpt lat="45.0146" lon="5.33345">
        <ele>406.29</ele>
        <time>2022-05-17T06:18:23Z</time>
      </trkpt>
      <trkpt lat="45.01446" lon="5.33364">
        <ele>407.26</ele>
        <time>2022-05-17T06:18:39Z</time>
      </trkpt>
      <trkpt lat="45.01439" lon="5.33376">
        <ele>407.26</ele>
        <time>2022-05-17T06:18:48Z</time>
      </trkpt>
      <trkpt lat="45.01436" lon="5.3338">
        <ele>407.74</ele>
        <time>2022-05-17T06:18:52Z</time>
      </trkpt>
      <trkpt lat="45.01423" lon="5.33401">
        <ele>408.22</ele>
        <time>2022-05-17T06:19:08Z</time>
      </trkpt>
      <trkpt lat="45.0141" lon="5.3342">
        <ele>409.66</ele>
        <time>2022-05-17T06:19:24Z</time>
      </trkpt>
      <trkpt lat="45.014" lon="5.33435">
        <ele>410.62</ele>
        <time>2022-05-17T06:19:36Z</time>
      </trkpt>
      <trkpt lat="45.0139" lon="5.33457">
        <ele>411.58</ele>
        <time>2022-05-17T06:19:51Z</time>
      </trkpt>
      <trkpt lat="45.01386" lon="5.33463">
        <ele>412.06</ele>
        <time>2022-05-17T06:19:56Z</time>
      </trkpt>
      <trkpt lat="45.01373" lon="5.33486">
        <ele>413.02</ele>
        <time>2022-05-17T06:20:13Z</time>
      </trkpt>
      <trkpt lat="45.01372" lon="5.33489">
        <ele>413.5</ele>
        <time>2022-05-17T06:20:15Z</time>
      </trkpt>
      <trkpt lat="45.01369" lon="5.33495">
        <ele>413.5</ele>
        <time>2022-05-17T06:20:19Z</time>
      </trkpt>
      <trkpt lat="45.01365" lon="5.33501">
        <ele>413.5</ele>
        <time>2022-05-17T06:20:24Z</time>
      </trkpt>
      <trkpt lat="45.01349" lon="5.33521">
        <ele>414.95</ele>
        <time>2022-05-17T06:20:41Z</time>
      </trkpt>
      <trkpt lat="45.01338" lon="5.3354">
        <ele>415.91</ele>
        <time>2022-05-17T06:20:56Z</time>
      </trkpt>
      <trkpt lat="45.01334" lon="5.33548">
        <ele>416.39</ele>
        <time>2022-05-17T06:21:01Z</time>
      </trkpt>
      <trkpt lat="45.01326" lon="5.33565">
        <ele>416.87</ele>
        <time>2022-05-17T06:21:13Z</time>
      </trkpt>
      <trkpt lat="45.01315" lon="5.3358">
        <ele>417.35</ele>
        <time>2022-05-17T06:21:27Z</time>
      </trkpt>
      <trkpt lat="45.01311" lon="5.33588">
        <ele>417.35</ele>
        <time>2022-05-17T06:21:33Z</time>
      </trkpt>
      <trkpt lat="45.01309" lon="5.33592">
        <ele>417.83</ele>
        <time>2022-05-17T06:21:36Z</time>
      </trkpt>
      <trkpt lat="45.01306" lon="5.33598">
        <ele>417.83</ele>
        <time>2022-05-17T06:21:41Z</time>
      </trkpt>
      <trkpt lat="45.01303" lon="5.33605">
        <ele>418.31</ele>
        <time>2022-05-17T06:21:46Z</time>
      </trkpt>
      <trkpt lat="45.01302" lon="5.33608">
        <ele>418.31</ele>
        <time>2022-05-17T06:21:48Z</time>
      </trkpt>
      <trkpt lat="45.01287" lon="5.33628">
        <ele>419.75</ele>
        <time>2022-05-17T06:22:05Z</time>
      </trkpt>
      <trkpt lat="45.01275" lon="5.33638">
        <ele>420.23</ele>
        <time>2022-05-17T06:22:18Z</time>
      </trkpt>
      <trkpt lat="45.01274" lon="5.33638">
        <ele>420.23</ele>
        <time>2022-05-17T06:22:19Z</time>
      </trkpt>
      <trkpt lat="45.01264" lon="5.33644">
        <ele>420.71</ele>
        <time>2022-05-17T06:22:26Z</time>
      </trkpt>
      <trkpt lat="45.01261" lon="5.33645">
        <ele>420.71</ele>
        <time>2022-05-17T06:22:29Z</time>
      </trkpt>
      <trkpt lat="45.01257" lon="5.33648">
        <ele>421.19</ele>
        <time>2022-05-17T06:22:33Z</time>
      </trkpt>
      <trkpt lat="45.01255" lon="5.3365">
        <ele>421.19</ele>
        <time>2022-05-17T06:22:35Z</time>
      </trkpt>
      <trkpt lat="45.01247" lon="5.33658">
        <ele>421.68</ele>
        <time>2022-05-17T06:22:44Z</time>
      </trkpt>
      <trkpt lat="45.01243" lon="5.33663">
        <ele>422.16</ele>
        <time>2022-05-17T06:22:48Z</time>
      </trkpt>
      <trkpt lat="45.01236" lon="5.3367">
        <ele>422.64</ele>
        <time>2022-05-17T06:22:55Z</time>
      </trkpt>
      <trkpt lat="45.01232" lon="5.33674">
        <ele>422.64</ele>
        <time>2022-05-17T06:22:59Z</time>
      </trkpt>
      <trkpt lat="45.01224" lon="5.33685">
        <ele>423.12</ele>
        <time>2022-05-17T06:23:08Z</time>
      </trkpt>
      <trkpt lat="45.01214" lon="5.33697">
        <ele>423.6</ele>
        <time>2022-05-17T06:23:18Z</time>
      </trkpt>
      <trkpt lat="45.01204" lon="5.33712">
        <ele>424.56</ele>
        <time>2022-05-17T06:23:32Z</time>
      </trkpt>
      <trkpt lat="45.01201" lon="5.33718">
        <ele>425.04</ele>
        <time>2022-05-17T06:23:36Z</time>
      </trkpt>
      <trkpt lat="45.01192" lon="5.33739">
        <ele>426</ele>
        <time>2022-05-17T06:23:50Z</time>
      </trkpt>
      <trkpt lat="45.01186" lon="5.33749">
        <ele>426.48</ele>
        <time>2022-05-17T06:23:57Z</time>
      </trkpt>
      <trkpt lat="45.01177" lon="5.33767">
        <ele>426.96</ele>
        <time>2022-05-17T06:24:11Z</time>
      </trkpt>
      <trkpt lat="45.01168" lon="5.33785">
        <ele>427.92</ele>
        <time>2022-05-17T06:24:24Z</time>
      </trkpt>
      <trkpt lat="45.01164" lon="5.33794">
        <ele>428.4</ele>
        <time>2022-05-17T06:24:31Z</time>
      </trkpt>
      <trkpt lat="45.01154" lon="5.33815">
        <ele>429.85</ele>
        <time>2022-05-17T06:24:46Z</time>
      </trkpt>
      <trkpt lat="45.01152" lon="5.33821">
        <ele>429.85</ele>
        <time>2022-05-17T06:24:50Z</time>
      </trkpt>
      <trkpt lat="45.01144" lon="5.33835">
        <ele>429.85</ele>
        <time>2022-05-17T06:25:00Z</time>
      </trkpt>
      <trkpt lat="45.01135" lon="5.33855">
        <ele>430.81</ele>
        <time>2022-05-17T06:25:14Z</time>
      </trkpt>
      <trkpt lat="45.01131" lon="5.33867">
        <ele>431.29</ele>
        <time>2022-05-17T06:25:22Z</time>
      </trkpt>
      <trkpt lat="45.01125" lon="5.3388">
        <ele>431.77</ele>
        <time>2022-05-17T06:25:30Z</time>
      </trkpt>
      <trkpt lat="45.01117" lon="5.3389">
        <ele>432.73</ele>
        <time>2022-05-17T06:25:38Z</time>
      </trkpt>
      <trkpt lat="45.01111" lon="5.339">
        <ele>433.21</ele>
        <time>2022-05-17T06:25:51Z</time>
      </trkpt>
      <trkpt lat="45.01103" lon="5.33916">
        <ele>433.69</ele>
        <time>2022-05-17T06:26:05Z</time>
      </trkpt>
      <trkpt lat="45.01103" lon="5.33919">
        <ele>433.69</ele>
        <time>2022-05-17T06:26:07Z</time>
      </trkpt>
      <trkpt lat="45.01097" lon="5.33937">
        <ele>434.65</ele>
        <time>2022-05-17T06:26:18Z</time>
      </trkpt>
      <trkpt lat="45.01094" lon="5.33942">
        <ele>434.65</ele>
        <time>2022-05-17T06:26:22Z</time>
      </trkpt>
      <trkpt lat="45.01092" lon="5.33958">
        <ele>435.13</ele>
        <time>2022-05-17T06:26:31Z</time>
      </trkpt>
      <trkpt lat="45.01086" lon="5.33969">
        <ele>436.1</ele>
        <time>2022-05-17T06:26:40Z</time>
      </trkpt>
      <trkpt lat="45.01082" lon="5.33978">
        <ele>436.1</ele>
        <time>2022-05-17T06:26:47Z</time>
      </trkpt>
      <trkpt lat="45.01079" lon="5.3398">
        <ele>436.58</ele>
        <time>2022-05-17T06:26:49Z</time>
      </trkpt>
      <trkpt lat="45.01073" lon="5.33988">
        <ele>437.54</ele>
        <time>2022-05-17T06:26:57Z</time>
      </trkpt>
      <trkpt lat="45.0106" lon="5.34007">
        <ele>438.02</ele>
        <time>2022-05-17T06:27:12Z</time>
      </trkpt>
      <trkpt lat="45.01054" lon="5.34019">
        <ele>438.5</ele>
        <time>2022-05-17T06:27:21Z</time>
      </trkpt>
      <trkpt lat="45.0105" lon="5.34031">
        <ele>438.98</ele>
        <time>2022-05-17T06:27:29Z</time>
      </trkpt>
      <trkpt lat="45.01039" lon="5.34048">
        <ele>439.94</ele>
        <time>2022-05-17T06:27:42Z</time>
      </trkpt>
      <trkpt lat="45.01032" lon="5.34059">
        <ele>440.42</ele>
        <time>2022-05-17T06:27:51Z</time>
      </trkpt>
      <trkpt lat="45.01021" lon="5.34072">
        <ele>441.38</ele>
        <time>2022-05-17T06:28:03Z</time>
      </trkpt>
      <trkpt lat="45.01018" lon="5.3408">
        <ele>442.34</ele>
        <time>2022-05-17T06:28:09Z</time>
      </trkpt>
      <trkpt lat="45.01006" lon="5.34102">
        <ele>442.34</ele>
        <time>2022-05-17T06:28:24Z</time>
      </trkpt>
      <trkpt lat="45.01" lon="5.3412">
        <ele>443.31</ele>
        <time>2022-05-17T06:28:35Z</time>
      </trkpt>
      <trkpt lat="45.00996" lon="5.3413">
        <ele>444.27</ele>
        <time>2022-05-17T06:28:44Z</time>
      </trkpt>
      <trkpt lat="45.00994" lon="5.34135">
        <ele>444.75</ele>
        <time>2022-05-17T06:28:48Z</time>
      </trkpt>
      <trkpt lat="45.00992" lon="5.34143">
        <ele>444.75</ele>
        <time>2022-05-17T06:28:53Z</time>
      </trkpt>
      <trkpt lat="45.00987" lon="5.34151">
        <ele>445.23</ele>
        <time>2022-05-17T06:28:59Z</time>
      </trkpt>
      <trkpt lat="45.00983" lon="5.34159">
        <ele>445.23</ele>
        <time>2022-05-17T06:29:05Z</time>
      </trkpt>
      <trkpt lat="45.00972" lon="5.34178">
        <ele>446.19</ele>
        <time>2022-05-17T06:29:20Z</time>
      </trkpt>
      <trkpt lat="45.00966" lon="5.34182">
        <ele>447.15</ele>
        <time>2022-05-17T06:29:26Z</time>
      </trkpt>
      <trkpt lat="45.00956" lon="5.34206">
        <ele>447.15</ele>
        <time>2022-05-17T06:29:41Z</time>
      </trkpt>
      <trkpt lat="45.00954" lon="5.3421">
        <ele>447.63</ele>
        <time>2022-05-17T06:29:44Z</time>
      </trkpt>
      <trkpt lat="45.00943" lon="5.34225">
        <ele>448.11</ele>
        <time>2022-05-17T06:30:00Z</time>
      </trkpt>
      <trkpt lat="45.00939" lon="5.34231">
        <ele>448.59</ele>
        <time>2022-05-17T06:30:05Z</time>
      </trkpt>
      <trkpt lat="45.00932" lon="5.34246">
        <ele>449.55</ele>
        <time>2022-05-17T06:30:18Z</time>
      </trkpt>
      <trkpt lat="45.00923" lon="5.34257">
        <ele>450.03</ele>
        <time>2022-05-17T06:30:29Z</time>
      </trkpt>
      <trkpt lat="45.00913" lon="5.34277">
        <ele>451.48</ele>
        <time>2022-05-17T06:30:44Z</time>
      </trkpt>
      <trkpt lat="45.00905" lon="5.34291">
        <ele>452.44</ele>
        <time>2022-05-17T06:30:58Z</time>
      </trkpt>
      <trkpt lat="45.00897" lon="5.34301">
        <ele>452.44</ele>
        <time>2022-05-17T06:31:06Z</time>
      </trkpt>
      <trkpt lat="45.00886" lon="5.34325">
        <ele>452.92</ele>
        <time>2022-05-17T06:31:21Z</time>
      </trkpt>
      <trkpt lat="45.00877" lon="5.34346">
        <ele>454.36</ele>
        <time>2022-05-17T06:31:36Z</time>
      </trkpt>
      <trkpt lat="45.00871" lon="5.34366">
        <ele>454.84</ele>
        <time>2022-05-17T06:31:50Z</time>
      </trkpt>
      <trkpt lat="45.00871" lon="5.34369">
        <ele>455.32</ele>
        <time>2022-05-17T06:31:52Z</time>
      </trkpt>
      <trkpt lat="45.00874" lon="5.34394">
        <ele>455.8</ele>
        <time>2022-05-17T06:32:05Z</time>
      </trkpt>
      <trkpt lat="45.00872" lon="5.34409">
        <ele>457.24</ele>
        <time>2022-05-17T06:32:18Z</time>
      </trkpt>
      <trkpt lat="45.00868" lon="5.34427">
        <ele>459.65</ele>
        <time>2022-05-17T06:32:32Z</time>
      </trkpt>
      <trkpt lat="45.00858" lon="5.34433">
        <ele>459.65</ele>
        <time>2022-05-17T06:32:44Z</time>
      </trkpt>
      <trkpt lat="45.00856" lon="5.34434">
        <ele>459.65</ele>
        <time>2022-05-17T06:32:46Z</time>
      </trkpt>
      <trkpt lat="45.00849" lon="5.34443">
        <ele>459.65</ele>
        <time>2022-05-17T06:32:56Z</time>
      </trkpt>
      <trkpt lat="45.00846" lon="5.34452">
        <ele>459.65</ele>
        <time>2022-05-17T06:33:03Z</time>
      </trkpt>
      <trkpt lat="45.00847" lon="5.34477">
        <ele>461.09</ele>
        <time>2022-05-17T06:33:14Z</time>
      </trkpt>
      <trkpt lat="45.00843" lon="5.34485">
        <ele>462.05</ele>
        <time>2022-05-17T06:33:22Z</time>
      </trkpt>
      <trkpt lat="45.0083" lon="5.34491">
        <ele>462.53</ele>
        <time>2022-05-17T06:33:36Z</time>
      </trkpt>
      <trkpt lat="45.00822" lon="5.34496">
        <ele>464.45</ele>
        <time>2022-05-17T06:33:51Z</time>
      </trkpt>
      <trkpt lat="45.00811" lon="5.34501">
        <ele>464.93</ele>
        <time>2022-05-17T06:34:07Z</time>
      </trkpt>
      <trkpt lat="45.00802" lon="5.34502">
        <ele>464.45</ele>
        <time>2022-05-17T06:34:17Z</time>
      </trkpt>
      <trkpt lat="45.00787" lon="5.34506">
        <ele>464.45</ele>
        <time>2022-05-17T06:34:32Z</time>
      </trkpt>
      <trkpt lat="45.00774" lon="5.34506">
        <ele>464.45</ele>
        <time>2022-05-17T06:34:45Z</time>
      </trkpt>
      <trkpt lat="45.0076" lon="5.34507">
        <ele>465.9</ele>
        <time>2022-05-17T06:34:58Z</time>
      </trkpt>
      <trkpt lat="45.0075" lon="5.34508">
        <ele>466.38</ele>
        <time>2022-05-17T06:35:09Z</time>
      </trkpt>
      <trkpt lat="45.00741" lon="5.34509">
        <ele>465.9</ele>
        <time>2022-05-17T06:35:21Z</time>
      </trkpt>
      <trkpt lat="45.00736" lon="5.34514">
        <ele>465.9</ele>
        <time>2022-05-17T06:35:44Z</time>
      </trkpt>
      <trkpt lat="45.00734" lon="5.34512">
        <ele>465.9</ele>
        <time>2022-05-17T06:35:48Z</time>
      </trkpt>
      <trkpt lat="45.00726" lon="5.3451">
        <ele>465.42</ele>
        <time>2022-05-17T06:36:01Z</time>
      </trkpt>
      <trkpt lat="45.0071" lon="5.34509">
        <ele>465.9</ele>
        <time>2022-05-17T06:36:17Z</time>
      </trkpt>
      <trkpt lat="45.00701" lon="5.34517">
        <ele>465.42</ele>
        <time>2022-05-17T06:36:30Z</time>
      </trkpt>
      <trkpt lat="45.0069" lon="5.34527">
        <ele>465.9</ele>
        <time>2022-05-17T06:36:45Z</time>
      </trkpt>
      <trkpt lat="45.00676" lon="5.34539">
        <ele>466.38</ele>
        <time>2022-05-17T06:37:00Z</time>
      </trkpt>
      <trkpt lat="45.0067" lon="5.34548">
        <ele>466.86</ele>
        <time>2022-05-17T06:37:07Z</time>
      </trkpt>
      <trkpt lat="45.00656" lon="5.3456">
        <ele>467.82</ele>
        <time>2022-05-17T06:37:22Z</time>
      </trkpt>
      <trkpt lat="45.00644" lon="5.34575">
        <ele>468.3</ele>
        <time>2022-05-17T06:37:38Z</time>
      </trkpt>
      <trkpt lat="45.00637" lon="5.34589">
        <ele>469.26</ele>
        <time>2022-05-17T06:37:51Z</time>
      </trkpt>
      <trkpt lat="45.00628" lon="5.34606">
        <ele>470.22</ele>
        <time>2022-05-17T06:38:06Z</time>
      </trkpt>
      <trkpt lat="45.0062" lon="5.34624">
        <ele>471.18</ele>
        <time>2022-05-17T06:38:19Z</time>
      </trkpt>
      <trkpt lat="45.00612" lon="5.34637">
        <ele>472.14</ele>
        <time>2022-05-17T06:38:32Z</time>
      </trkpt>
      <trkpt lat="45.00605" lon="5.34645">
        <ele>472.63</ele>
        <time>2022-05-17T06:38:41Z</time>
      </trkpt>
      <trkpt lat="45.00604" lon="5.34647">
        <ele>472.63</ele>
        <time>2022-05-17T06:38:43Z</time>
      </trkpt>
      <trkpt lat="45.00591" lon="5.34664">
        <ele>474.07</ele>
        <time>2022-05-17T06:39:00Z</time>
      </trkpt>
      <trkpt lat="45.00586" lon="5.34679">
        <ele>474.55</ele>
        <time>2022-05-17T06:39:11Z</time>
      </trkpt>
      <trkpt lat="45.00585" lon="5.34698">
        <ele>475.99</ele>
        <time>2022-05-17T06:39:26Z</time>
      </trkpt>
      <trkpt lat="45.00586" lon="5.34701">
        <ele>475.99</ele>
        <time>2022-05-17T06:39:28Z</time>
      </trkpt>
      <trkpt lat="45.00583" lon="5.34718">
        <ele>477.91</ele>
        <time>2022-05-17T06:39:44Z</time>
      </trkpt>
      <trkpt lat="45.00583" lon="5.3473">
        <ele>477.91</ele>
        <time>2022-05-17T06:39:53Z</time>
      </trkpt>
      <trkpt lat="45.0059" lon="5.34752">
        <ele>478.87</ele>
        <time>2022-05-17T06:40:05Z</time>
      </trkpt>
      <trkpt lat="45.00595" lon="5.34767">
        <ele>479.84</ele>
        <time>2022-05-17T06:40:16Z</time>
      </trkpt>
      <trkpt lat="45.00605" lon="5.34784">
        <ele>480.32</ele>
        <time>2022-05-17T06:40:29Z</time>
      </trkpt>
      <trkpt lat="45.00608" lon="5.34804">
        <ele>481.76</ele>
        <time>2022-05-17T06:40:43Z</time>
      </trkpt>
      <trkpt lat="45.00608" lon="5.34815">
        <ele>482.72</ele>
        <time>2022-05-17T06:41:00Z</time>
      </trkpt>
      <trkpt lat="45.006" lon="5.34817">
        <ele>482.72</ele>
        <time>2022-05-17T06:41:16Z</time>
      </trkpt>
      <trkpt lat="45.00597" lon="5.34815">
        <ele>481.28</ele>
        <time>2022-05-17T06:41:20Z</time>
      </trkpt>
      <trkpt lat="45.00585" lon="5.34811">
        <ele>481.28</ele>
        <time>2022-05-17T06:41:35Z</time>
      </trkpt>
      <trkpt lat="45.00576" lon="5.34812">
        <ele>482.24</ele>
        <time>2022-05-17T06:41:51Z</time>
      </trkpt>
      <trkpt lat="45.00564" lon="5.34811">
        <ele>483.68</ele>
        <time>2022-05-17T06:42:04Z</time>
      </trkpt>
      <trkpt lat="45.00561" lon="5.34813">
        <ele>483.68</ele>
        <time>2022-05-17T06:42:08Z</time>
      </trkpt>
      <trkpt lat="45.00554" lon="5.34817">
        <ele>484.64</ele>
        <time>2022-05-17T06:42:21Z</time>
      </trkpt>
      <trkpt lat="45.00553" lon="5.34823">
        <ele>484.64</ele>
        <time>2022-05-17T06:42:42Z</time>
      </trkpt>
      <trkpt lat="45.00552" lon="5.34826">
        <ele>484.64</ele>
        <time>2022-05-17T06:43:12Z</time>
      </trkpt>
      <trkpt lat="45.00549" lon="5.34822">
        <ele>484.64</ele>
        <time>2022-05-17T06:43:35Z</time>
      </trkpt>
      <trkpt lat="45.00548" lon="5.34818">
        <ele>484.64</ele>
        <time>2022-05-17T06:43:57Z</time>
      </trkpt>
      <trkpt lat="45.00545" lon="5.34813">
        <ele>484.64</ele>
        <time>2022-05-17T06:44:22Z</time>
      </trkpt>
      <trkpt lat="45.00533" lon="5.34823">
        <ele>485.6</ele>
        <time>2022-05-17T06:44:36Z</time>
      </trkpt>
      <trkpt lat="45.00519" lon="5.34836">
        <ele>487.05</ele>
        <time>2022-05-17T06:44:50Z</time>
      </trkpt>
      <trkpt lat="45.00517" lon="5.34837">
        <ele>487.05</ele>
        <time>2022-05-17T06:44:52Z</time>
      </trkpt>
      <trkpt lat="45.00504" lon="5.34845">
        <ele>487.53</ele>
        <time>2022-05-17T06:45:07Z</time>
      </trkpt>
      <trkpt lat="45.00493" lon="5.34853">
        <ele>488.01</ele>
        <time>2022-05-17T06:45:20Z</time>
      </trkpt>
      <trkpt lat="45.00481" lon="5.3486">
        <ele>488.97</ele>
        <time>2022-05-17T06:45:34Z</time>
      </trkpt>
      <trkpt lat="45.00476" lon="5.34871">
        <ele>489.93</ele>
        <time>2022-05-17T06:45:51Z</time>
      </trkpt>
      <trkpt lat="45.00471" lon="5.34877">
        <ele>492.33</ele>
        <time>2022-05-17T06:46:05Z</time>
      </trkpt>
      <trkpt lat="45.00469" lon="5.34885">
        <ele>495.7</ele>
        <time>2022-05-17T06:46:21Z</time>
      </trkpt>
      <trkpt lat="45.00465" lon="5.34893">
        <ele>498.58</ele>
        <time>2022-05-17T06:46:38Z</time>
      </trkpt>
      <trkpt lat="45.00461" lon="5.34901">
        <ele>501.95</ele>
        <time>2022-05-17T06:46:56Z</time>
      </trkpt>
      <trkpt lat="45.00461" lon="5.34906">
        <ele>504.35</ele>
        <time>2022-05-17T06:47:11Z</time>
      </trkpt>
      <trkpt lat="45.00457" lon="5.34917">
        <ele>507.71</ele>
        <time>2022-05-17T06:47:30Z</time>
      </trkpt>
      <trkpt lat="45.00452" lon="5.34925">
        <ele>510.6</ele>
        <time>2022-05-17T06:47:49Z</time>
      </trkpt>
      <trkpt lat="45.00449" lon="5.34935">
        <ele>513.96</ele>
        <time>2022-05-17T06:48:04Z</time>
      </trkpt>
      <trkpt lat="45.00446" lon="5.34947">
        <ele>516.85</ele>
        <time>2022-05-17T06:48:21Z</time>
      </trkpt>
      <trkpt lat="45.00441" lon="5.34958">
        <ele>519.73</ele>
        <time>2022-05-17T06:48:40Z</time>
      </trkpt>
      <trkpt lat="45.00437" lon="5.34969">
        <ele>523.09</ele>
        <time>2022-05-17T06:48:56Z</time>
      </trkpt>
      <trkpt lat="45.00432" lon="5.34979">
        <ele>525.02</ele>
        <time>2022-05-17T06:49:13Z</time>
      </trkpt>
      <trkpt lat="45.00426" lon="5.34987">
        <ele>527.9</ele>
        <time>2022-05-17T06:49:30Z</time>
      </trkpt>
      <trkpt lat="45.00418" lon="5.34994">
        <ele>529.34</ele>
        <time>2022-05-17T06:49:44Z</time>
      </trkpt>
      <trkpt lat="45.00411" lon="5.35001">
        <ele>531.75</ele>
        <time>2022-05-17T06:50:01Z</time>
      </trkpt>
      <trkpt lat="45.00401" lon="5.35012">
        <ele>534.15</ele>
        <time>2022-05-17T06:50:17Z</time>
      </trkpt>
      <trkpt lat="45.00392" lon="5.35024">
        <ele>537.03</ele>
        <time>2022-05-17T06:50:35Z</time>
      </trkpt>
      <trkpt lat="45.00384" lon="5.3503">
        <ele>538.96</ele>
        <time>2022-05-17T06:50:49Z</time>
      </trkpt>
      <trkpt lat="45.00377" lon="5.3504">
        <ele>540.88</ele>
        <time>2022-05-17T06:51:06Z</time>
      </trkpt>
      <trkpt lat="45.00372" lon="5.3505">
        <ele>543.76</ele>
        <time>2022-05-17T06:51:22Z</time>
      </trkpt>
      <trkpt lat="45.00364" lon="5.3506">
        <ele>546.65</ele>
        <time>2022-05-17T06:51:39Z</time>
      </trkpt>
      <trkpt lat="45.00355" lon="5.35072">
        <ele>549.05</ele>
        <time>2022-05-17T06:51:56Z</time>
      </trkpt>
      <trkpt lat="45.00347" lon="5.35079">
        <ele>550.01</ele>
        <time>2022-05-17T06:52:13Z</time>
      </trkpt>
      <trkpt lat="45.00342" lon="5.35092">
        <ele>552.41</ele>
        <time>2022-05-17T06:52:28Z</time>
      </trkpt>
      <trkpt lat="45.00338" lon="5.35108">
        <ele>555.3</ele>
        <time>2022-05-17T06:52:44Z</time>
      </trkpt>
      <trkpt lat="45.00334" lon="5.35117">
        <ele>557.22</ele>
        <time>2022-05-17T06:52:58Z</time>
      </trkpt>
      <trkpt lat="45.0033" lon="5.35126">
        <ele>560.11</ele>
        <time>2022-05-17T06:53:13Z</time>
      </trkpt>
      <trkpt lat="45.00329" lon="5.35135">
        <ele>562.51</ele>
        <time>2022-05-17T06:53:28Z</time>
      </trkpt>
      <trkpt lat="45.00326" lon="5.35146">
        <ele>564.91</ele>
        <time>2022-05-17T06:53:41Z</time>
      </trkpt>
      <trkpt lat="45.0032" lon="5.35154">
        <ele>567.32</ele>
        <time>2022-05-17T06:53:54Z</time>
      </trkpt>
      <trkpt lat="45.00318" lon="5.35167">
        <ele>569.72</ele>
        <time>2022-05-17T06:54:09Z</time>
      </trkpt>
      <trkpt lat="45.00318" lon="5.35181">
        <ele>572.6</ele>
        <time>2022-05-17T06:54:26Z</time>
      </trkpt>
      <trkpt lat="45.00314" lon="5.35189">
        <ele>575.49</ele>
        <time>2022-05-17T06:54:41Z</time>
      </trkpt>
      <trkpt lat="45.00308" lon="5.35201">
        <ele>578.37</ele>
        <time>2022-05-17T06:54:56Z</time>
      </trkpt>
      <trkpt lat="45.00307" lon="5.35213">
        <ele>580.77</ele>
        <time>2022-05-17T06:55:11Z</time>
      </trkpt>
      <trkpt lat="45.00311" lon="5.35218">
        <ele>584.14</ele>
        <time>2022-05-17T06:55:27Z</time>
      </trkpt>
      <trkpt lat="45.0031" lon="5.3523">
        <ele>587.02</ele>
        <time>2022-05-17T06:55:43Z</time>
      </trkpt>
      <trkpt lat="45.0031" lon="5.35241">
        <ele>589.91</ele>
        <time>2022-05-17T06:56:00Z</time>
      </trkpt>
      <trkpt lat="45.00302" lon="5.35245">
        <ele>591.35</ele>
        <time>2022-05-17T06:56:14Z</time>
      </trkpt>
      <trkpt lat="45.00293" lon="5.35259">
        <ele>594.71</ele>
        <time>2022-05-17T06:56:29Z</time>
      </trkpt>
      <trkpt lat="45.00286" lon="5.35267">
        <ele>596.64</ele>
        <time>2022-05-17T06:56:42Z</time>
      </trkpt>
      <trkpt lat="45.0028" lon="5.35276">
        <ele>599.04</ele>
        <time>2022-05-17T06:57:05Z</time>
      </trkpt>
      <trkpt lat="45.00279" lon="5.3528">
        <ele>612.98</ele>
        <time>2022-05-17T07:00:07Z</time>
      </trkpt>
      <trkpt lat="45.00282" lon="5.3529">
        <ele>615.86</ele>
        <time>2022-05-17T07:00:23Z</time>
      </trkpt>
      <trkpt lat="45.00284" lon="5.35297">
        <ele>619.23</ele>
        <time>2022-05-17T07:00:39Z</time>
      </trkpt>
      <trkpt lat="45.00287" lon="5.35305">
        <ele>622.11</ele>
        <time>2022-05-17T07:00:54Z</time>
      </trkpt>
      <trkpt lat="45.00284" lon="5.35316">
        <ele>624.99</ele>
        <time>2022-05-17T07:01:10Z</time>
      </trkpt>
      <trkpt lat="45.00282" lon="5.35328">
        <ele>628.36</ele>
        <time>2022-05-17T07:01:23Z</time>
      </trkpt>
      <trkpt lat="45.00279" lon="5.35339">
        <ele>631.24</ele>
        <time>2022-05-17T07:01:39Z</time>
      </trkpt>
      <trkpt lat="45.00273" lon="5.35349">
        <ele>634.61</ele>
        <time>2022-05-17T07:01:57Z</time>
      </trkpt>
      <trkpt lat="45.00272" lon="5.35358">
        <ele>637.49</ele>
        <time>2022-05-17T07:02:12Z</time>
      </trkpt>
      <trkpt lat="45.00268" lon="5.35369">
        <ele>640.38</ele>
        <time>2022-05-17T07:02:28Z</time>
      </trkpt>
      <trkpt lat="45.00266" lon="5.35379">
        <ele>643.74</ele>
        <time>2022-05-17T07:02:45Z</time>
      </trkpt>
      <trkpt lat="45.00262" lon="5.3539">
        <ele>646.14</ele>
        <time>2022-05-17T07:03:01Z</time>
      </trkpt>
      <trkpt lat="45.00259" lon="5.35405">
        <ele>649.51</ele>
        <time>2022-05-17T07:03:21Z</time>
      </trkpt>
      <trkpt lat="45.00257" lon="5.35417">
        <ele>652.87</ele>
        <time>2022-05-17T07:03:39Z</time>
      </trkpt>
      <trkpt lat="45.00258" lon="5.35427">
        <ele>655.28</ele>
        <time>2022-05-17T07:03:55Z</time>
      </trkpt>
      <trkpt lat="45.00258" lon="5.35438">
        <ele>658.16</ele>
        <time>2022-05-17T07:04:12Z</time>
      </trkpt>
      <trkpt lat="45.00258" lon="5.35444">
        <ele>661.52</ele>
        <time>2022-05-17T07:04:26Z</time>
      </trkpt>
      <trkpt lat="45.00257" lon="5.35455">
        <ele>663.45</ele>
        <time>2022-05-17T07:04:42Z</time>
      </trkpt>
      <trkpt lat="45.00257" lon="5.35464">
        <ele>666.81</ele>
        <time>2022-05-17T07:04:57Z</time>
      </trkpt>
      <trkpt lat="45.00255" lon="5.35477">
        <ele>669.22</ele>
        <time>2022-05-17T07:05:14Z</time>
      </trkpt>
      <trkpt lat="45.0025" lon="5.35493">
        <ele>671.14</ele>
        <time>2022-05-17T07:05:31Z</time>
      </trkpt>
      <trkpt lat="45.00246" lon="5.35502">
        <ele>672.1</ele>
        <time>2022-05-17T07:05:44Z</time>
      </trkpt>
      <trkpt lat="45.00239" lon="5.35516">
        <ele>674.02</ele>
        <time>2022-05-17T07:06:02Z</time>
      </trkpt>
      <trkpt lat="45.00232" lon="5.35529">
        <ele>676.42</ele>
        <time>2022-05-17T07:06:21Z</time>
      </trkpt>
      <trkpt lat="45.00226" lon="5.35546">
        <ele>679.79</ele>
        <time>2022-05-17T07:06:39Z</time>
      </trkpt>
      <trkpt lat="45.00224" lon="5.35557">
        <ele>683.15</ele>
        <time>2022-05-17T07:06:56Z</time>
      </trkpt>
      <trkpt lat="45.00223" lon="5.35567">
        <ele>686.04</ele>
        <time>2022-05-17T07:07:14Z</time>
      </trkpt>
      <trkpt lat="45.0022" lon="5.35574">
        <ele>688.92</ele>
        <time>2022-05-17T07:07:28Z</time>
      </trkpt>
      <trkpt lat="45.00219" lon="5.35586">
        <ele>691.81</ele>
        <time>2022-05-17T07:07:45Z</time>
      </trkpt>
      <trkpt lat="45.00221" lon="5.3559">
        <ele>694.69</ele>
        <time>2022-05-17T07:07:59Z</time>
      </trkpt>
      <trkpt lat="45.0022" lon="5.35596">
        <ele>698.05</ele>
        <time>2022-05-17T07:08:15Z</time>
      </trkpt>
      <trkpt lat="45.00223" lon="5.35598">
        <ele>700.46</ele>
        <time>2022-05-17T07:08:31Z</time>
      </trkpt>
      <trkpt lat="45.00224" lon="5.35598">
        <ele>701.9</ele>
        <time>2022-05-17T07:08:35Z</time>
      </trkpt>
      <trkpt lat="45.00228" lon="5.35595">
        <ele>704.78</ele>
        <time>2022-05-17T07:08:51Z</time>
      </trkpt>
      <trkpt lat="45.00229" lon="5.35602">
        <ele>707.67</ele>
        <time>2022-05-17T07:09:05Z</time>
      </trkpt>
      <trkpt lat="45.00234" lon="5.3561">
        <ele>710.07</ele>
        <time>2022-05-17T07:09:20Z</time>
      </trkpt>
      <trkpt lat="45.00235" lon="5.35609">
        <ele>711.99</ele>
        <time>2022-05-17T07:09:37Z</time>
      </trkpt>
      <trkpt lat="45.00238" lon="5.35614">
        <ele>715.36</ele>
        <time>2022-05-17T07:09:52Z</time>
      </trkpt>
      <trkpt lat="45.00236" lon="5.35626">
        <ele>718.72</ele>
        <time>2022-05-17T07:10:08Z</time>
      </trkpt>
      <trkpt lat="45.00236" lon="5.35636">
        <ele>721.13</ele>
        <time>2022-05-17T07:10:23Z</time>
      </trkpt>
      <trkpt lat="45.00239" lon="5.35642">
        <ele>724.49</ele>
        <time>2022-05-17T07:10:41Z</time>
      </trkpt>
      <trkpt lat="45.00239" lon="5.35649">
        <ele>727.37</ele>
        <time>2022-05-17T07:10:57Z</time>
      </trkpt>
      <trkpt lat="45.00235" lon="5.35658">
        <ele>730.26</ele>
        <time>2022-05-17T07:11:14Z</time>
      </trkpt>
      <trkpt lat="45.00236" lon="5.35665">
        <ele>733.14</ele>
        <time>2022-05-17T07:11:29Z</time>
      </trkpt>
      <trkpt lat="45.00236" lon="5.35673">
        <ele>736.51</ele>
        <time>2022-05-17T07:11:46Z</time>
      </trkpt>
      <trkpt lat="45.00237" lon="5.3567">
        <ele>739.39</ele>
        <time>2022-05-17T07:12:02Z</time>
      </trkpt>
      <trkpt lat="45.00239" lon="5.35677">
        <ele>741.79</ele>
        <time>2022-05-17T07:12:17Z</time>
      </trkpt>
      <trkpt lat="45.00244" lon="5.35673">
        <ele>745.16</ele>
        <time>2022-05-17T07:12:32Z</time>
      </trkpt>
      <trkpt lat="45.00248" lon="5.35677">
        <ele>748.04</ele>
        <time>2022-05-17T07:12:46Z</time>
      </trkpt>
      <trkpt lat="45.00248" lon="5.3569">
        <ele>750.93</ele>
        <time>2022-05-17T07:13:02Z</time>
      </trkpt>
      <trkpt lat="45.00247" lon="5.35702">
        <ele>754.29</ele>
        <time>2022-05-17T07:13:17Z</time>
      </trkpt>
      <trkpt lat="45.00246" lon="5.35709">
        <ele>756.21</ele>
        <time>2022-05-17T07:13:33Z</time>
      </trkpt>
      <trkpt lat="45.0025" lon="5.35708">
        <ele>760.06</ele>
        <time>2022-05-17T07:13:47Z</time>
      </trkpt>
      <trkpt lat="45.00248" lon="5.35717">
        <ele>762.94</ele>
        <time>2022-05-17T07:14:05Z</time>
      </trkpt>
      <trkpt lat="45.00248" lon="5.35725">
        <ele>766.31</ele>
        <time>2022-05-17T07:14:19Z</time>
      </trkpt>
      <trkpt lat="45.00248" lon="5.35732">
        <ele>768.71</ele>
        <time>2022-05-17T07:14:35Z</time>
      </trkpt>
      <trkpt lat="45.00249" lon="5.35743">
        <ele>772.08</ele>
        <time>2022-05-17T07:14:53Z</time>
      </trkpt>
      <trkpt lat="45.00248" lon="5.35751">
        <ele>775.44</ele>
        <time>2022-05-17T07:15:08Z</time>
      </trkpt>
      <trkpt lat="45.00246" lon="5.35758">
        <ele>778.32</ele>
        <time>2022-05-17T07:15:24Z</time>
      </trkpt>
      <trkpt lat="45.00245" lon="5.35767">
        <ele>780.25</ele>
        <time>2022-05-17T07:15:41Z</time>
      </trkpt>
      <trkpt lat="45.00243" lon="5.35774">
        <ele>780.25</ele>
        <time>2022-05-17T07:15:56Z</time>
      </trkpt>
      <trkpt lat="45.00242" lon="5.35781">
        <ele>780.73</ele>
        <time>2022-05-17T07:16:12Z</time>
      </trkpt>
      <trkpt lat="45.00241" lon="5.35784">
        <ele>798.51</ele>
        <time>2022-05-17T07:24:13Z</time>
      </trkpt>
      <trkpt lat="45.00237" lon="5.35787">
        <ele>801.88</ele>
        <time>2022-05-17T07:24:25Z</time>
      </trkpt>
      <trkpt lat="45.00232" lon="5.35789">
        <ele>803.8</ele>
        <time>2022-05-17T07:24:40Z</time>
      </trkpt>
      <trkpt lat="45.00227" lon="5.35792">
        <ele>804.76</ele>
        <time>2022-05-17T07:24:56Z</time>
      </trkpt>
      <trkpt lat="45.00224" lon="5.35794">
        <ele>806.2</ele>
        <time>2022-05-17T07:25:22Z</time>
      </trkpt>
      <trkpt lat="45.00217" lon="5.35798">
        <ele>808.61</ele>
        <time>2022-05-17T07:25:38Z</time>
      </trkpt>
      <trkpt lat="45.00216" lon="5.358">
        <ele>811.49</ele>
        <time>2022-05-17T07:25:55Z</time>
      </trkpt>
      <trkpt lat="45.0021" lon="5.35804">
        <ele>814.37</ele>
        <time>2022-05-17T07:26:12Z</time>
      </trkpt>
      <trkpt lat="45.00204" lon="5.35812">
        <ele>817.74</ele>
        <time>2022-05-17T07:26:27Z</time>
      </trkpt>
      <trkpt lat="45.00204" lon="5.35814">
        <ele>817.74</ele>
        <time>2022-05-17T07:26:47Z</time>
      </trkpt>
      <trkpt lat="45.00202" lon="5.35814">
        <ele>817.74</ele>
        <time>2022-05-17T07:27:04Z</time>
      </trkpt>
      <trkpt lat="45.00201" lon="5.35832">
        <ele>820.62</ele>
        <time>2022-05-17T07:27:23Z</time>
      </trkpt>
      <trkpt lat="45.00196" lon="5.35841">
        <ele>823.99</ele>
        <time>2022-05-17T07:27:40Z</time>
      </trkpt>
      <trkpt lat="45.0019" lon="5.35854">
        <ele>827.35</ele>
        <time>2022-05-17T07:27:58Z</time>
      </trkpt>
      <trkpt lat="45.00187" lon="5.35861">
        <ele>829.27</ele>
        <time>2022-05-17T07:28:12Z</time>
      </trkpt>
      <trkpt lat="45.00179" lon="5.35868">
        <ele>831.2</ele>
        <time>2022-05-17T07:28:26Z</time>
      </trkpt>
      <trkpt lat="45.00171" lon="5.35875">
        <ele>833.12</ele>
        <time>2022-05-17T07:28:41Z</time>
      </trkpt>
      <trkpt lat="45.00164" lon="5.35883">
        <ele>836</ele>
        <time>2022-05-17T07:28:57Z</time>
      </trkpt>
      <trkpt lat="45.00155" lon="5.35886">
        <ele>837.93</ele>
        <time>2022-05-17T07:29:13Z</time>
      </trkpt>
      <trkpt lat="45.00146" lon="5.35891">
        <ele>838.89</ele>
        <time>2022-05-17T07:29:28Z</time>
      </trkpt>
      <trkpt lat="45.00136" lon="5.35891">
        <ele>840.81</ele>
        <time>2022-05-17T07:29:41Z</time>
      </trkpt>
      <trkpt lat="45.00127" lon="5.35892">
        <ele>842.25</ele>
        <time>2022-05-17T07:29:54Z</time>
      </trkpt>
      <trkpt lat="45.00115" lon="5.35897">
        <ele>844.18</ele>
        <time>2022-05-17T07:30:07Z</time>
      </trkpt>
      <trkpt lat="45.0011" lon="5.35902">
        <ele>846.1</ele>
        <time>2022-05-17T07:30:23Z</time>
      </trkpt>
      <trkpt lat="45.00102" lon="5.35907">
        <ele>847.54</ele>
        <time>2022-05-17T07:30:38Z</time>
      </trkpt>
      <trkpt lat="45.00088" lon="5.35926">
        <ele>849.46</ele>
        <time>2022-05-17T07:30:58Z</time>
      </trkpt>
      <trkpt lat="45.00078" lon="5.35928">
        <ele>852.83</ele>
        <time>2022-05-17T07:31:16Z</time>
      </trkpt>
      <trkpt lat="45.0007" lon="5.35939">
        <ele>853.79</ele>
        <time>2022-05-17T07:31:32Z</time>
      </trkpt>
      <trkpt lat="45.00063" lon="5.3595">
        <ele>856.67</ele>
        <time>2022-05-17T07:31:47Z</time>
      </trkpt>
      <trkpt lat="45.00053" lon="5.3596">
        <ele>858.11</ele>
        <time>2022-05-17T07:32:05Z</time>
      </trkpt>
      <trkpt lat="45.00048" lon="5.35969">
        <ele>860.04</ele>
        <time>2022-05-17T07:32:20Z</time>
      </trkpt>
      <trkpt lat="45.00035" lon="5.35967">
        <ele>861</ele>
        <time>2022-05-17T07:32:35Z</time>
      </trkpt>
      <trkpt lat="45.00027" lon="5.35971">
        <ele>863.4</ele>
        <time>2022-05-17T07:32:51Z</time>
      </trkpt>
      <trkpt lat="45.00022" lon="5.35984">
        <ele>866.77</ele>
        <time>2022-05-17T07:33:06Z</time>
      </trkpt>
      <trkpt lat="45.00021" lon="5.35998">
        <ele>868.21</ele>
        <time>2022-05-17T07:33:18Z</time>
      </trkpt>
      <trkpt lat="45.00014" lon="5.36007">
        <ele>870.13</ele>
        <time>2022-05-17T07:33:35Z</time>
      </trkpt>
      <trkpt lat="45.00006" lon="5.36009">
        <ele>870.13</ele>
        <time>2022-05-17T07:33:49Z</time>
      </trkpt>
      <trkpt lat="45.00002" lon="5.36014">
        <ele>872.53</ele>
        <time>2022-05-17T07:34:09Z</time>
      </trkpt>
      <trkpt lat="44.99996" lon="5.36021">
        <ele>873.5</ele>
        <time>2022-05-17T07:34:26Z</time>
      </trkpt>
      <trkpt lat="44.99989" lon="5.36026">
        <ele>873.98</ele>
        <time>2022-05-17T07:34:54Z</time>
      </trkpt>
      <trkpt lat="44.99986" lon="5.36007">
        <ele>873.98</ele>
        <time>2022-05-17T07:35:26Z</time>
      </trkpt>
      <trkpt lat="44.99985" lon="5.36007">
        <ele>874.46</ele>
        <time>2022-05-17T07:35:48Z</time>
      </trkpt>
      <trkpt lat="44.99979" lon="5.36009">
        <ele>874.46</ele>
        <time>2022-05-17T07:36:03Z</time>
      </trkpt>
      <trkpt lat="44.99968" lon="5.36005">
        <ele>874.46</ele>
        <time>2022-05-17T07:36:17Z</time>
      </trkpt>
      <trkpt lat="44.99962" lon="5.36008">
        <ele>875.42</ele>
        <time>2022-05-17T07:36:29Z</time>
      </trkpt>
      <trkpt lat="44.9995" lon="5.36011">
        <ele>876.86</ele>
        <time>2022-05-17T07:36:46Z</time>
      </trkpt>
      <trkpt lat="44.9994" lon="5.36013">
        <ele>875.9</ele>
        <time>2022-05-17T07:37:01Z</time>
      </trkpt>
      <trkpt lat="44.99931" lon="5.36012">
        <ele>875.42</ele>
        <time>2022-05-17T07:37:15Z</time>
      </trkpt>
      <trkpt lat="44.99919" lon="5.36011">
        <ele>875.42</ele>
        <time>2022-05-17T07:37:29Z</time>
      </trkpt>
      <trkpt lat="44.99915" lon="5.36011">
        <ele>876.38</ele>
        <time>2022-05-17T07:37:34Z</time>
      </trkpt>
      <trkpt lat="44.9991" lon="5.36009">
        <ele>876.86</ele>
        <time>2022-05-17T07:37:51Z</time>
      </trkpt>
      <trkpt lat="44.99904" lon="5.36011">
        <ele>878.3</ele>
        <time>2022-05-17T07:38:12Z</time>
      </trkpt>
      <trkpt lat="44.999" lon="5.36006">
        <ele>880.22</ele>
        <time>2022-05-17T07:38:30Z</time>
      </trkpt>
      <trkpt lat="44.99895" lon="5.35992">
        <ele>881.19</ele>
        <time>2022-05-17T07:38:47Z</time>
      </trkpt>
      <trkpt lat="44.9989" lon="5.35981">
        <ele>883.11</ele>
        <time>2022-05-17T07:39:07Z</time>
      </trkpt>
      <trkpt lat="44.99883" lon="5.3597">
        <ele>884.07</ele>
        <time>2022-05-17T07:39:29Z</time>
      </trkpt>
      <trkpt lat="44.99878" lon="5.35975">
        <ele>886.95</ele>
        <time>2022-05-17T07:39:44Z</time>
      </trkpt>
      <trkpt lat="44.9987" lon="5.35976">
        <ele>889.84</ele>
        <time>2022-05-17T07:39:58Z</time>
      </trkpt>
      <trkpt lat="44.99865" lon="5.35974">
        <ele>891.76</ele>
        <time>2022-05-17T07:40:15Z</time>
      </trkpt>
      <trkpt lat="44.99863" lon="5.35967">
        <ele>893.68</ele>
        <time>2022-05-17T07:40:29Z</time>
      </trkpt>
      <trkpt lat="44.99859" lon="5.35965">
        <ele>895.12</ele>
        <time>2022-05-17T07:40:48Z</time>
      </trkpt>
      <trkpt lat="44.99856" lon="5.35964">
        <ele>897.53</ele>
        <time>2022-05-17T07:41:05Z</time>
      </trkpt>
      <trkpt lat="44.9985" lon="5.35963">
        <ele>899.45</ele>
        <time>2022-05-17T07:41:23Z</time>
      </trkpt>
      <trkpt lat="44.99842" lon="5.35963">
        <ele>901.37</ele>
        <time>2022-05-17T07:41:38Z</time>
      </trkpt>
      <trkpt lat="44.99838" lon="5.35953">
        <ele>903.3</ele>
        <time>2022-05-17T07:41:55Z</time>
      </trkpt>
      <trkpt lat="44.99835" lon="5.3595">
        <ele>904.74</ele>
        <time>2022-05-17T07:42:15Z</time>
      </trkpt>
      <trkpt lat="44.99835" lon="5.35952">
        <ele>905.22</ele>
        <time>2022-05-17T07:42:35Z</time>
      </trkpt>
      <trkpt lat="44.99831" lon="5.3595">
        <ele>906.66</ele>
        <time>2022-05-17T07:42:54Z</time>
      </trkpt>
      <trkpt lat="44.9983" lon="5.35951">
        <ele>907.14</ele>
        <time>2022-05-17T07:43:14Z</time>
      </trkpt>
      <trkpt lat="44.99823" lon="5.35954">
        <ele>910.51</ele>
        <time>2022-05-17T07:43:29Z</time>
      </trkpt>
      <trkpt lat="44.99819" lon="5.35952">
        <ele>911.47</ele>
        <time>2022-05-17T07:43:35Z</time>
      </trkpt>
      <trkpt lat="44.99812" lon="5.35947">
        <ele>914.35</ele>
        <time>2022-05-17T07:43:50Z</time>
      </trkpt>
      <trkpt lat="44.99799" lon="5.35948">
        <ele>915.79</ele>
        <time>2022-05-17T07:44:08Z</time>
      </trkpt>
      <trkpt lat="44.99791" lon="5.35943">
        <ele>917.24</ele>
        <time>2022-05-17T07:44:22Z</time>
      </trkpt>
      <trkpt lat="44.99783" lon="5.35935">
        <ele>918.2</ele>
        <time>2022-05-17T07:44:35Z</time>
      </trkpt>
      <trkpt lat="44.99776" lon="5.35927">
        <ele>919.16</ele>
        <time>2022-05-17T07:44:48Z</time>
      </trkpt>
      <trkpt lat="44.99768" lon="5.35922">
        <ele>921.08</ele>
        <time>2022-05-17T07:45:03Z</time>
      </trkpt>
      <trkpt lat="44.99757" lon="5.35917">
        <ele>922.04</ele>
        <time>2022-05-17T07:45:19Z</time>
      </trkpt>
      <trkpt lat="44.99747" lon="5.35914">
        <ele>923.96</ele>
        <time>2022-05-17T07:45:35Z</time>
      </trkpt>
      <trkpt lat="44.99738" lon="5.35916">
        <ele>927.33</ele>
        <time>2022-05-17T07:45:52Z</time>
      </trkpt>
      <trkpt lat="44.9973" lon="5.35908">
        <ele>928.77</ele>
        <time>2022-05-17T07:46:06Z</time>
      </trkpt>
      <trkpt lat="44.99721" lon="5.35909">
        <ele>930.69</ele>
        <time>2022-05-17T07:46:22Z</time>
      </trkpt>
      <trkpt lat="44.99713" lon="5.35907">
        <ele>933.1</ele>
        <time>2022-05-17T07:46:38Z</time>
      </trkpt>
      <trkpt lat="44.99707" lon="5.35899">
        <ele>935.98</ele>
        <time>2022-05-17T07:46:55Z</time>
      </trkpt>
      <trkpt lat="44.99708" lon="5.35896">
        <ele>937.9</ele>
        <time>2022-05-17T07:47:09Z</time>
      </trkpt>
      <trkpt lat="44.9971" lon="5.35902">
        <ele>940.31</ele>
        <time>2022-05-17T07:47:24Z</time>
      </trkpt>
      <trkpt lat="44.99713" lon="5.35907">
        <ele>941.75</ele>
        <time>2022-05-17T07:47:40Z</time>
      </trkpt>
      <trkpt lat="44.99717" lon="5.35913">
        <ele>944.15</ele>
        <time>2022-05-17T07:47:53Z</time>
      </trkpt>
      <trkpt lat="44.99721" lon="5.35915">
        <ele>945.59</ele>
        <time>2022-05-17T07:48:07Z</time>
      </trkpt>
      <trkpt lat="44.99729" lon="5.35922">
        <ele>948</ele>
        <time>2022-05-17T07:48:20Z</time>
      </trkpt>
      <trkpt lat="44.99734" lon="5.35924">
        <ele>949.92</ele>
        <time>2022-05-17T07:48:30Z</time>
      </trkpt>
      <trkpt lat="44.99739" lon="5.3593">
        <ele>950.88</ele>
        <time>2022-05-17T07:48:39Z</time>
      </trkpt>
      <trkpt lat="44.99741" lon="5.35939">
        <ele>950.88</ele>
        <time>2022-05-17T07:48:45Z</time>
      </trkpt>
      <trkpt lat="44.99747" lon="5.35938">
        <ele>950.88</ele>
        <time>2022-05-17T07:48:52Z</time>
      </trkpt>
      <trkpt lat="44.99753" lon="5.35938">
        <ele>952.32</ele>
        <time>2022-05-17T07:48:59Z</time>
      </trkpt>
      <trkpt lat="44.99763" lon="5.35943">
        <ele>952.32</ele>
        <time>2022-05-17T07:49:12Z</time>
      </trkpt>
      <trkpt lat="44.99771" lon="5.35949">
        <ele>952.32</ele>
        <time>2022-05-17T07:49:22Z</time>
      </trkpt>
      <trkpt lat="44.99776" lon="5.35957">
        <ele>952.32</ele>
        <time>2022-05-17T07:49:35Z</time>
      </trkpt>
      <trkpt lat="44.99778" lon="5.35957">
        <ele>950.88</ele>
        <time>2022-05-17T07:49:37Z</time>
      </trkpt>
      <trkpt lat="44.99783" lon="5.35963">
        <ele>950.4</ele>
        <time>2022-05-17T07:49:47Z</time>
      </trkpt>
      <trkpt lat="44.99791" lon="5.35974">
        <ele>951.36</ele>
        <time>2022-05-17T07:50:00Z</time>
      </trkpt>
      <trkpt lat="44.99798" lon="5.35981">
        <ele>952.32</ele>
        <time>2022-05-17T07:50:12Z</time>
      </trkpt>
      <trkpt lat="44.9981" lon="5.35987">
        <ele>952.8</ele>
        <time>2022-05-17T07:50:27Z</time>
      </trkpt>
      <trkpt lat="44.99817" lon="5.3599">
        <ele>955.21</ele>
        <time>2022-05-17T07:50:43Z</time>
      </trkpt>
      <trkpt lat="44.99817" lon="5.35998">
        <ele>957.61</ele>
        <time>2022-05-17T07:50:58Z</time>
      </trkpt>
      <trkpt lat="44.99814" lon="5.36008">
        <ele>960.01</ele>
        <time>2022-05-17T07:51:19Z</time>
      </trkpt>
      <trkpt lat="44.99817" lon="5.36007">
        <ele>962.42</ele>
        <time>2022-05-17T07:51:32Z</time>
      </trkpt>
      <trkpt lat="44.9982" lon="5.36007">
        <ele>964.82</ele>
        <time>2022-05-17T07:51:45Z</time>
      </trkpt>
      <trkpt lat="44.99825" lon="5.36012">
        <ele>967.22</ele>
        <time>2022-05-17T07:52:00Z</time>
      </trkpt>
      <trkpt lat="44.99826" lon="5.36011">
        <ele>970.11</ele>
        <time>2022-05-17T07:52:17Z</time>
      </trkpt>
      <trkpt lat="44.99827" lon="5.36006">
        <ele>972.51</ele>
        <time>2022-05-17T07:52:34Z</time>
      </trkpt>
      <trkpt lat="44.99832" lon="5.36003">
        <ele>975.88</ele>
        <time>2022-05-17T07:52:50Z</time>
      </trkpt>
      <trkpt lat="44.99832" lon="5.36004">
        <ele>979.24</ele>
        <time>2022-05-17T08:00:06Z</time>
      </trkpt>
      <trkpt lat="44.99833" lon="5.36007">
        <ele>979.72</ele>
        <time>2022-05-17T08:00:30Z</time>
      </trkpt>
      <trkpt lat="44.99833" lon="5.36011">
        <ele>979.72</ele>
        <time>2022-05-17T08:00:52Z</time>
      </trkpt>
      <trkpt lat="44.99833" lon="5.36022">
        <ele>981.16</ele>
        <time>2022-05-17T08:01:06Z</time>
      </trkpt>
      <trkpt lat="44.99829" lon="5.36029">
        <ele>982.6</ele>
        <time>2022-05-17T08:01:21Z</time>
      </trkpt>
      <trkpt lat="44.99821" lon="5.36032">
        <ele>985.49</ele>
        <time>2022-05-17T08:01:38Z</time>
      </trkpt>
      <trkpt lat="44.99813" lon="5.36023">
        <ele>988.37</ele>
        <time>2022-05-17T08:01:56Z</time>
      </trkpt>
      <trkpt lat="44.99812" lon="5.36024">
        <ele>991.26</ele>
        <time>2022-05-17T08:02:14Z</time>
      </trkpt>
      <trkpt lat="44.9981" lon="5.36032">
        <ele>993.18</ele>
        <time>2022-05-17T08:02:29Z</time>
      </trkpt>
      <trkpt lat="44.99806" lon="5.36039">
        <ele>996.54</ele>
        <time>2022-05-17T08:02:47Z</time>
      </trkpt>
      <trkpt lat="44.99799" lon="5.36037">
        <ele>999.43</ele>
        <time>2022-05-17T08:03:03Z</time>
      </trkpt>
      <trkpt lat="44.9979" lon="5.36038">
        <ele>1002.31</ele>
        <time>2022-05-17T08:03:21Z</time>
      </trkpt>
      <trkpt lat="44.99784" lon="5.36039">
        <ele>1005.2</ele>
        <time>2022-05-17T08:03:37Z</time>
      </trkpt>
      <trkpt lat="44.99774" lon="5.36042">
        <ele>1007.6</ele>
        <time>2022-05-17T08:03:54Z</time>
      </trkpt>
      <trkpt lat="44.99765" lon="5.36047">
        <ele>1009.52</ele>
        <time>2022-05-17T08:04:13Z</time>
      </trkpt>
      <trkpt lat="44.99752" lon="5.36056">
        <ele>1011.93</ele>
        <time>2022-05-17T08:04:29Z</time>
      </trkpt>
      <trkpt lat="44.9975" lon="5.36061">
        <ele>1011.93</ele>
        <time>2022-05-17T08:04:34Z</time>
      </trkpt>
      <trkpt lat="44.99742" lon="5.3607">
        <ele>1014.33</ele>
        <time>2022-05-17T08:04:49Z</time>
      </trkpt>
      <trkpt lat="44.99736" lon="5.36073">
        <ele>1015.29</ele>
        <time>2022-05-17T08:05:00Z</time>
      </trkpt>
      <trkpt lat="44.99724" lon="5.36077">
        <ele>1016.25</ele>
        <time>2022-05-17T08:05:14Z</time>
      </trkpt>
      <trkpt lat="44.99714" lon="5.36085">
        <ele>1017.21</ele>
        <time>2022-05-17T08:05:28Z</time>
      </trkpt>
      <trkpt lat="44.99702" lon="5.36092">
        <ele>1018.17</ele>
        <time>2022-05-17T08:05:42Z</time>
      </trkpt>
      <trkpt lat="44.99685" lon="5.36097">
        <ele>1018.65</ele>
        <time>2022-05-17T08:05:58Z</time>
      </trkpt>
      <trkpt lat="44.99675" lon="5.36107">
        <ele>1019.13</ele>
        <time>2022-05-17T08:06:11Z</time>
      </trkpt>
      <trkpt lat="44.99674" lon="5.36128">
        <ele>1019.13</ele>
        <time>2022-05-17T08:06:28Z</time>
      </trkpt>
      <trkpt lat="44.99674" lon="5.36136">
        <ele>1019.13</ele>
        <time>2022-05-17T08:06:41Z</time>
      </trkpt>
      <trkpt lat="44.99674" lon="5.36141">
        <ele>1020.1</ele>
        <time>2022-05-17T08:09:02Z</time>
      </trkpt>
      <trkpt lat="44.99667" lon="5.36148">
        <ele>1020.58</ele>
        <time>2022-05-17T08:09:21Z</time>
      </trkpt>
      <trkpt lat="44.99658" lon="5.36159">
        <ele>1023.46</ele>
        <time>2022-05-17T08:09:43Z</time>
      </trkpt>
      <trkpt lat="44.99653" lon="5.36168">
        <ele>1023.46</ele>
        <time>2022-05-17T08:09:59Z</time>
      </trkpt>
      <trkpt lat="44.99644" lon="5.36173">
        <ele>1024.42</ele>
        <time>2022-05-17T08:10:14Z</time>
      </trkpt>
      <trkpt lat="44.99636" lon="5.36175">
        <ele>1025.38</ele>
        <time>2022-05-17T08:10:25Z</time>
      </trkpt>
      <trkpt lat="44.99626" lon="5.36179">
        <ele>1026.34</ele>
        <time>2022-05-17T08:10:39Z</time>
      </trkpt>
      <trkpt lat="44.99614" lon="5.36185">
        <ele>1028.27</ele>
        <time>2022-05-17T08:10:57Z</time>
      </trkpt>
      <trkpt lat="44.99608" lon="5.36175">
        <ele>1031.63</ele>
        <time>2022-05-17T08:11:13Z</time>
      </trkpt>
      <trkpt lat="44.99601" lon="5.36165">
        <ele>1033.07</ele>
        <time>2022-05-17T08:11:26Z</time>
      </trkpt>
      <trkpt lat="44.99589" lon="5.36147">
        <ele>1035.48</ele>
        <time>2022-05-17T08:11:49Z</time>
      </trkpt>
      <trkpt lat="44.99585" lon="5.36144">
        <ele>1035.96</ele>
        <time>2022-05-17T08:11:54Z</time>
      </trkpt>
      <trkpt lat="44.9958" lon="5.36138">
        <ele>1037.4</ele>
        <time>2022-05-17T08:12:07Z</time>
      </trkpt>
      <trkpt lat="44.99574" lon="5.3613">
        <ele>1039.32</ele>
        <time>2022-05-17T08:12:22Z</time>
      </trkpt>
      <trkpt lat="44.99567" lon="5.36116">
        <ele>1041.25</ele>
        <time>2022-05-17T08:12:38Z</time>
      </trkpt>
      <trkpt lat="44.99561" lon="5.36116">
        <ele>1042.69</ele>
        <time>2022-05-17T08:12:53Z</time>
      </trkpt>
      <trkpt lat="44.99546" lon="5.36121">
        <ele>1045.09</ele>
        <time>2022-05-17T08:13:10Z</time>
      </trkpt>
      <trkpt lat="44.99541" lon="5.36121">
        <ele>1045.09</ele>
        <time>2022-05-17T08:13:17Z</time>
      </trkpt>
      <trkpt lat="44.99531" lon="5.36124">
        <ele>1044.13</ele>
        <time>2022-05-17T08:13:30Z</time>
      </trkpt>
      <trkpt lat="44.99519" lon="5.36126">
        <ele>1044.13</ele>
        <time>2022-05-17T08:13:43Z</time>
      </trkpt>
      <trkpt lat="44.99507" lon="5.3613">
        <ele>1044.13</ele>
        <time>2022-05-17T08:13:56Z</time>
      </trkpt>
      <trkpt lat="44.99491" lon="5.36139">
        <ele>1043.65</ele>
        <time>2022-05-17T08:14:10Z</time>
      </trkpt>
      <trkpt lat="44.99482" lon="5.36147">
        <ele>1045.09</ele>
        <time>2022-05-17T08:14:21Z</time>
      </trkpt>
      <trkpt lat="44.99471" lon="5.36164">
        <ele>1047.01</ele>
        <time>2022-05-17T08:14:38Z</time>
      </trkpt>
      <trkpt lat="44.99466" lon="5.36168">
        <ele>1047.01</ele>
        <time>2022-05-17T08:14:44Z</time>
      </trkpt>
      <trkpt lat="44.99455" lon="5.36165">
        <ele>1047.97</ele>
        <time>2022-05-17T08:14:59Z</time>
      </trkpt>
      <trkpt lat="44.99442" lon="5.3616">
        <ele>1048.45</ele>
        <time>2022-05-17T08:15:14Z</time>
      </trkpt>
      <trkpt lat="44.99437" lon="5.36163">
        <ele>1048.45</ele>
        <time>2022-05-17T08:15:30Z</time>
      </trkpt>
      <trkpt lat="44.99431" lon="5.36167">
        <ele>1047.49</ele>
        <time>2022-05-17T08:15:42Z</time>
      </trkpt>
      <trkpt lat="44.99427" lon="5.3617">
        <ele>1047.49</ele>
        <time>2022-05-17T08:16:00Z</time>
      </trkpt>
      <trkpt lat="44.99424" lon="5.36173">
        <ele>1048.45</ele>
        <time>2022-05-17T08:18:08Z</time>
      </trkpt>
      <trkpt lat="44.99408" lon="5.36181">
        <ele>1047.97</ele>
        <time>2022-05-17T08:18:25Z</time>
      </trkpt>
      <trkpt lat="44.99389" lon="5.36186">
        <ele>1047.97</ele>
        <time>2022-05-17T08:18:41Z</time>
      </trkpt>
      <trkpt lat="44.99366" lon="5.36186">
        <ele>1047.49</ele>
        <time>2022-05-17T08:19:01Z</time>
      </trkpt>
      <trkpt lat="44.99347" lon="5.36191">
        <ele>1047.49</ele>
        <time>2022-05-17T08:19:18Z</time>
      </trkpt>
      <trkpt lat="44.99328" lon="5.36201">
        <ele>1046.53</ele>
        <time>2022-05-17T08:19:37Z</time>
      </trkpt>
      <trkpt lat="44.99309" lon="5.36212">
        <ele>1045.57</ele>
        <time>2022-05-17T08:19:56Z</time>
      </trkpt>
      <trkpt lat="44.99307" lon="5.36214">
        <ele>1045.57</ele>
        <time>2022-05-17T08:19:58Z</time>
      </trkpt>
      <trkpt lat="44.9929" lon="5.36222">
        <ele>1044.61</ele>
        <time>2022-05-17T08:20:13Z</time>
      </trkpt>
      <trkpt lat="44.99275" lon="5.36226">
        <ele>1043.17</ele>
        <time>2022-05-17T08:20:28Z</time>
      </trkpt>
      <trkpt lat="44.99265" lon="5.3623">
        <ele>1042.21</ele>
        <time>2022-05-17T08:20:36Z</time>
      </trkpt>
      <trkpt lat="44.99249" lon="5.36242">
        <ele>1041.73</ele>
        <time>2022-05-17T08:20:51Z</time>
      </trkpt>
      <trkpt lat="44.99234" lon="5.36245">
        <ele>1040.28</ele>
        <time>2022-05-17T08:21:04Z</time>
      </trkpt>
      <trkpt lat="44.99217" lon="5.36255">
        <ele>1039.32</ele>
        <time>2022-05-17T08:21:21Z</time>
      </trkpt>
      <trkpt lat="44.9921" lon="5.36261">
        <ele>1039.32</ele>
        <time>2022-05-17T08:21:28Z</time>
      </trkpt>
      <trkpt lat="44.99195" lon="5.36275">
        <ele>1040.28</ele>
        <time>2022-05-17T08:21:43Z</time>
      </trkpt>
      <trkpt lat="44.99188" lon="5.3628">
        <ele>1041.25</ele>
        <time>2022-05-17T08:22:00Z</time>
      </trkpt>
      <trkpt lat="44.99178" lon="5.36294">
        <ele>1041.73</ele>
        <time>2022-05-17T08:22:14Z</time>
      </trkpt>
      <trkpt lat="44.99164" lon="5.36311">
        <ele>1042.69</ele>
        <time>2022-05-17T08:22:32Z</time>
      </trkpt>
      <trkpt lat="44.99152" lon="5.36327">
        <ele>1043.65</ele>
        <time>2022-05-17T08:22:47Z</time>
      </trkpt>
      <trkpt lat="44.99141" lon="5.36343">
        <ele>1044.61</ele>
        <time>2022-05-17T08:23:02Z</time>
      </trkpt>
      <trkpt lat="44.99128" lon="5.36357">
        <ele>1045.57</ele>
        <time>2022-05-17T08:23:17Z</time>
      </trkpt>
      <trkpt lat="44.99118" lon="5.36368">
        <ele>1045.57</ele>
        <time>2022-05-17T08:23:28Z</time>
      </trkpt>
      <trkpt lat="44.99103" lon="5.36384">
        <ele>1045.57</ele>
        <time>2022-05-17T08:23:44Z</time>
      </trkpt>
      <trkpt lat="44.99086" lon="5.36398">
        <ele>1046.53</ele>
        <time>2022-05-17T08:24:00Z</time>
      </trkpt>
      <trkpt lat="44.99083" lon="5.364">
        <ele>1046.53</ele>
        <time>2022-05-17T08:24:03Z</time>
      </trkpt>
      <trkpt lat="44.99067" lon="5.36414">
        <ele>1047.49</ele>
        <time>2022-05-17T08:24:19Z</time>
      </trkpt>
      <trkpt lat="44.9905" lon="5.36427">
        <ele>1048.45</ele>
        <time>2022-05-17T08:24:35Z</time>
      </trkpt>
      <trkpt lat="44.99039" lon="5.36435">
        <ele>1049.42</ele>
        <time>2022-05-17T08:24:48Z</time>
      </trkpt>
      <trkpt lat="44.99024" lon="5.36447">
        <ele>1049.9</ele>
        <time>2022-05-17T08:25:04Z</time>
      </trkpt>
      <trkpt lat="44.99022" lon="5.36449">
        <ele>1049.9</ele>
        <time>2022-05-17T08:25:06Z</time>
      </trkpt>
      <trkpt lat="44.9902" lon="5.36451">
        <ele>1050.38</ele>
        <time>2022-05-17T08:25:08Z</time>
      </trkpt>
      <trkpt lat="44.99002" lon="5.36461">
        <ele>1051.34</ele>
        <time>2022-05-17T08:25:25Z</time>
      </trkpt>
      <trkpt lat="44.98985" lon="5.36466">
        <ele>1052.3</ele>
        <time>2022-05-17T08:25:42Z</time>
      </trkpt>
      <trkpt lat="44.98971" lon="5.36472">
        <ele>1053.26</ele>
        <time>2022-05-17T08:25:56Z</time>
      </trkpt>
      <trkpt lat="44.98954" lon="5.36479">
        <ele>1054.22</ele>
        <time>2022-05-17T08:26:12Z</time>
      </trkpt>
      <trkpt lat="44.98937" lon="5.36488">
        <ele>1054.7</ele>
        <time>2022-05-17T08:26:28Z</time>
      </trkpt>
      <trkpt lat="44.98919" lon="5.36501">
        <ele>1055.67</ele>
        <time>2022-05-17T08:26:44Z</time>
      </trkpt>
      <trkpt lat="44.98903" lon="5.36519">
        <ele>1056.63</ele>
        <time>2022-05-17T08:27:01Z</time>
      </trkpt>
      <trkpt lat="44.98891" lon="5.36537">
        <ele>1057.11</ele>
        <time>2022-05-17T08:27:16Z</time>
      </trkpt>
      <trkpt lat="44.98884" lon="5.3656">
        <ele>1058.07</ele>
        <time>2022-05-17T08:27:33Z</time>
      </trkpt>
      <trkpt lat="44.98881" lon="5.36577">
        <ele>1059.03</ele>
        <time>2022-05-17T08:27:44Z</time>
      </trkpt>
      <trkpt lat="44.98882" lon="5.36599">
        <ele>1059.03</ele>
        <time>2022-05-17T08:27:58Z</time>
      </trkpt>
      <trkpt lat="44.98883" lon="5.3661">
        <ele>1059.51</ele>
        <time>2022-05-17T08:28:13Z</time>
      </trkpt>
      <trkpt lat="44.98884" lon="5.36614">
        <ele>1059.99</ele>
        <time>2022-05-17T08:29:32Z</time>
      </trkpt>
      <trkpt lat="44.98882" lon="5.36626">
        <ele>1060.47</ele>
        <time>2022-05-17T08:29:46Z</time>
      </trkpt>
      <trkpt lat="44.98882" lon="5.36645">
        <ele>1060.95</ele>
        <time>2022-05-17T08:30:00Z</time>
      </trkpt>
      <trkpt lat="44.98882" lon="5.36648">
        <ele>1060.95</ele>
        <time>2022-05-17T08:30:02Z</time>
      </trkpt>
      <trkpt lat="44.98881" lon="5.36675">
        <ele>1061.43</ele>
        <time>2022-05-17T08:30:20Z</time>
      </trkpt>
      <trkpt lat="44.98875" lon="5.36683">
        <ele>1061.91</ele>
        <time>2022-05-17T08:30:33Z</time>
      </trkpt>
      <trkpt lat="44.98872" lon="5.36696">
        <ele>1062.39</ele>
        <time>2022-05-17T08:30:48Z</time>
      </trkpt>
      <trkpt lat="44.98871" lon="5.36699">
        <ele>1062.87</ele>
        <time>2022-05-17T08:30:51Z</time>
      </trkpt>
      <trkpt lat="44.98873" lon="5.36716">
        <ele>1064.8</ele>
        <time>2022-05-17T08:31:06Z</time>
      </trkpt>
      <trkpt lat="44.98872" lon="5.36732">
        <ele>1066.72</ele>
        <time>2022-05-17T08:31:18Z</time>
      </trkpt>
      <trkpt lat="44.98872" lon="5.36745">
        <ele>1068.64</ele>
        <time>2022-05-17T08:31:33Z</time>
      </trkpt>
      <trkpt lat="44.98869" lon="5.36757">
        <ele>1070.57</ele>
        <time>2022-05-17T08:31:47Z</time>
      </trkpt>
      <trkpt lat="44.98867" lon="5.3677">
        <ele>1072.01</ele>
        <time>2022-05-17T08:32:00Z</time>
      </trkpt>
      <trkpt lat="44.98866" lon="5.36783">
        <ele>1073.93</ele>
        <time>2022-05-17T08:32:12Z</time>
      </trkpt>
      <trkpt lat="44.98863" lon="5.36795">
        <ele>1076.33</ele>
        <time>2022-05-17T08:32:25Z</time>
      </trkpt>
      <trkpt lat="44.98859" lon="5.36808">
        <ele>1077.29</ele>
        <time>2022-05-17T08:32:37Z</time>
      </trkpt>
      <trkpt lat="44.98852" lon="5.36821">
        <ele>1080.18</ele>
        <time>2022-05-17T08:32:54Z</time>
      </trkpt>
      <trkpt lat="44.98848" lon="5.36831">
        <ele>1082.1</ele>
        <time>2022-05-17T08:33:04Z</time>
      </trkpt>
      <trkpt lat="44.98846" lon="5.36848">
        <ele>1084.02</ele>
        <time>2022-05-17T08:33:20Z</time>
      </trkpt>
      <trkpt lat="44.98842" lon="5.36859">
        <ele>1085.47</ele>
        <time>2022-05-17T08:33:33Z</time>
      </trkpt>
      <trkpt lat="44.98836" lon="5.36873">
        <ele>1087.39</ele>
        <time>2022-05-17T08:33:49Z</time>
      </trkpt>
      <trkpt lat="44.98836" lon="5.36876">
        <ele>1087.87</ele>
        <time>2022-05-17T08:33:52Z</time>
      </trkpt>
      <trkpt lat="44.98831" lon="5.36891">
        <ele>1090.27</ele>
        <time>2022-05-17T08:34:07Z</time>
      </trkpt>
      <trkpt lat="44.98822" lon="5.369">
        <ele>1092.2</ele>
        <time>2022-05-17T08:34:21Z</time>
      </trkpt>
      <trkpt lat="44.9882" lon="5.36905">
        <ele>1092.68</ele>
        <time>2022-05-17T08:34:28Z</time>
      </trkpt>
      <trkpt lat="44.98816" lon="5.3691">
        <ele>1092.68</ele>
        <time>2022-05-17T08:34:33Z</time>
      </trkpt>
      <trkpt lat="44.98813" lon="5.36912">
        <ele>1092.68</ele>
        <time>2022-05-17T08:34:36Z</time>
      </trkpt>
      <trkpt lat="44.98798" lon="5.36917">
        <ele>1093.64</ele>
        <time>2022-05-17T08:34:51Z</time>
      </trkpt>
      <trkpt lat="44.98791" lon="5.3692">
        <ele>1094.12</ele>
        <time>2022-05-17T08:34:58Z</time>
      </trkpt>
      <trkpt lat="44.9878" lon="5.36924">
        <ele>1094.6</ele>
        <time>2022-05-17T08:35:09Z</time>
      </trkpt>
      <trkpt lat="44.98773" lon="5.36925">
        <ele>1094.6</ele>
        <time>2022-05-17T08:35:17Z</time>
      </trkpt>
      <trkpt lat="44.98754" lon="5.3693">
        <ele>1094.6</ele>
        <time>2022-05-17T08:35:31Z</time>
      </trkpt>
      <trkpt lat="44.98742" lon="5.36933">
        <ele>1094.6</ele>
        <time>2022-05-17T08:35:42Z</time>
      </trkpt>
      <trkpt lat="44.9873" lon="5.36937">
        <ele>1097.48</ele>
        <time>2022-05-17T08:35:57Z</time>
      </trkpt>
      <trkpt lat="44.9871" lon="5.36928">
        <ele>1098.92</ele>
        <time>2022-05-17T08:36:14Z</time>
      </trkpt>
      <trkpt lat="44.98705" lon="5.36928">
        <ele>1099.4</ele>
        <time>2022-05-17T08:36:19Z</time>
      </trkpt>
      <trkpt lat="44.98694" lon="5.3692">
        <ele>1099.89</ele>
        <time>2022-05-17T08:36:33Z</time>
      </trkpt>
      <trkpt lat="44.98674" lon="5.36916">
        <ele>1099.89</ele>
        <time>2022-05-17T08:36:50Z</time>
      </trkpt>
      <trkpt lat="44.98671" lon="5.36917">
        <ele>1099.89</ele>
        <time>2022-05-17T08:36:54Z</time>
      </trkpt>
      <trkpt lat="44.9866" lon="5.3693">
        <ele>1102.29</ele>
        <time>2022-05-17T08:37:11Z</time>
      </trkpt>
      <trkpt lat="44.98656" lon="5.36941">
        <ele>1105.65</ele>
        <time>2022-05-17T08:37:25Z</time>
      </trkpt>
      <trkpt lat="44.98653" lon="5.3695">
        <ele>1107.58</ele>
        <time>2022-05-17T08:37:39Z</time>
      </trkpt>
      <trkpt lat="44.98652" lon="5.36958">
        <ele>1109.98</ele>
        <time>2022-05-17T08:37:50Z</time>
      </trkpt>
      <trkpt lat="44.98651" lon="5.36971">
        <ele>1112.38</ele>
        <time>2022-05-17T08:38:05Z</time>
      </trkpt>
      <trkpt lat="44.98649" lon="5.36979">
        <ele>1115.27</ele>
        <time>2022-05-17T08:38:19Z</time>
      </trkpt>
      <trkpt lat="44.98645" lon="5.36992">
        <ele>1118.63</ele>
        <time>2022-05-17T08:38:36Z</time>
      </trkpt>
      <trkpt lat="44.98642" lon="5.37004">
        <ele>1121.03</ele>
        <time>2022-05-17T08:38:50Z</time>
      </trkpt>
      <trkpt lat="44.98634" lon="5.37017">
        <ele>1123.44</ele>
        <time>2022-05-17T08:39:07Z</time>
      </trkpt>
      <trkpt lat="44.9863" lon="5.37025">
        <ele>1125.36</ele>
        <time>2022-05-17T08:39:18Z</time>
      </trkpt>
      <trkpt lat="44.98632" lon="5.37028">
        <ele>1126.32</ele>
        <time>2022-05-17T08:39:43Z</time>
      </trkpt>
      <trkpt lat="44.98632" lon="5.37033">
        <ele>1127.28</ele>
        <time>2022-05-17T08:40:01Z</time>
      </trkpt>
      <trkpt lat="44.98627" lon="5.37038">
        <ele>1128.73</ele>
        <time>2022-05-17T08:40:16Z</time>
      </trkpt>
      <trkpt lat="44.9862" lon="5.37044">
        <ele>1130.17</ele>
        <time>2022-05-17T08:40:34Z</time>
      </trkpt>
      <trkpt lat="44.9861" lon="5.37054">
        <ele>1132.57</ele>
        <time>2022-05-17T08:40:49Z</time>
      </trkpt>
      <trkpt lat="44.98601" lon="5.37067">
        <ele>1135.94</ele>
        <time>2022-05-17T08:41:07Z</time>
      </trkpt>
      <trkpt lat="44.98594" lon="5.37078">
        <ele>1138.34</ele>
        <time>2022-05-17T08:41:22Z</time>
      </trkpt>
      <trkpt lat="44.98601" lon="5.37083">
        <ele>1140.26</ele>
        <time>2022-05-17T08:41:36Z</time>
      </trkpt>
      <trkpt lat="44.98608" lon="5.37088">
        <ele>1142.66</ele>
        <time>2022-05-17T08:41:50Z</time>
      </trkpt>
      <trkpt lat="44.98615" lon="5.37092">
        <ele>1145.07</ele>
        <time>2022-05-17T08:42:04Z</time>
      </trkpt>
      <trkpt lat="44.9862" lon="5.37096">
        <ele>1146.03</ele>
        <time>2022-05-17T08:42:11Z</time>
      </trkpt>
      <trkpt lat="44.98631" lon="5.37102">
        <ele>1148.43</ele>
        <time>2022-05-17T08:42:26Z</time>
      </trkpt>
      <trkpt lat="44.98638" lon="5.3711">
        <ele>1149.87</ele>
        <time>2022-05-17T08:42:40Z</time>
      </trkpt>
      <trkpt lat="44.98641" lon="5.37112">
        <ele>1150.84</ele>
        <time>2022-05-17T08:42:44Z</time>
      </trkpt>
      <trkpt lat="44.9865" lon="5.37119">
        <ele>1153.24</ele>
        <time>2022-05-17T08:42:59Z</time>
      </trkpt>
      <trkpt lat="44.98657" lon="5.37126">
        <ele>1155.16</ele>
        <time>2022-05-17T08:43:11Z</time>
      </trkpt>
      <trkpt lat="44.98667" lon="5.37132">
        <ele>1157.08</ele>
        <time>2022-05-17T08:43:24Z</time>
      </trkpt>
      <trkpt lat="44.98675" lon="5.37141">
        <ele>1158.53</ele>
        <time>2022-05-17T08:43:39Z</time>
      </trkpt>
      <trkpt lat="44.98684" lon="5.37151">
        <ele>1160.93</ele>
        <time>2022-05-17T08:43:54Z</time>
      </trkpt>
      <trkpt lat="44.98689" lon="5.37158">
        <ele>1163.81</ele>
        <time>2022-05-17T08:44:09Z</time>
      </trkpt>
      <trkpt lat="44.98688" lon="5.3716">
        <ele>1163.81</ele>
        <time>2022-05-17T08:44:14Z</time>
      </trkpt>
      <trkpt lat="44.98684" lon="5.37165">
        <ele>1165.26</ele>
        <time>2022-05-17T08:44:27Z</time>
      </trkpt>
      <trkpt lat="44.98681" lon="5.37167">
        <ele>1166.7</ele>
        <time>2022-05-17T08:45:06Z</time>
      </trkpt>
      <trkpt lat="44.98675" lon="5.37179">
        <ele>1168.14</ele>
        <time>2022-05-17T08:45:19Z</time>
      </trkpt>
      <trkpt lat="44.98669" lon="5.37189">
        <ele>1170.54</ele>
        <time>2022-05-17T08:45:33Z</time>
      </trkpt>
      <trkpt lat="44.98661" lon="5.37197">
        <ele>1172.47</ele>
        <time>2022-05-17T08:45:46Z</time>
      </trkpt>
      <trkpt lat="44.98655" lon="5.37209">
        <ele>1175.35</ele>
        <time>2022-05-17T08:46:01Z</time>
      </trkpt>
      <trkpt lat="44.98648" lon="5.37215">
        <ele>1177.27</ele>
        <time>2022-05-17T08:46:14Z</time>
      </trkpt>
      <trkpt lat="44.98647" lon="5.3722">
        <ele>1179.19</ele>
        <time>2022-05-17T08:46:28Z</time>
      </trkpt>
      <trkpt lat="44.98651" lon="5.37221">
        <ele>1181.6</ele>
        <time>2022-05-17T08:46:41Z</time>
      </trkpt>
      <trkpt lat="44.98657" lon="5.37224">
        <ele>1183.04</ele>
        <time>2022-05-17T08:46:54Z</time>
      </trkpt>
      <trkpt lat="44.98659" lon="5.37224">
        <ele>1183.52</ele>
        <time>2022-05-17T08:46:57Z</time>
      </trkpt>
      <trkpt lat="44.98667" lon="5.37229">
        <ele>1185.92</ele>
        <time>2022-05-17T08:47:13Z</time>
      </trkpt>
      <trkpt lat="44.98673" lon="5.37232">
        <ele>1188.33</ele>
        <time>2022-05-17T08:47:26Z</time>
      </trkpt>
      <trkpt lat="44.9868" lon="5.37234">
        <ele>1189.29</ele>
        <time>2022-05-17T08:47:39Z</time>
      </trkpt>
      <trkpt lat="44.98684" lon="5.37239">
        <ele>1190.25</ele>
        <time>2022-05-17T08:47:49Z</time>
      </trkpt>
      <trkpt lat="44.98692" lon="5.37245">
        <ele>1192.65</ele>
        <time>2022-05-17T08:48:02Z</time>
      </trkpt>
      <trkpt lat="44.98698" lon="5.37252">
        <ele>1196.98</ele>
        <time>2022-05-17T08:50:48Z</time>
      </trkpt>
      <trkpt lat="44.98691" lon="5.3727">
        <ele>1198.9</ele>
        <time>2022-05-17T08:51:06Z</time>
      </trkpt>
      <trkpt lat="44.98689" lon="5.3728">
        <ele>1201.3</ele>
        <time>2022-05-17T08:51:22Z</time>
      </trkpt>
      <trkpt lat="44.98694" lon="5.37283">
        <ele>1203.71</ele>
        <time>2022-05-17T08:51:37Z</time>
      </trkpt>
      <trkpt lat="44.98699" lon="5.37288">
        <ele>1206.11</ele>
        <time>2022-05-17T08:51:50Z</time>
      </trkpt>
      <trkpt lat="44.98707" lon="5.37297">
        <ele>1209</ele>
        <time>2022-05-17T08:52:07Z</time>
      </trkpt>
      <trkpt lat="44.98716" lon="5.37303">
        <ele>1211.88</ele>
        <time>2022-05-17T08:52:24Z</time>
      </trkpt>
      <trkpt lat="44.98722" lon="5.37309">
        <ele>1214.28</ele>
        <time>2022-05-17T08:52:39Z</time>
      </trkpt>
      <trkpt lat="44.98731" lon="5.37315">
        <ele>1216.21</ele>
        <time>2022-05-17T08:52:53Z</time>
      </trkpt>
      <trkpt lat="44.98736" lon="5.3732">
        <ele>1219.09</ele>
        <time>2022-05-17T08:53:07Z</time>
      </trkpt>
      <trkpt lat="44.98738" lon="5.37329">
        <ele>1221.49</ele>
        <time>2022-05-17T08:53:21Z</time>
      </trkpt>
      <trkpt lat="44.98732" lon="5.37337">
        <ele>1223.42</ele>
        <time>2022-05-17T08:53:34Z</time>
      </trkpt>
      <trkpt lat="44.98732" lon="5.37348">
        <ele>1225.82</ele>
        <time>2022-05-17T08:53:48Z</time>
      </trkpt>
      <trkpt lat="44.98738" lon="5.3735">
        <ele>1228.7</ele>
        <time>2022-05-17T08:54:03Z</time>
      </trkpt>
      <trkpt lat="44.98746" lon="5.37355">
        <ele>1231.11</ele>
        <time>2022-05-17T08:54:19Z</time>
      </trkpt>
      <trkpt lat="44.98738" lon="5.37363">
        <ele>1233.03</ele>
        <time>2022-05-17T08:54:35Z</time>
      </trkpt>
      <trkpt lat="44.98734" lon="5.37372">
        <ele>1235.43</ele>
        <time>2022-05-17T08:54:52Z</time>
      </trkpt>
      <trkpt lat="44.98726" lon="5.37384">
        <ele>1238.32</ele>
        <time>2022-05-17T08:55:09Z</time>
      </trkpt>
      <trkpt lat="44.98718" lon="5.37387">
        <ele>1238.32</ele>
        <time>2022-05-17T08:55:21Z</time>
      </trkpt>
      <trkpt lat="44.98713" lon="5.37395">
        <ele>1240.72</ele>
        <time>2022-05-17T08:55:35Z</time>
      </trkpt>
      <trkpt lat="44.98711" lon="5.37401">
        <ele>1242.64</ele>
        <time>2022-05-17T08:55:49Z</time>
      </trkpt>
      <trkpt lat="44.98713" lon="5.37407">
        <ele>1245.53</ele>
        <time>2022-05-17T08:56:07Z</time>
      </trkpt>
      <trkpt lat="44.98715" lon="5.37405">
        <ele>1247.45</ele>
        <time>2022-05-17T08:56:21Z</time>
      </trkpt>
      <trkpt lat="44.98719" lon="5.37409">
        <ele>1248.89</ele>
        <time>2022-05-17T08:56:35Z</time>
      </trkpt>
      <trkpt lat="44.98727" lon="5.37411">
        <ele>1249.85</ele>
        <time>2022-05-17T08:56:47Z</time>
      </trkpt>
      <trkpt lat="44.98736" lon="5.37416">
        <ele>1252.74</ele>
        <time>2022-05-17T08:57:03Z</time>
      </trkpt>
      <trkpt lat="44.98741" lon="5.3742">
        <ele>1254.66</ele>
        <time>2022-05-17T08:57:15Z</time>
      </trkpt>
      <trkpt lat="44.9875" lon="5.37424">
        <ele>1257.06</ele>
        <time>2022-05-17T08:57:31Z</time>
      </trkpt>
      <trkpt lat="44.9876" lon="5.37428">
        <ele>1258.98</ele>
        <time>2022-05-17T08:57:44Z</time>
      </trkpt>
      <trkpt lat="44.98769" lon="5.37431">
        <ele>1260.91</ele>
        <time>2022-05-17T08:57:57Z</time>
      </trkpt>
      <trkpt lat="44.98772" lon="5.37436">
        <ele>1262.83</ele>
        <time>2022-05-17T08:58:10Z</time>
      </trkpt>
      <trkpt lat="44.98763" lon="5.37444">
        <ele>1265.23</ele>
        <time>2022-05-17T08:58:28Z</time>
      </trkpt>
      <trkpt lat="44.98751" lon="5.37449">
        <ele>1267.16</ele>
        <time>2022-05-17T08:58:44Z</time>
      </trkpt>
      <trkpt lat="44.98744" lon="5.37457">
        <ele>1270.52</ele>
        <time>2022-05-17T08:59:00Z</time>
      </trkpt>
      <trkpt lat="44.98737" lon="5.37463">
        <ele>1272.44</ele>
        <time>2022-05-17T08:59:14Z</time>
      </trkpt>
      <trkpt lat="44.98727" lon="5.37466">
        <ele>1273.4</ele>
        <time>2022-05-17T08:59:28Z</time>
      </trkpt>
      <trkpt lat="44.98722" lon="5.3747">
        <ele>1274.85</ele>
        <time>2022-05-17T08:59:44Z</time>
      </trkpt>
      <trkpt lat="44.98716" lon="5.37472">
        <ele>1277.73</ele>
        <time>2022-05-17T09:00:00Z</time>
      </trkpt>
      <trkpt lat="44.98711" lon="5.37481">
        <ele>1280.61</ele>
        <time>2022-05-17T09:00:14Z</time>
      </trkpt>
      <trkpt lat="44.98715" lon="5.37484">
        <ele>1282.54</ele>
        <time>2022-05-17T09:00:27Z</time>
      </trkpt>
      <trkpt lat="44.98721" lon="5.37486">
        <ele>1284.94</ele>
        <time>2022-05-17T09:00:44Z</time>
      </trkpt>
      <trkpt lat="44.98719" lon="5.37491">
        <ele>1287.82</ele>
        <time>2022-05-17T09:01:02Z</time>
      </trkpt>
      <trkpt lat="44.98715" lon="5.37497">
        <ele>1290.23</ele>
        <time>2022-05-17T09:01:18Z</time>
      </trkpt>
      <trkpt lat="44.98708" lon="5.37502">
        <ele>1292.15</ele>
        <time>2022-05-17T09:01:32Z</time>
      </trkpt>
      <trkpt lat="44.98701" lon="5.37505">
        <ele>1295.51</ele>
        <time>2022-05-17T09:01:50Z</time>
      </trkpt>
      <trkpt lat="44.98691" lon="5.37511">
        <ele>1297.92</ele>
        <time>2022-05-17T09:02:07Z</time>
      </trkpt>
      <trkpt lat="44.98684" lon="5.37511">
        <ele>1299.84</ele>
        <time>2022-05-17T09:02:21Z</time>
      </trkpt>
      <trkpt lat="44.98675" lon="5.37513">
        <ele>1302.24</ele>
        <time>2022-05-17T09:02:36Z</time>
      </trkpt>
      <trkpt lat="44.98663" lon="5.37515">
        <ele>1305.13</ele>
        <time>2022-05-17T09:02:53Z</time>
      </trkpt>
      <trkpt lat="44.9865" lon="5.37513">
        <ele>1307.05</ele>
        <time>2022-05-17T09:03:08Z</time>
      </trkpt>
      <trkpt lat="44.9864" lon="5.3751">
        <ele>1308.49</ele>
        <time>2022-05-17T09:03:24Z</time>
      </trkpt>
      <trkpt lat="44.9863" lon="5.37509">
        <ele>1308.97</ele>
        <time>2022-05-17T09:03:39Z</time>
      </trkpt>
      <trkpt lat="44.9862" lon="5.37507">
        <ele>1310.41</ele>
        <time>2022-05-17T09:03:53Z</time>
      </trkpt>
      <trkpt lat="44.98613" lon="5.3751">
        <ele>1313.3</ele>
        <time>2022-05-17T09:04:11Z</time>
      </trkpt>
      <trkpt lat="44.98603" lon="5.37511">
        <ele>1314.74</ele>
        <time>2022-05-17T09:04:28Z</time>
      </trkpt>
      <trkpt lat="44.98596" lon="5.37514">
        <ele>1317.62</ele>
        <time>2022-05-17T09:04:44Z</time>
      </trkpt>
      <trkpt lat="44.9859" lon="5.3752">
        <ele>1320.51</ele>
        <time>2022-05-17T09:05:00Z</time>
      </trkpt>
      <trkpt lat="44.9859" lon="5.37523">
        <ele>1321.95</ele>
        <time>2022-05-17T09:05:17Z</time>
      </trkpt>
      <trkpt lat="44.98595" lon="5.37522">
        <ele>1324.35</ele>
        <time>2022-05-17T09:05:35Z</time>
      </trkpt>
      <trkpt lat="44.98601" lon="5.37523">
        <ele>1325.8</ele>
        <time>2022-05-17T09:05:50Z</time>
      </trkpt>
      <trkpt lat="44.98611" lon="5.37525">
        <ele>1325.8</ele>
        <time>2022-05-17T09:06:03Z</time>
      </trkpt>
      <trkpt lat="44.98619" lon="5.37532">
        <ele>1327.24</ele>
        <time>2022-05-17T09:06:18Z</time>
      </trkpt>
      <trkpt lat="44.98621" lon="5.37533">
        <ele>1328.2</ele>
        <time>2022-05-17T09:06:21Z</time>
      </trkpt>
      <trkpt lat="44.9863" lon="5.37541">
        <ele>1329.16</ele>
        <time>2022-05-17T09:06:35Z</time>
      </trkpt>
      <trkpt lat="44.98639" lon="5.37542">
        <ele>1332.52</ele>
        <time>2022-05-17T09:06:53Z</time>
      </trkpt>
      <trkpt lat="44.98647" lon="5.37548">
        <ele>1333.97</ele>
        <time>2022-05-17T09:07:06Z</time>
      </trkpt>
      <trkpt lat="44.98654" lon="5.37556">
        <ele>1336.85</ele>
        <time>2022-05-17T09:07:23Z</time>
      </trkpt>
      <trkpt lat="44.98662" lon="5.37559">
        <ele>1338.29</ele>
        <time>2022-05-17T09:07:38Z</time>
      </trkpt>
      <trkpt lat="44.98663" lon="5.37563">
        <ele>1339.73</ele>
        <time>2022-05-17T09:10:07Z</time>
      </trkpt>
      <trkpt lat="44.98667" lon="5.37569">
        <ele>1343.1</ele>
        <time>2022-05-17T09:10:27Z</time>
      </trkpt>
      <trkpt lat="44.98671" lon="5.37575">
        <ele>1345.5</ele>
        <time>2022-05-17T09:10:47Z</time>
      </trkpt>
      <trkpt lat="44.98673" lon="5.3758">
        <ele>1348.39</ele>
        <time>2022-05-17T09:11:05Z</time>
      </trkpt>
      <trkpt lat="44.98675" lon="5.37583">
        <ele>1351.27</ele>
        <time>2022-05-17T09:11:19Z</time>
      </trkpt>
      <trkpt lat="44.98679" lon="5.37585">
        <ele>1353.67</ele>
        <time>2022-05-17T09:11:36Z</time>
      </trkpt>
      <trkpt lat="44.98682" lon="5.37587">
        <ele>1356.08</ele>
        <time>2022-05-17T09:11:52Z</time>
      </trkpt>
      <trkpt lat="44.98687" lon="5.37591">
        <ele>1359.44</ele>
        <time>2022-05-17T09:12:06Z</time>
      </trkpt>
      <trkpt lat="44.98687" lon="5.37599">
        <ele>1362.81</ele>
        <time>2022-05-17T09:12:25Z</time>
      </trkpt>
      <trkpt lat="44.98685" lon="5.37601">
        <ele>1364.25</ele>
        <time>2022-05-17T09:12:44Z</time>
      </trkpt>
      <trkpt lat="44.98687" lon="5.37604">
        <ele>1367.13</ele>
        <time>2022-05-17T09:12:59Z</time>
      </trkpt>
      <trkpt lat="44.98695" lon="5.37605">
        <ele>1368.09</ele>
        <time>2022-05-17T09:13:14Z</time>
      </trkpt>
      <trkpt lat="44.98703" lon="5.37605">
        <ele>1370.02</ele>
        <time>2022-05-17T09:13:28Z</time>
      </trkpt>
      <trkpt lat="44.98711" lon="5.37607">
        <ele>1371.94</ele>
        <time>2022-05-17T09:13:44Z</time>
      </trkpt>
      <trkpt lat="44.98714" lon="5.37612">
        <ele>1374.34</ele>
        <time>2022-05-17T09:14:01Z</time>
      </trkpt>
      <trkpt lat="44.98716" lon="5.37617">
        <ele>1376.75</ele>
        <time>2022-05-17T09:14:17Z</time>
      </trkpt>
      <trkpt lat="44.98715" lon="5.3762">
        <ele>1379.63</ele>
        <time>2022-05-17T09:14:33Z</time>
      </trkpt>
      <trkpt lat="44.98712" lon="5.3762">
        <ele>1382.51</ele>
        <time>2022-05-17T09:14:48Z</time>
      </trkpt>
      <trkpt lat="44.98709" lon="5.37623">
        <ele>1384.92</ele>
        <time>2022-05-17T09:15:05Z</time>
      </trkpt>
      <trkpt lat="44.98705" lon="5.37626">
        <ele>1386.36</ele>
        <time>2022-05-17T09:15:20Z</time>
      </trkpt>
      <trkpt lat="44.987" lon="5.37626">
        <ele>1386.84</ele>
        <time>2022-05-17T09:15:38Z</time>
      </trkpt>
      <trkpt lat="44.98699" lon="5.37632">
        <ele>1389.72</ele>
        <time>2022-05-17T09:15:53Z</time>
      </trkpt>
      <trkpt lat="44.98703" lon="5.37635">
        <ele>1392.13</ele>
        <time>2022-05-17T09:16:08Z</time>
      </trkpt>
      <trkpt lat="44.98706" lon="5.37634">
        <ele>1394.05</ele>
        <time>2022-05-17T09:16:21Z</time>
      </trkpt>
      <trkpt lat="44.98711" lon="5.37634">
        <ele>1395.49</ele>
        <time>2022-05-17T09:16:35Z</time>
      </trkpt>
      <trkpt lat="44.98714" lon="5.37634">
        <ele>1395.97</ele>
        <time>2022-05-17T09:16:47Z</time>
      </trkpt>
      <trkpt lat="44.98715" lon="5.37636">
        <ele>1395.97</ele>
        <time>2022-05-17T09:17:13Z</time>
      </trkpt>
      <trkpt lat="44.98715" lon="5.37636">
        <ele>1396.45</ele>
        <time>2022-05-17T09:17:33Z</time>
      </trkpt>
      <trkpt lat="44.98717" lon="5.37639">
        <ele>1396.45</ele>
        <time>2022-05-17T09:17:48Z</time>
      </trkpt>
      <trkpt lat="44.9872" lon="5.3764">
        <ele>1396.45</ele>
        <time>2022-05-17T09:18:00Z</time>
      </trkpt>
      <trkpt lat="44.98722" lon="5.37639">
        <ele>1396.45</ele>
        <time>2022-05-17T09:18:18Z</time>
      </trkpt>
      <trkpt lat="44.98727" lon="5.37642">
        <ele>1395.01</ele>
        <time>2022-05-17T09:18:33Z</time>
      </trkpt>
      <trkpt lat="44.98729" lon="5.37642">
        <ele>1396.45</ele>
        <time>2022-05-17T09:18:37Z</time>
      </trkpt>
      <trkpt lat="44.98738" lon="5.37644">
        <ele>1397.41</ele>
        <time>2022-05-17T09:18:52Z</time>
      </trkpt>
      <trkpt lat="44.98744" lon="5.37644">
        <ele>1398.37</ele>
        <time>2022-05-17T09:19:06Z</time>
      </trkpt>
      <trkpt lat="44.98746" lon="5.37652">
        <ele>1398.37</ele>
        <time>2022-05-17T09:19:22Z</time>
      </trkpt>
      <trkpt lat="44.98745" lon="5.37646">
        <ele>1407.03</ele>
        <time>2022-05-17T10:09:09Z</time>
      </trkpt>
      <trkpt lat="44.98745" lon="5.37644">
        <ele>1407.03</ele>
        <time>2022-05-17T10:09:25Z</time>
      </trkpt>
      <trkpt lat="44.98743" lon="5.37644">
        <ele>1407.03</ele>
        <time>2022-05-17T10:09:45Z</time>
      </trkpt>
      <trkpt lat="44.98736" lon="5.37642">
        <ele>1407.03</ele>
        <time>2022-05-17T10:10:00Z</time>
      </trkpt>
      <trkpt lat="44.98735" lon="5.37642">
        <ele>1405.58</ele>
        <time>2022-05-17T10:10:03Z</time>
      </trkpt>
      <trkpt lat="44.98731" lon="5.37642">
        <ele>1405.1</ele>
        <time>2022-05-17T10:10:15Z</time>
      </trkpt>
      <trkpt lat="44.98727" lon="5.37641">
        <ele>1404.14</ele>
        <time>2022-05-17T10:10:31Z</time>
      </trkpt>
      <trkpt lat="44.98722" lon="5.3764">
        <ele>1405.1</ele>
        <time>2022-05-17T10:10:44Z</time>
      </trkpt>
      <trkpt lat="44.98719" lon="5.37639">
        <ele>1405.1</ele>
        <time>2022-05-17T10:10:56Z</time>
      </trkpt>
      <trkpt lat="44.98716" lon="5.37638">
        <ele>1405.1</ele>
        <time>2022-05-17T10:11:10Z</time>
      </trkpt>
      <trkpt lat="44.98714" lon="5.37637">
        <ele>1404.14</ele>
        <time>2022-05-17T10:11:33Z</time>
      </trkpt>
      <trkpt lat="44.98711" lon="5.37637">
        <ele>1403.18</ele>
        <time>2022-05-17T10:11:49Z</time>
      </trkpt>
      <trkpt lat="44.98708" lon="5.37636">
        <ele>1403.18</ele>
        <time>2022-05-17T10:12:05Z</time>
      </trkpt>
      <trkpt lat="44.98705" lon="5.37638">
        <ele>1401.74</ele>
        <time>2022-05-17T10:12:24Z</time>
      </trkpt>
      <trkpt lat="44.98702" lon="5.37635">
        <ele>1399.82</ele>
        <time>2022-05-17T10:12:40Z</time>
      </trkpt>
      <trkpt lat="44.987" lon="5.37633">
        <ele>1397.89</ele>
        <time>2022-05-17T10:12:57Z</time>
      </trkpt>
      <trkpt lat="44.98697" lon="5.37629">
        <ele>1397.41</ele>
        <time>2022-05-17T10:13:18Z</time>
      </trkpt>
      <trkpt lat="44.987" lon="5.37627">
        <ele>1396.93</ele>
        <time>2022-05-17T10:13:31Z</time>
      </trkpt>
      <trkpt lat="44.98703" lon="5.37627">
        <ele>1395.49</ele>
        <time>2022-05-17T10:13:43Z</time>
      </trkpt>
      <trkpt lat="44.98707" lon="5.37626">
        <ele>1395.49</ele>
        <time>2022-05-17T10:13:56Z</time>
      </trkpt>
      <trkpt lat="44.98708" lon="5.37626">
        <ele>1394.53</ele>
        <time>2022-05-17T10:14:12Z</time>
      </trkpt>
      <trkpt lat="44.98709" lon="5.37623">
        <ele>1392.61</ele>
        <time>2022-05-17T10:14:29Z</time>
      </trkpt>
      <trkpt lat="44.98712" lon="5.37623">
        <ele>1391.65</ele>
        <time>2022-05-17T10:14:46Z</time>
      </trkpt>
      <trkpt lat="44.98713" lon="5.37623">
        <ele>1389.72</ele>
        <time>2022-05-17T10:15:03Z</time>
      </trkpt>
      <trkpt lat="44.98714" lon="5.37621">
        <ele>1387.8</ele>
        <time>2022-05-17T10:15:17Z</time>
      </trkpt>
      <trkpt lat="44.98713" lon="5.37619">
        <ele>1386.36</ele>
        <time>2022-05-17T10:15:30Z</time>
      </trkpt>
      <trkpt lat="44.98713" lon="5.37617">
        <ele>1384.44</ele>
        <time>2022-05-17T10:15:50Z</time>
      </trkpt>
      <trkpt lat="44.98712" lon="5.37616">
        <ele>1383.47</ele>
        <time>2022-05-17T10:16:06Z</time>
      </trkpt>
      <trkpt lat="44.9871" lon="5.37614">
        <ele>1382.51</ele>
        <time>2022-05-17T10:16:28Z</time>
      </trkpt>
      <trkpt lat="44.98711" lon="5.37609">
        <ele>1382.51</ele>
        <time>2022-05-17T10:16:50Z</time>
      </trkpt>
      <trkpt lat="44.98707" lon="5.37606">
        <ele>1381.07</ele>
        <time>2022-05-17T10:17:08Z</time>
      </trkpt>
      <trkpt lat="44.98701" lon="5.37607">
        <ele>1379.15</ele>
        <time>2022-05-17T10:17:23Z</time>
      </trkpt>
      <trkpt lat="44.98692" lon="5.37609">
        <ele>1378.67</ele>
        <time>2022-05-17T10:17:39Z</time>
      </trkpt>
      <trkpt lat="44.98685" lon="5.37607">
        <ele>1377.71</ele>
        <time>2022-05-17T10:17:53Z</time>
      </trkpt>
      <trkpt lat="44.98683" lon="5.37605">
        <ele>1376.75</ele>
        <time>2022-05-17T10:18:08Z</time>
      </trkpt>
      <trkpt lat="44.98682" lon="5.37602">
        <ele>1374.34</ele>
        <time>2022-05-17T10:18:26Z</time>
      </trkpt>
      <trkpt lat="44.98683" lon="5.37599">
        <ele>1371.94</ele>
        <time>2022-05-17T10:18:41Z</time>
      </trkpt>
      <trkpt lat="44.98683" lon="5.37592">
        <ele>1369.05</ele>
        <time>2022-05-17T10:19:00Z</time>
      </trkpt>
      <trkpt lat="44.9868" lon="5.3759">
        <ele>1366.65</ele>
        <time>2022-05-17T10:19:16Z</time>
      </trkpt>
      <trkpt lat="44.98675" lon="5.37584">
        <ele>1364.25</ele>
        <time>2022-05-17T10:19:32Z</time>
      </trkpt>
      <trkpt lat="44.9867" lon="5.3758">
        <ele>1361.36</ele>
        <time>2022-05-17T10:19:45Z</time>
      </trkpt>
      <trkpt lat="44.98667" lon="5.37575">
        <ele>1359.44</ele>
        <time>2022-05-17T10:19:59Z</time>
      </trkpt>
      <trkpt lat="44.98669" lon="5.37572">
        <ele>1356.08</ele>
        <time>2022-05-17T10:20:10Z</time>
      </trkpt>
      <trkpt lat="44.98664" lon="5.37565">
        <ele>1353.67</ele>
        <time>2022-05-17T10:20:26Z</time>
      </trkpt>
      <trkpt lat="44.98659" lon="5.37564">
        <ele>1352.71</ele>
        <time>2022-05-17T10:20:41Z</time>
      </trkpt>
      <trkpt lat="44.98657" lon="5.3756">
        <ele>1350.79</ele>
        <time>2022-05-17T10:20:56Z</time>
      </trkpt>
      <trkpt lat="44.98659" lon="5.37558">
        <ele>1349.35</ele>
        <time>2022-05-17T10:21:08Z</time>
      </trkpt>
      <trkpt lat="44.98663" lon="5.37555">
        <ele>1348.87</ele>
        <time>2022-05-17T10:21:21Z</time>
      </trkpt>
      <trkpt lat="44.98664" lon="5.37554">
        <ele>1348.39</ele>
        <time>2022-05-17T10:21:43Z</time>
      </trkpt>
      <trkpt lat="44.98666" lon="5.37555">
        <ele>1347.91</ele>
        <time>2022-05-17T10:23:07Z</time>
      </trkpt>
      <trkpt lat="44.98671" lon="5.37556">
        <ele>1347.43</ele>
        <time>2022-05-17T10:23:21Z</time>
      </trkpt>
      <trkpt lat="44.98678" lon="5.37557">
        <ele>1345.5</ele>
        <time>2022-05-17T10:23:35Z</time>
      </trkpt>
      <trkpt lat="44.98683" lon="5.37561">
        <ele>1346.94</ele>
        <time>2022-05-17T10:23:42Z</time>
      </trkpt>
      <trkpt lat="44.98687" lon="5.37554">
        <ele>1347.91</ele>
        <time>2022-05-17T10:24:01Z</time>
      </trkpt>
      <trkpt lat="44.98688" lon="5.37552">
        <ele>1347.91</ele>
        <time>2022-05-17T10:24:59Z</time>
      </trkpt>
      <trkpt lat="44.98696" lon="5.37562">
        <ele>1349.35</ele>
        <time>2022-05-17T10:25:12Z</time>
      </trkpt>
      <trkpt lat="44.98705" lon="5.37571">
        <ele>1352.23</ele>
        <time>2022-05-17T10:25:29Z</time>
      </trkpt>
      <trkpt lat="44.98714" lon="5.37574">
        <ele>1354.15</ele>
        <time>2022-05-17T10:25:46Z</time>
      </trkpt>
      <trkpt lat="44.98722" lon="5.37579">
        <ele>1355.6</ele>
        <time>2022-05-17T10:26:00Z</time>
      </trkpt>
      <trkpt lat="44.98733" lon="5.37581">
        <ele>1355.6</ele>
        <time>2022-05-17T10:26:18Z</time>
      </trkpt>
      <trkpt lat="44.98741" lon="5.37579">
        <ele>1354.15</ele>
        <time>2022-05-17T10:26:29Z</time>
      </trkpt>
      <trkpt lat="44.98746" lon="5.37578">
        <ele>1352.71</ele>
        <time>2022-05-17T10:26:37Z</time>
      </trkpt>
      <trkpt lat="44.98755" lon="5.37578">
        <ele>1351.75</ele>
        <time>2022-05-17T10:26:50Z</time>
      </trkpt>
      <trkpt lat="44.98761" lon="5.3758">
        <ele>1353.19</ele>
        <time>2022-05-17T10:27:00Z</time>
      </trkpt>
      <trkpt lat="44.98776" lon="5.37592">
        <ele>1355.6</ele>
        <time>2022-05-17T10:27:20Z</time>
      </trkpt>
      <trkpt lat="44.98787" lon="5.37593">
        <ele>1356.08</ele>
        <time>2022-05-17T10:27:35Z</time>
      </trkpt>
      <trkpt lat="44.98799" lon="5.3759">
        <ele>1355.6</ele>
        <time>2022-05-17T10:27:50Z</time>
      </trkpt>
      <trkpt lat="44.98801" lon="5.37589">
        <ele>1354.63</ele>
        <time>2022-05-17T10:27:52Z</time>
      </trkpt>
      <trkpt lat="44.98811" lon="5.37592">
        <ele>1355.6</ele>
        <time>2022-05-17T10:28:06Z</time>
      </trkpt>
      <trkpt lat="44.98822" lon="5.37594">
        <ele>1358</ele>
        <time>2022-05-17T10:28:22Z</time>
      </trkpt>
      <trkpt lat="44.98829" lon="5.37597">
        <ele>1359.44</ele>
        <time>2022-05-17T10:28:38Z</time>
      </trkpt>
      <trkpt lat="44.98835" lon="5.37599">
        <ele>1362.81</ele>
        <time>2022-05-17T10:28:54Z</time>
      </trkpt>
      <trkpt lat="44.98843" lon="5.37601">
        <ele>1365.21</ele>
        <time>2022-05-17T10:29:08Z</time>
      </trkpt>
      <trkpt lat="44.98851" lon="5.37607">
        <ele>1365.69</ele>
        <time>2022-05-17T10:29:21Z</time>
      </trkpt>
      <trkpt lat="44.98863" lon="5.37615">
        <ele>1368.09</ele>
        <time>2022-05-17T10:29:40Z</time>
      </trkpt>
      <trkpt lat="44.9887" lon="5.37621">
        <ele>1370.98</ele>
        <time>2022-05-17T10:29:55Z</time>
      </trkpt>
      <trkpt lat="44.98876" lon="5.3763">
        <ele>1372.9</ele>
        <time>2022-05-17T10:30:09Z</time>
      </trkpt>
      <trkpt lat="44.98885" lon="5.3764">
        <ele>1375.3</ele>
        <time>2022-05-17T10:30:23Z</time>
      </trkpt>
      <trkpt lat="44.98899" lon="5.37638">
        <ele>1376.26</ele>
        <time>2022-05-17T10:35:05Z</time>
      </trkpt>
      <trkpt lat="44.989" lon="5.37636">
        <ele>1376.26</ele>
        <time>2022-05-17T10:35:28Z</time>
      </trkpt>
      <trkpt lat="44.98906" lon="5.37634">
        <ele>1376.26</ele>
        <time>2022-05-17T10:35:45Z</time>
      </trkpt>
      <trkpt lat="44.98913" lon="5.37633">
        <ele>1377.23</ele>
        <time>2022-05-17T10:35:58Z</time>
      </trkpt>
      <trkpt lat="44.9892" lon="5.3763">
        <ele>1378.19</ele>
        <time>2022-05-17T10:36:13Z</time>
      </trkpt>
      <trkpt lat="44.98924" lon="5.37631">
        <ele>1379.15</ele>
        <time>2022-05-17T10:36:28Z</time>
      </trkpt>
      <trkpt lat="44.98926" lon="5.3763">
        <ele>1379.15</ele>
        <time>2022-05-17T10:36:31Z</time>
      </trkpt>
      <trkpt lat="44.98937" lon="5.37631">
        <ele>1381.07</ele>
        <time>2022-05-17T10:36:46Z</time>
      </trkpt>
      <trkpt lat="44.9895" lon="5.37634">
        <ele>1382.03</ele>
        <time>2022-05-17T10:37:01Z</time>
      </trkpt>
      <trkpt lat="44.98967" lon="5.37635">
        <ele>1382.99</ele>
        <time>2022-05-17T10:37:20Z</time>
      </trkpt>
      <trkpt lat="44.98981" lon="5.37643">
        <ele>1382.99</ele>
        <time>2022-05-17T10:37:37Z</time>
      </trkpt>
      <trkpt lat="44.9899" lon="5.37646">
        <ele>1381.55</ele>
        <time>2022-05-17T10:37:47Z</time>
      </trkpt>
      <trkpt lat="44.99003" lon="5.37644">
        <ele>1378.67</ele>
        <time>2022-05-17T10:38:03Z</time>
      </trkpt>
      <trkpt lat="44.99012" lon="5.37643">
        <ele>1375.78</ele>
        <time>2022-05-17T10:38:17Z</time>
      </trkpt>
      <trkpt lat="44.99021" lon="5.37641">
        <ele>1373.86</ele>
        <time>2022-05-17T10:38:33Z</time>
      </trkpt>
      <trkpt lat="44.99032" lon="5.37639">
        <ele>1371.46</ele>
        <time>2022-05-17T10:38:48Z</time>
      </trkpt>
      <trkpt lat="44.9904" lon="5.37636">
        <ele>1368.09</ele>
        <time>2022-05-17T10:39:01Z</time>
      </trkpt>
      <trkpt lat="44.99047" lon="5.37628">
        <ele>1364.73</ele>
        <time>2022-05-17T10:39:19Z</time>
      </trkpt>
      <trkpt lat="44.9905" lon="5.37622">
        <ele>1362.33</ele>
        <time>2022-05-17T10:39:34Z</time>
      </trkpt>
      <trkpt lat="44.99055" lon="5.37617">
        <ele>1359.44</ele>
        <time>2022-05-17T10:39:47Z</time>
      </trkpt>
      <trkpt lat="44.99062" lon="5.37615">
        <ele>1356.08</ele>
        <time>2022-05-17T10:40:00Z</time>
      </trkpt>
      <trkpt lat="44.99075" lon="5.37621">
        <ele>1355.12</ele>
        <time>2022-05-17T10:40:13Z</time>
      </trkpt>
      <trkpt lat="44.99089" lon="5.37633">
        <ele>1353.67</ele>
        <time>2022-05-17T10:40:30Z</time>
      </trkpt>
      <trkpt lat="44.99101" lon="5.3764">
        <ele>1353.67</ele>
        <time>2022-05-17T10:40:45Z</time>
      </trkpt>
      <trkpt lat="44.99108" lon="5.37651">
        <ele>1352.71</ele>
        <time>2022-05-17T10:40:58Z</time>
      </trkpt>
      <trkpt lat="44.99116" lon="5.37662">
        <ele>1355.12</ele>
        <time>2022-05-17T10:41:11Z</time>
      </trkpt>
      <trkpt lat="44.99126" lon="5.37673">
        <ele>1355.12</ele>
        <time>2022-05-17T10:41:25Z</time>
      </trkpt>
      <trkpt lat="44.99135" lon="5.37685">
        <ele>1353.67</ele>
        <time>2022-05-17T10:41:39Z</time>
      </trkpt>
      <trkpt lat="44.99145" lon="5.37697">
        <ele>1353.67</ele>
        <time>2022-05-17T10:41:52Z</time>
      </trkpt>
      <trkpt lat="44.99159" lon="5.37708">
        <ele>1352.71</ele>
        <time>2022-05-17T10:42:07Z</time>
      </trkpt>
      <trkpt lat="44.99175" lon="5.37709">
        <ele>1352.23</ele>
        <time>2022-05-17T10:42:21Z</time>
      </trkpt>
      <trkpt lat="44.99185" lon="5.37707">
        <ele>1353.67</ele>
        <time>2022-05-17T10:42:31Z</time>
      </trkpt>
      <trkpt lat="44.99199" lon="5.37701">
        <ele>1354.15</ele>
        <time>2022-05-17T10:42:46Z</time>
      </trkpt>
      <trkpt lat="44.99212" lon="5.37693">
        <ele>1354.63</ele>
        <time>2022-05-17T10:43:00Z</time>
      </trkpt>
      <trkpt lat="44.99227" lon="5.37689">
        <ele>1354.63</ele>
        <time>2022-05-17T10:43:14Z</time>
      </trkpt>
      <trkpt lat="44.99242" lon="5.37689">
        <ele>1355.12</ele>
        <time>2022-05-17T10:43:28Z</time>
      </trkpt>
      <trkpt lat="44.99257" lon="5.37688">
        <ele>1355.6</ele>
        <time>2022-05-17T10:43:43Z</time>
      </trkpt>
      <trkpt lat="44.99272" lon="5.37688">
        <ele>1355.6</ele>
        <time>2022-05-17T10:43:57Z</time>
      </trkpt>
      <trkpt lat="44.99285" lon="5.37694">
        <ele>1355.6</ele>
        <time>2022-05-17T10:44:12Z</time>
      </trkpt>
      <trkpt lat="44.99296" lon="5.37704">
        <ele>1357.04</ele>
        <time>2022-05-17T10:44:26Z</time>
      </trkpt>
      <trkpt lat="44.99311" lon="5.37711">
        <ele>1357.52</ele>
        <time>2022-05-17T10:44:40Z</time>
      </trkpt>
      <trkpt lat="44.99323" lon="5.37716">
        <ele>1358.48</ele>
        <time>2022-05-17T10:44:53Z</time>
      </trkpt>
      <trkpt lat="44.99328" lon="5.37718">
        <ele>1358.48</ele>
        <time>2022-05-17T10:44:58Z</time>
      </trkpt>
      <trkpt lat="44.99342" lon="5.37727">
        <ele>1359.92</ele>
        <time>2022-05-17T10:45:14Z</time>
      </trkpt>
      <trkpt lat="44.99359" lon="5.37734">
        <ele>1360.4</ele>
        <time>2022-05-17T10:45:32Z</time>
      </trkpt>
      <trkpt lat="44.9936" lon="5.37735">
        <ele>1360.4</ele>
        <time>2022-05-17T10:45:33Z</time>
      </trkpt>
      <trkpt lat="44.99377" lon="5.37737">
        <ele>1360.4</ele>
        <time>2022-05-17T10:45:47Z</time>
      </trkpt>
      <trkpt lat="44.99389" lon="5.3774">
        <ele>1360.88</ele>
        <time>2022-05-17T10:45:59Z</time>
      </trkpt>
      <trkpt lat="44.99403" lon="5.37744">
        <ele>1361.36</ele>
        <time>2022-05-17T10:46:12Z</time>
      </trkpt>
      <trkpt lat="44.99417" lon="5.3775">
        <ele>1361.36</ele>
        <time>2022-05-17T10:46:25Z</time>
      </trkpt>
      <trkpt lat="44.99431" lon="5.37757">
        <ele>1361.84</ele>
        <time>2022-05-17T10:46:38Z</time>
      </trkpt>
      <trkpt lat="44.99444" lon="5.37765">
        <ele>1362.33</ele>
        <time>2022-05-17T10:46:53Z</time>
      </trkpt>
      <trkpt lat="44.99459" lon="5.37773">
        <ele>1362.33</ele>
        <time>2022-05-17T10:47:07Z</time>
      </trkpt>
      <trkpt lat="44.99474" lon="5.37784">
        <ele>1363.77</ele>
        <time>2022-05-17T10:47:23Z</time>
      </trkpt>
      <trkpt lat="44.9949" lon="5.37789">
        <ele>1363.77</ele>
        <time>2022-05-17T10:47:38Z</time>
      </trkpt>
      <trkpt lat="44.99507" lon="5.37796">
        <ele>1363.77</ele>
        <time>2022-05-17T10:47:55Z</time>
      </trkpt>
      <trkpt lat="44.99519" lon="5.37801">
        <ele>1362.33</ele>
        <time>2022-05-17T10:48:09Z</time>
      </trkpt>
      <trkpt lat="44.99534" lon="5.37803">
        <ele>1360.4</ele>
        <time>2022-05-17T10:48:24Z</time>
      </trkpt>
      <trkpt lat="44.99552" lon="5.37805">
        <ele>1359.44</ele>
        <time>2022-05-17T10:48:39Z</time>
      </trkpt>
      <trkpt lat="44.99568" lon="5.37807">
        <ele>1358.96</ele>
        <time>2022-05-17T10:48:56Z</time>
      </trkpt>
      <trkpt lat="44.99577" lon="5.37806">
        <ele>1358</ele>
        <time>2022-05-17T10:49:04Z</time>
      </trkpt>
      <trkpt lat="44.99597" lon="5.37805">
        <ele>1357.04</ele>
        <time>2022-05-17T10:49:20Z</time>
      </trkpt>
      <trkpt lat="44.99614" lon="5.37803">
        <ele>1355.6</ele>
        <time>2022-05-17T10:49:34Z</time>
      </trkpt>
      <trkpt lat="44.99621" lon="5.37802">
        <ele>1355.12</ele>
        <time>2022-05-17T10:49:40Z</time>
      </trkpt>
      <trkpt lat="44.9963" lon="5.37799">
        <ele>1353.67</ele>
        <time>2022-05-17T10:49:49Z</time>
      </trkpt>
      <trkpt lat="44.99636" lon="5.37801">
        <ele>1353.67</ele>
        <time>2022-05-17T10:49:54Z</time>
      </trkpt>
      <trkpt lat="44.99651" lon="5.37799">
        <ele>1352.23</ele>
        <time>2022-05-17T10:50:08Z</time>
      </trkpt>
      <trkpt lat="44.99668" lon="5.37796">
        <ele>1350.31</ele>
        <time>2022-05-17T10:50:24Z</time>
      </trkpt>
      <trkpt lat="44.99682" lon="5.37797">
        <ele>1348.87</ele>
        <time>2022-05-17T10:50:37Z</time>
      </trkpt>
      <trkpt lat="44.99684" lon="5.37797">
        <ele>1349.35</ele>
        <time>2022-05-17T10:50:52Z</time>
      </trkpt>
      <trkpt lat="44.99694" lon="5.37799">
        <ele>1348.87</ele>
        <time>2022-05-17T10:51:07Z</time>
      </trkpt>
      <trkpt lat="44.99707" lon="5.37807">
        <ele>1348.87</ele>
        <time>2022-05-17T10:51:21Z</time>
      </trkpt>
      <trkpt lat="44.99717" lon="5.37812">
        <ele>1348.39</ele>
        <time>2022-05-17T10:51:33Z</time>
      </trkpt>
      <trkpt lat="44.99725" lon="5.3781">
        <ele>1349.83</ele>
        <time>2022-05-17T10:56:36Z</time>
      </trkpt>
      <trkpt lat="44.99731" lon="5.37809">
        <ele>1349.83</ele>
        <time>2022-05-17T10:56:57Z</time>
      </trkpt>
      <trkpt lat="44.99741" lon="5.37804">
        <ele>1347.91</ele>
        <time>2022-05-17T10:57:13Z</time>
      </trkpt>
      <trkpt lat="44.99742" lon="5.37804">
        <ele>1347.43</ele>
        <time>2022-05-17T10:57:14Z</time>
      </trkpt>
      <trkpt lat="44.99749" lon="5.37803">
        <ele>1346.94</ele>
        <time>2022-05-17T10:57:22Z</time>
      </trkpt>
      <trkpt lat="44.99761" lon="5.37796">
        <ele>1346.46</ele>
        <time>2022-05-17T10:57:35Z</time>
      </trkpt>
      <trkpt lat="44.99773" lon="5.37783">
        <ele>1343.58</ele>
        <time>2022-05-17T10:57:51Z</time>
      </trkpt>
      <trkpt lat="44.99779" lon="5.37775">
        <ele>1340.22</ele>
        <time>2022-05-17T10:58:06Z</time>
      </trkpt>
      <trkpt lat="44.99789" lon="5.37765">
        <ele>1337.81</ele>
        <time>2022-05-17T10:58:22Z</time>
      </trkpt>
      <trkpt lat="44.99793" lon="5.37754">
        <ele>1334.45</ele>
        <time>2022-05-17T10:58:33Z</time>
      </trkpt>
      <trkpt lat="44.99802" lon="5.37745">
        <ele>1331.56</ele>
        <time>2022-05-17T10:58:45Z</time>
      </trkpt>
      <trkpt lat="44.9981" lon="5.37737">
        <ele>1329.16</ele>
        <time>2022-05-17T10:58:58Z</time>
      </trkpt>
      <trkpt lat="44.99816" lon="5.37724">
        <ele>1325.8</ele>
        <time>2022-05-17T10:59:10Z</time>
      </trkpt>
      <trkpt lat="44.99824" lon="5.37714">
        <ele>1322.91</ele>
        <time>2022-05-17T10:59:23Z</time>
      </trkpt>
      <trkpt lat="44.99831" lon="5.37702">
        <ele>1319.55</ele>
        <time>2022-05-17T10:59:37Z</time>
      </trkpt>
      <trkpt lat="44.99837" lon="5.3769">
        <ele>1316.66</ele>
        <time>2022-05-17T10:59:49Z</time>
      </trkpt>
      <trkpt lat="44.99842" lon="5.37677">
        <ele>1313.3</ele>
        <time>2022-05-17T11:00:02Z</time>
      </trkpt>
      <trkpt lat="44.99847" lon="5.37661">
        <ele>1310.41</ele>
        <time>2022-05-17T11:00:18Z</time>
      </trkpt>
      <trkpt lat="44.99854" lon="5.37647">
        <ele>1307.05</ele>
        <time>2022-05-17T11:00:32Z</time>
      </trkpt>
      <trkpt lat="44.99859" lon="5.37631">
        <ele>1304.65</ele>
        <time>2022-05-17T11:00:47Z</time>
      </trkpt>
      <trkpt lat="44.99864" lon="5.37616">
        <ele>1301.76</ele>
        <time>2022-05-17T11:00:59Z</time>
      </trkpt>
      <trkpt lat="44.99871" lon="5.37602">
        <ele>1298.4</ele>
        <time>2022-05-17T11:01:13Z</time>
      </trkpt>
      <trkpt lat="44.99879" lon="5.37586">
        <ele>1295.51</ele>
        <time>2022-05-17T11:01:27Z</time>
      </trkpt>
      <trkpt lat="44.99885" lon="5.37569">
        <ele>1292.63</ele>
        <time>2022-05-17T11:01:41Z</time>
      </trkpt>
      <trkpt lat="44.99892" lon="5.37552">
        <ele>1290.71</ele>
        <time>2022-05-17T11:01:57Z</time>
      </trkpt>
      <trkpt lat="44.99894" lon="5.37549">
        <ele>1290.71</ele>
        <time>2022-05-17T11:02:21Z</time>
      </trkpt>
      <trkpt lat="44.99897" lon="5.37532">
        <ele>1288.3</ele>
        <time>2022-05-17T11:04:16Z</time>
      </trkpt>
      <trkpt lat="44.99905" lon="5.37518">
        <ele>1285.42</ele>
        <time>2022-05-17T11:04:30Z</time>
      </trkpt>
      <trkpt lat="44.99911" lon="5.37505">
        <ele>1282.06</ele>
        <time>2022-05-17T11:04:48Z</time>
      </trkpt>
      <trkpt lat="44.99917" lon="5.37498">
        <ele>1279.17</ele>
        <time>2022-05-17T11:05:00Z</time>
      </trkpt>
      <trkpt lat="44.99927" lon="5.37493">
        <ele>1277.73</ele>
        <time>2022-05-17T11:05:14Z</time>
      </trkpt>
      <trkpt lat="44.99933" lon="5.37497">
        <ele>1277.73</ele>
        <time>2022-05-17T11:05:22Z</time>
      </trkpt>
      <trkpt lat="44.99946" lon="5.37506">
        <ele>1276.77</ele>
        <time>2022-05-17T11:05:35Z</time>
      </trkpt>
      <trkpt lat="44.99964" lon="5.3752">
        <ele>1275.81</ele>
        <time>2022-05-17T11:05:52Z</time>
      </trkpt>
      <trkpt lat="44.99968" lon="5.37524">
        <ele>1275.33</ele>
        <time>2022-05-17T11:05:56Z</time>
      </trkpt>
      <trkpt lat="44.99973" lon="5.37528">
        <ele>1274.85</ele>
        <time>2022-05-17T11:06:01Z</time>
      </trkpt>
      <trkpt lat="44.99984" lon="5.3755">
        <ele>1273.88</ele>
        <time>2022-05-17T11:06:19Z</time>
      </trkpt>
      <trkpt lat="44.99985" lon="5.37561">
        <ele>1273.88</ele>
        <time>2022-05-17T11:06:30Z</time>
      </trkpt>
      <trkpt lat="44.99985" lon="5.37568">
        <ele>1273.4</ele>
        <time>2022-05-17T11:06:36Z</time>
      </trkpt>
      <trkpt lat="44.99988" lon="5.37596">
        <ele>1271.96</ele>
        <time>2022-05-17T11:06:53Z</time>
      </trkpt>
      <trkpt lat="44.99995" lon="5.37617">
        <ele>1268.6</ele>
        <time>2022-05-17T11:07:08Z</time>
      </trkpt>
      <trkpt lat="45.00001" lon="5.37627">
        <ele>1267.64</ele>
        <time>2022-05-17T11:07:17Z</time>
      </trkpt>
      <trkpt lat="45.00018" lon="5.37637">
        <ele>1266.19</ele>
        <time>2022-05-17T11:07:32Z</time>
      </trkpt>
      <trkpt lat="45.00028" lon="5.37642">
        <ele>1265.71</ele>
        <time>2022-05-17T11:07:46Z</time>
      </trkpt>
      <trkpt lat="45.00044" lon="5.3765">
        <ele>1264.75</ele>
        <time>2022-05-17T11:08:01Z</time>
      </trkpt>
      <trkpt lat="45.00056" lon="5.37653">
        <ele>1263.79</ele>
        <time>2022-05-17T11:08:09Z</time>
      </trkpt>
      <trkpt lat="45.00077" lon="5.37649">
        <ele>1262.83</ele>
        <time>2022-05-17T11:08:25Z</time>
      </trkpt>
      <trkpt lat="45.00096" lon="5.37639">
        <ele>1261.39</ele>
        <time>2022-05-17T11:08:40Z</time>
      </trkpt>
      <trkpt lat="45.00111" lon="5.37629">
        <ele>1260.43</ele>
        <time>2022-05-17T11:08:54Z</time>
      </trkpt>
      <trkpt lat="45.00118" lon="5.37624">
        <ele>1260.43</ele>
        <time>2022-05-17T11:09:00Z</time>
      </trkpt>
      <trkpt lat="45.00124" lon="5.37619">
        <ele>1260.43</ele>
        <time>2022-05-17T11:09:06Z</time>
      </trkpt>
      <trkpt lat="45.00139" lon="5.3761">
        <ele>1259.94</ele>
        <time>2022-05-17T11:09:20Z</time>
      </trkpt>
      <trkpt lat="45.00155" lon="5.37596">
        <ele>1259.46</ele>
        <time>2022-05-17T11:09:35Z</time>
      </trkpt>
      <trkpt lat="45.00168" lon="5.37582">
        <ele>1259.46</ele>
        <time>2022-05-17T11:09:50Z</time>
      </trkpt>
      <trkpt lat="45.00182" lon="5.3757">
        <ele>1259.46</ele>
        <time>2022-05-17T11:10:05Z</time>
      </trkpt>
      <trkpt lat="45.00188" lon="5.37565">
        <ele>1259.46</ele>
        <time>2022-05-17T11:10:11Z</time>
      </trkpt>
      <trkpt lat="45.0019" lon="5.37556">
        <ele>1258.98</ele>
        <time>2022-05-17T11:10:29Z</time>
      </trkpt>
      <trkpt lat="45.00193" lon="5.37553">
        <ele>1258.98</ele>
        <time>2022-05-17T11:10:42Z</time>
      </trkpt>
      <trkpt lat="45.00204" lon="5.37548">
        <ele>1258.02</ele>
        <time>2022-05-17T11:10:54Z</time>
      </trkpt>
      <trkpt lat="45.00209" lon="5.37547">
        <ele>1258.02</ele>
        <time>2022-05-17T11:10:57Z</time>
      </trkpt>
      <trkpt lat="45.00227" lon="5.37541">
        <ele>1256.1</ele>
        <time>2022-05-17T11:11:12Z</time>
      </trkpt>
      <trkpt lat="45.00241" lon="5.37538">
        <ele>1254.66</ele>
        <time>2022-05-17T11:11:25Z</time>
      </trkpt>
      <trkpt lat="45.00252" lon="5.37537">
        <ele>1253.7</ele>
        <time>2022-05-17T11:11:35Z</time>
      </trkpt>
      <trkpt lat="45.00269" lon="5.37531">
        <ele>1251.29</ele>
        <time>2022-05-17T11:11:49Z</time>
      </trkpt>
      <trkpt lat="45.00287" lon="5.37521">
        <ele>1248.89</ele>
        <time>2022-05-17T11:12:06Z</time>
      </trkpt>
      <trkpt lat="45.00299" lon="5.37514">
        <ele>1247.45</ele>
        <time>2022-05-17T11:12:18Z</time>
      </trkpt>
      <trkpt lat="45.00308" lon="5.3751">
        <ele>1246.49</ele>
        <time>2022-05-17T11:12:25Z</time>
      </trkpt>
      <trkpt lat="45.00322" lon="5.37493">
        <ele>1245.53</ele>
        <time>2022-05-17T11:12:40Z</time>
      </trkpt>
      <trkpt lat="45.00323" lon="5.37493">
        <ele>1245.04</ele>
        <time>2022-05-17T11:12:54Z</time>
      </trkpt>
      <trkpt lat="45.00321" lon="5.37494">
        <ele>1245.04</ele>
        <time>2022-05-17T11:13:06Z</time>
      </trkpt>
      <trkpt lat="45.00317" lon="5.375">
        <ele>1245.04</ele>
        <time>2022-05-17T11:13:13Z</time>
      </trkpt>
      <trkpt lat="45.00309" lon="5.3751">
        <ele>1246.49</ele>
        <time>2022-05-17T11:13:23Z</time>
      </trkpt>
      <trkpt lat="45.00302" lon="5.37518">
        <ele>1246.97</ele>
        <time>2022-05-17T11:13:30Z</time>
      </trkpt>
      <trkpt lat="45.00279" lon="5.37535">
        <ele>1249.37</ele>
        <time>2022-05-17T11:13:50Z</time>
      </trkpt>
      <trkpt lat="45.00279" lon="5.37536">
        <ele>1249.85</ele>
        <time>2022-05-17T11:13:51Z</time>
      </trkpt>
      <trkpt lat="45.00267" lon="5.37541">
        <ele>1251.29</ele>
        <time>2022-05-17T11:14:03Z</time>
      </trkpt>
      <trkpt lat="45.00248" lon="5.37546">
        <ele>1253.7</ele>
        <time>2022-05-17T11:14:24Z</time>
      </trkpt>
      <trkpt lat="45.00239" lon="5.37547">
        <ele>1254.66</ele>
        <time>2022-05-17T11:14:40Z</time>
      </trkpt>
      <trkpt lat="45.0023" lon="5.37553">
        <ele>1255.14</ele>
        <time>2022-05-17T11:15:01Z</time>
      </trkpt>
      <trkpt lat="45.00217" lon="5.37551">
        <ele>1256.58</ele>
        <time>2022-05-17T11:15:18Z</time>
      </trkpt>
      <trkpt lat="45.002" lon="5.37554">
        <ele>1258.02</ele>
        <time>2022-05-17T11:15:34Z</time>
      </trkpt>
      <trkpt lat="45.00194" lon="5.37556">
        <ele>1258.5</ele>
        <time>2022-05-17T11:15:51Z</time>
      </trkpt>
      <trkpt lat="45.00193" lon="5.37551">
        <ele>1257.54</ele>
        <time>2022-05-17T11:16:04Z</time>
      </trkpt>
      <trkpt lat="45.00189" lon="5.37546">
        <ele>1255.62</ele>
        <time>2022-05-17T11:16:21Z</time>
      </trkpt>
      <trkpt lat="45.00186" lon="5.37536">
        <ele>1253.22</ele>
        <time>2022-05-17T11:16:34Z</time>
      </trkpt>
      <trkpt lat="45.00188" lon="5.37529">
        <ele>1251.77</ele>
        <time>2022-05-17T11:16:46Z</time>
      </trkpt>
      <trkpt lat="45.00186" lon="5.37516">
        <ele>1248.89</ele>
        <time>2022-05-17T11:17:00Z</time>
      </trkpt>
      <trkpt lat="45.00183" lon="5.37505">
        <ele>1246.49</ele>
        <time>2022-05-17T11:17:15Z</time>
      </trkpt>
      <trkpt lat="45.00178" lon="5.37499">
        <ele>1244.56</ele>
        <time>2022-05-17T11:18:10Z</time>
      </trkpt>
      <trkpt lat="45.00174" lon="5.37496">
        <ele>1241.68</ele>
        <time>2022-05-17T11:18:29Z</time>
      </trkpt>
      <trkpt lat="45.00167" lon="5.3749">
        <ele>1238.8</ele>
        <time>2022-05-17T11:18:43Z</time>
      </trkpt>
      <trkpt lat="45.00158" lon="5.37483">
        <ele>1236.39</ele>
        <time>2022-05-17T11:18:58Z</time>
      </trkpt>
      <trkpt lat="45.00157" lon="5.3748">
        <ele>1235.43</ele>
        <time>2022-05-17T11:19:02Z</time>
      </trkpt>
      <trkpt lat="45.00158" lon="5.37466">
        <ele>1232.07</ele>
        <time>2022-05-17T11:19:15Z</time>
      </trkpt>
      <trkpt lat="45.00156" lon="5.37451">
        <ele>1228.7</ele>
        <time>2022-05-17T11:19:30Z</time>
      </trkpt>
      <trkpt lat="45.00153" lon="5.37436">
        <ele>1225.34</ele>
        <time>2022-05-17T11:19:45Z</time>
      </trkpt>
      <trkpt lat="45.00152" lon="5.3743">
        <ele>1224.38</ele>
        <time>2022-05-17T11:19:51Z</time>
      </trkpt>
      <trkpt lat="45.00152" lon="5.37414">
        <ele>1221.01</ele>
        <time>2022-05-17T11:20:05Z</time>
      </trkpt>
      <trkpt lat="45.00151" lon="5.37405">
        <ele>1217.65</ele>
        <time>2022-05-17T11:20:16Z</time>
      </trkpt>
      <trkpt lat="45.00153" lon="5.37397">
        <ele>1216.69</ele>
        <time>2022-05-17T11:20:34Z</time>
      </trkpt>
      <trkpt lat="45.00155" lon="5.37389">
        <ele>1216.21</ele>
        <time>2022-05-17T11:20:59Z</time>
      </trkpt>
      <trkpt lat="45.00156" lon="5.37379">
        <ele>1212.84</ele>
        <time>2022-05-17T11:21:12Z</time>
      </trkpt>
      <trkpt lat="45.00157" lon="5.37362">
        <ele>1209.48</ele>
        <time>2022-05-17T11:21:26Z</time>
      </trkpt>
      <trkpt lat="45.00158" lon="5.37349">
        <ele>1205.63</ele>
        <time>2022-05-17T11:21:38Z</time>
      </trkpt>
      <trkpt lat="45.00162" lon="5.37337">
        <ele>1203.71</ele>
        <time>2022-05-17T11:21:50Z</time>
      </trkpt>
      <trkpt lat="45.00167" lon="5.37317">
        <ele>1202.27</ele>
        <time>2022-05-17T11:22:03Z</time>
      </trkpt>
      <trkpt lat="45.00173" lon="5.37288">
        <ele>1199.38</ele>
        <time>2022-05-17T11:22:19Z</time>
      </trkpt>
      <trkpt lat="45.00178" lon="5.3727">
        <ele>1196.98</ele>
        <time>2022-05-17T11:22:33Z</time>
      </trkpt>
      <trkpt lat="45.00178" lon="5.37252">
        <ele>1194.58</ele>
        <time>2022-05-17T11:22:47Z</time>
      </trkpt>
      <trkpt lat="45.00175" lon="5.37247">
        <ele>1193.13</ele>
        <time>2022-05-17T11:22:51Z</time>
      </trkpt>
      <trkpt lat="45.0016" lon="5.37238">
        <ele>1191.21</ele>
        <time>2022-05-17T11:23:07Z</time>
      </trkpt>
      <trkpt lat="45.0015" lon="5.3723">
        <ele>1190.25</ele>
        <time>2022-05-17T11:23:23Z</time>
      </trkpt>
      <trkpt lat="45.00144" lon="5.37225">
        <ele>1189.77</ele>
        <time>2022-05-17T11:23:38Z</time>
      </trkpt>
      <trkpt lat="45.00149" lon="5.37202">
        <ele>1186.88</ele>
        <time>2022-05-17T11:25:35Z</time>
      </trkpt>
      <trkpt lat="45.00148" lon="5.37176">
        <ele>1186.4</ele>
        <time>2022-05-17T11:25:47Z</time>
      </trkpt>
      <trkpt lat="45.00142" lon="5.37152">
        <ele>1184</ele>
        <time>2022-05-17T11:26:00Z</time>
      </trkpt>
      <trkpt lat="45.0014" lon="5.37135">
        <ele>1181.6</ele>
        <time>2022-05-17T11:26:12Z</time>
      </trkpt>
      <trkpt lat="45.0014" lon="5.37104">
        <ele>1179.19</ele>
        <time>2022-05-17T11:26:26Z</time>
      </trkpt>
      <trkpt lat="45.00139" lon="5.37082">
        <ele>1176.79</ele>
        <time>2022-05-17T11:26:38Z</time>
      </trkpt>
      <trkpt lat="45.0014" lon="5.37056">
        <ele>1174.87</ele>
        <time>2022-05-17T11:26:52Z</time>
      </trkpt>
      <trkpt lat="45.00139" lon="5.37032">
        <ele>1171.5</ele>
        <time>2022-05-17T11:27:06Z</time>
      </trkpt>
      <trkpt lat="45.0014" lon="5.37015">
        <ele>1169.58</ele>
        <time>2022-05-17T11:27:17Z</time>
      </trkpt>
      <trkpt lat="45.0014" lon="5.36993">
        <ele>1167.18</ele>
        <time>2022-05-17T11:27:30Z</time>
      </trkpt>
      <trkpt lat="45.0014" lon="5.36971">
        <ele>1164.77</ele>
        <time>2022-05-17T11:27:46Z</time>
      </trkpt>
      <trkpt lat="45.00141" lon="5.36958">
        <ele>1162.37</ele>
        <time>2022-05-17T11:28:00Z</time>
      </trkpt>
      <trkpt lat="45.00137" lon="5.36948">
        <ele>1161.89</ele>
        <time>2022-05-17T11:28:18Z</time>
      </trkpt>
      <trkpt lat="45.00134" lon="5.36941">
        <ele>1160.93</ele>
        <time>2022-05-17T11:28:31Z</time>
      </trkpt>
      <trkpt lat="45.00134" lon="5.36931">
        <ele>1160.45</ele>
        <time>2022-05-17T11:28:51Z</time>
      </trkpt>
      <trkpt lat="45.00136" lon="5.36926">
        <ele>1159.97</ele>
        <time>2022-05-17T11:29:04Z</time>
      </trkpt>
      <trkpt lat="45.00142" lon="5.36919">
        <ele>1159.49</ele>
        <time>2022-05-17T11:29:17Z</time>
      </trkpt>
      <trkpt lat="45.00142" lon="5.3691">
        <ele>1159.49</ele>
        <time>2022-05-17T11:29:33Z</time>
      </trkpt>
      <trkpt lat="45.0014" lon="5.36902">
        <ele>1158.05</ele>
        <time>2022-05-17T11:29:47Z</time>
      </trkpt>
      <trkpt lat="45.00138" lon="5.36892">
        <ele>1157.56</ele>
        <time>2022-05-17T11:30:00Z</time>
      </trkpt>
      <trkpt lat="45.00136" lon="5.36885">
        <ele>1157.08</ele>
        <time>2022-05-17T11:30:17Z</time>
      </trkpt>
      <trkpt lat="45.00135" lon="5.36882">
        <ele>1157.08</ele>
        <time>2022-05-17T11:30:19Z</time>
      </trkpt>
      <trkpt lat="45.00128" lon="5.36866">
        <ele>1156.12</ele>
        <time>2022-05-17T11:30:35Z</time>
      </trkpt>
      <trkpt lat="45.00121" lon="5.36844">
        <ele>1156.12</ele>
        <time>2022-05-17T11:30:51Z</time>
      </trkpt>
      <trkpt lat="45.00107" lon="5.36829">
        <ele>1155.64</ele>
        <time>2022-05-17T11:31:07Z</time>
      </trkpt>
      <trkpt lat="45.00104" lon="5.36825">
        <ele>1155.16</ele>
        <time>2022-05-17T11:31:19Z</time>
      </trkpt>
      <trkpt lat="45.00101" lon="5.36822">
        <ele>1155.16</ele>
        <time>2022-05-17T11:31:23Z</time>
      </trkpt>
      <trkpt lat="45.00093" lon="5.36806">
        <ele>1154.2</ele>
        <time>2022-05-17T11:31:38Z</time>
      </trkpt>
      <trkpt lat="45.00088" lon="5.36798">
        <ele>1154.2</ele>
        <time>2022-05-17T11:31:51Z</time>
      </trkpt>
      <trkpt lat="45.00088" lon="5.36795">
        <ele>1154.2</ele>
        <time>2022-05-17T11:32:02Z</time>
      </trkpt>
      <trkpt lat="45.00089" lon="5.36794">
        <ele>1154.2</ele>
        <time>2022-05-17T11:32:19Z</time>
      </trkpt>
      <trkpt lat="45.00085" lon="5.36788">
        <ele>1154.2</ele>
        <time>2022-05-17T11:32:38Z</time>
      </trkpt>
      <trkpt lat="45.00078" lon="5.36774">
        <ele>1156.12</ele>
        <time>2022-05-17T11:32:51Z</time>
      </trkpt>
      <trkpt lat="45.00072" lon="5.36758">
        <ele>1157.56</ele>
        <time>2022-05-17T11:33:05Z</time>
      </trkpt>
      <trkpt lat="45.00062" lon="5.36744">
        <ele>1157.56</ele>
        <time>2022-05-17T11:33:17Z</time>
      </trkpt>
      <trkpt lat="45.00046" lon="5.36731">
        <ele>1157.56</ele>
        <time>2022-05-17T11:33:34Z</time>
      </trkpt>
      <trkpt lat="45.00034" lon="5.36722">
        <ele>1156.6</ele>
        <time>2022-05-17T11:33:49Z</time>
      </trkpt>
      <trkpt lat="45.0003" lon="5.36711">
        <ele>1156.6</ele>
        <time>2022-05-17T11:34:00Z</time>
      </trkpt>
      <trkpt lat="45.00026" lon="5.36695">
        <ele>1156.6</ele>
        <time>2022-05-17T11:34:14Z</time>
      </trkpt>
      <trkpt lat="45.00025" lon="5.36675">
        <ele>1156.12</ele>
        <time>2022-05-17T11:34:28Z</time>
      </trkpt>
      <trkpt lat="45.00031" lon="5.36663">
        <ele>1155.64</ele>
        <time>2022-05-17T11:34:43Z</time>
      </trkpt>
      <trkpt lat="45.00031" lon="5.36661">
        <ele>1155.16</ele>
        <time>2022-05-17T11:35:00Z</time>
      </trkpt>
      <trkpt lat="45.00032" lon="5.3666">
        <ele>1154.68</ele>
        <time>2022-05-17T11:35:26Z</time>
      </trkpt>
      <trkpt lat="45.00032" lon="5.36658">
        <ele>1154.68</ele>
        <time>2022-05-17T11:35:49Z</time>
      </trkpt>
      <trkpt lat="45.00032" lon="5.36653">
        <ele>1154.68</ele>
        <time>2022-05-17T11:36:10Z</time>
      </trkpt>
      <trkpt lat="45.00038" lon="5.36646">
        <ele>1154.68</ele>
        <time>2022-05-17T11:36:24Z</time>
      </trkpt>
      <trkpt lat="45.00048" lon="5.36629">
        <ele>1154.68</ele>
        <time>2022-05-17T11:36:41Z</time>
      </trkpt>
      <trkpt lat="45.00054" lon="5.36622">
        <ele>1154.68</ele>
        <time>2022-05-17T11:36:49Z</time>
      </trkpt>
      <trkpt lat="45.00063" lon="5.36602">
        <ele>1152.28</ele>
        <time>2022-05-17T11:37:04Z</time>
      </trkpt>
      <trkpt lat="45.00065" lon="5.36596">
        <ele>1151.8</ele>
        <time>2022-05-17T11:37:09Z</time>
      </trkpt>
      <trkpt lat="45.00072" lon="5.36579">
        <ele>1149.39</ele>
        <time>2022-05-17T11:37:24Z</time>
      </trkpt>
      <trkpt lat="45.00078" lon="5.36564">
        <ele>1147.47</ele>
        <time>2022-05-17T11:37:37Z</time>
      </trkpt>
      <trkpt lat="45.00083" lon="5.36552">
        <ele>1145.55</ele>
        <time>2022-05-17T11:37:45Z</time>
      </trkpt>
      <trkpt lat="45.00091" lon="5.36536">
        <ele>1142.66</ele>
        <time>2022-05-17T11:37:58Z</time>
      </trkpt>
      <trkpt lat="45.00099" lon="5.3652">
        <ele>1140.74</ele>
        <time>2022-05-17T11:38:10Z</time>
      </trkpt>
      <trkpt lat="45.00103" lon="5.36502">
        <ele>1137.86</ele>
        <time>2022-05-17T11:38:24Z</time>
      </trkpt>
      <trkpt lat="45.00109" lon="5.36492">
        <ele>1135.94</ele>
        <time>2022-05-17T11:38:36Z</time>
      </trkpt>
      <trkpt lat="45.00123" lon="5.36482">
        <ele>1135.45</ele>
        <time>2022-05-17T11:38:52Z</time>
      </trkpt>
      <trkpt lat="45.00125" lon="5.36479">
        <ele>1135.45</ele>
        <time>2022-05-17T11:38:56Z</time>
      </trkpt>
      <trkpt lat="45.00139" lon="5.36468">
        <ele>1134.97</ele>
        <time>2022-05-17T11:39:10Z</time>
      </trkpt>
      <trkpt lat="45.00148" lon="5.36457">
        <ele>1132.09</ele>
        <time>2022-05-17T11:39:24Z</time>
      </trkpt>
      <trkpt lat="45.00155" lon="5.36443">
        <ele>1130.17</ele>
        <time>2022-05-17T11:39:36Z</time>
      </trkpt>
      <trkpt lat="45.00166" lon="5.36431">
        <ele>1127.76</ele>
        <time>2022-05-17T11:39:49Z</time>
      </trkpt>
      <trkpt lat="45.00173" lon="5.36424">
        <ele>1126.32</ele>
        <time>2022-05-17T11:39:58Z</time>
      </trkpt>
      <trkpt lat="45.00182" lon="5.36414">
        <ele>1124.4</ele>
        <time>2022-05-17T11:40:11Z</time>
      </trkpt>
      <trkpt lat="45.0019" lon="5.3641">
        <ele>1122.96</ele>
        <time>2022-05-17T11:40:22Z</time>
      </trkpt>
      <trkpt lat="45.00192" lon="5.36409">
        <ele>1122.96</ele>
        <time>2022-05-17T11:40:24Z</time>
      </trkpt>
      <trkpt lat="45.00196" lon="5.3641">
        <ele>1122.96</ele>
        <time>2022-05-17T11:40:27Z</time>
      </trkpt>
      <trkpt lat="45.0021" lon="5.36405">
        <ele>1120.55</ele>
        <time>2022-05-17T11:40:40Z</time>
      </trkpt>
      <trkpt lat="45.0022" lon="5.36403">
        <ele>1119.11</ele>
        <time>2022-05-17T11:40:52Z</time>
      </trkpt>
      <trkpt lat="45.00225" lon="5.36401">
        <ele>1118.15</ele>
        <time>2022-05-17T11:41:05Z</time>
      </trkpt>
      <trkpt lat="45.00237" lon="5.36396">
        <ele>1117.67</ele>
        <time>2022-05-17T11:41:19Z</time>
      </trkpt>
      <trkpt lat="45.0024" lon="5.36396">
        <ele>1116.71</ele>
        <time>2022-05-17T11:41:33Z</time>
      </trkpt>
      <trkpt lat="45.00247" lon="5.36399">
        <ele>1116.71</ele>
        <time>2022-05-17T11:42:00Z</time>
      </trkpt>
      <trkpt lat="45.0025" lon="5.36397">
        <ele>1116.71</ele>
        <time>2022-05-17T11:42:04Z</time>
      </trkpt>
      <trkpt lat="45.00268" lon="5.36391">
        <ele>1115.75</ele>
        <time>2022-05-17T11:42:18Z</time>
      </trkpt>
      <trkpt lat="45.00277" lon="5.36388">
        <ele>1114.31</ele>
        <time>2022-05-17T11:42:27Z</time>
      </trkpt>
      <trkpt lat="45.00281" lon="5.3639">
        <ele>1114.31</ele>
        <time>2022-05-17T11:42:30Z</time>
      </trkpt>
      <trkpt lat="45.00292" lon="5.36388">
        <ele>1113.82</ele>
        <time>2022-05-17T11:42:40Z</time>
      </trkpt>
      <trkpt lat="45.00314" lon="5.36385">
        <ele>1112.38</ele>
        <time>2022-05-17T11:42:55Z</time>
      </trkpt>
      <trkpt lat="45.00321" lon="5.36386">
        <ele>1111.9</ele>
        <time>2022-05-17T11:43:03Z</time>
      </trkpt>
      <trkpt lat="45.00328" lon="5.36387">
        <ele>1111.42</ele>
        <time>2022-05-17T11:43:10Z</time>
      </trkpt>
      <trkpt lat="45.00332" lon="5.36387">
        <ele>1111.42</ele>
        <time>2022-05-17T11:43:16Z</time>
      </trkpt>
      <trkpt lat="45.00344" lon="5.36385">
        <ele>1111.42</ele>
        <time>2022-05-17T11:43:26Z</time>
      </trkpt>
      <trkpt lat="45.00348" lon="5.36385">
        <ele>1110.94</ele>
        <time>2022-05-17T11:43:29Z</time>
      </trkpt>
      <trkpt lat="45.00362" lon="5.36387">
        <ele>1109.98</ele>
        <time>2022-05-17T11:43:41Z</time>
      </trkpt>
      <trkpt lat="45.00372" lon="5.36388">
        <ele>1108.54</ele>
        <time>2022-05-17T11:43:53Z</time>
      </trkpt>
      <trkpt lat="45.00381" lon="5.36384">
        <ele>1107.58</ele>
        <time>2022-05-17T11:43:59Z</time>
      </trkpt>
      <trkpt lat="45.00383" lon="5.36384">
        <ele>1107.58</ele>
        <time>2022-05-17T11:44:01Z</time>
      </trkpt>
      <trkpt lat="45.00392" lon="5.36389">
        <ele>1106.13</ele>
        <time>2022-05-17T11:44:10Z</time>
      </trkpt>
      <trkpt lat="45.00405" lon="5.36393">
        <ele>1104.21</ele>
        <time>2022-05-17T11:44:25Z</time>
      </trkpt>
      <trkpt lat="45.00416" lon="5.36394">
        <ele>1102.77</ele>
        <time>2022-05-17T11:44:38Z</time>
      </trkpt>
      <trkpt lat="45.00418" lon="5.36393">
        <ele>1102.29</ele>
        <time>2022-05-17T11:44:41Z</time>
      </trkpt>
      <trkpt lat="45.00428" lon="5.36392">
        <ele>1101.81</ele>
        <time>2022-05-17T11:44:48Z</time>
      </trkpt>
      <trkpt lat="45.00444" lon="5.3639">
        <ele>1100.85</ele>
        <time>2022-05-17T11:45:00Z</time>
      </trkpt>
      <trkpt lat="45.00455" lon="5.36383">
        <ele>1100.85</ele>
        <time>2022-05-17T11:45:13Z</time>
      </trkpt>
      <trkpt lat="45.00457" lon="5.36382">
        <ele>1100.85</ele>
        <time>2022-05-17T11:45:15Z</time>
      </trkpt>
      <trkpt lat="45.00471" lon="5.36377">
        <ele>1100.85</ele>
        <time>2022-05-17T11:45:26Z</time>
      </trkpt>
      <trkpt lat="45.00477" lon="5.36374">
        <ele>1100.85</ele>
        <time>2022-05-17T11:45:32Z</time>
      </trkpt>
      <trkpt lat="45.00483" lon="5.36372">
        <ele>1100.85</ele>
        <time>2022-05-17T11:45:37Z</time>
      </trkpt>
      <trkpt lat="45.00497" lon="5.36362">
        <ele>1100.85</ele>
        <time>2022-05-17T11:45:51Z</time>
      </trkpt>
      <trkpt lat="45.00501" lon="5.36358">
        <ele>1099.89</ele>
        <time>2022-05-17T11:45:56Z</time>
      </trkpt>
      <trkpt lat="45.00511" lon="5.36352">
        <ele>1099.4</ele>
        <time>2022-05-17T11:46:10Z</time>
      </trkpt>
      <trkpt lat="45.00519" lon="5.36347">
        <ele>1098.44</ele>
        <time>2022-05-17T11:49:26Z</time>
      </trkpt>
      <trkpt lat="45.00522" lon="5.36343">
        <ele>1098.44</ele>
        <time>2022-05-17T11:49:31Z</time>
      </trkpt>
      <trkpt lat="45.00531" lon="5.3634">
        <ele>1097.48</ele>
        <time>2022-05-17T11:49:42Z</time>
      </trkpt>
      <trkpt lat="45.00539" lon="5.36333">
        <ele>1096.52</ele>
        <time>2022-05-17T11:49:54Z</time>
      </trkpt>
      <trkpt lat="45.00549" lon="5.36327">
        <ele>1096.52</ele>
        <time>2022-05-17T11:50:09Z</time>
      </trkpt>
      <trkpt lat="45.00559" lon="5.36319">
        <ele>1096.52</ele>
        <time>2022-05-17T11:50:23Z</time>
      </trkpt>
      <trkpt lat="45.00571" lon="5.3631">
        <ele>1096.04</ele>
        <time>2022-05-17T11:50:36Z</time>
      </trkpt>
      <trkpt lat="45.00572" lon="5.36309">
        <ele>1096.04</ele>
        <time>2022-05-17T11:50:37Z</time>
      </trkpt>
      <trkpt lat="45.00575" lon="5.36306">
        <ele>1096.04</ele>
        <time>2022-05-17T11:50:39Z</time>
      </trkpt>
      <trkpt lat="45.00591" lon="5.3629">
        <ele>1096.04</ele>
        <time>2022-05-17T11:50:55Z</time>
      </trkpt>
      <trkpt lat="45.00603" lon="5.36278">
        <ele>1094.12</ele>
        <time>2022-05-17T11:51:10Z</time>
      </trkpt>
      <trkpt lat="45.00618" lon="5.36266">
        <ele>1093.16</ele>
        <time>2022-05-17T11:51:26Z</time>
      </trkpt>
      <trkpt lat="45.00627" lon="5.36264">
        <ele>1092.68</ele>
        <time>2022-05-17T11:51:38Z</time>
      </trkpt>
      <trkpt lat="45.00635" lon="5.3626">
        <ele>1092.68</ele>
        <time>2022-05-17T11:51:51Z</time>
      </trkpt>
      <trkpt lat="45.00647" lon="5.36256">
        <ele>1090.75</ele>
        <time>2022-05-17T11:52:04Z</time>
      </trkpt>
      <trkpt lat="45.00663" lon="5.3626">
        <ele>1088.83</ele>
        <time>2022-05-17T11:52:18Z</time>
      </trkpt>
      <trkpt lat="45.00675" lon="5.36261">
        <ele>1088.35</ele>
        <time>2022-05-17T11:52:29Z</time>
      </trkpt>
      <trkpt lat="45.00679" lon="5.36259">
        <ele>1087.87</ele>
        <time>2022-05-17T11:52:32Z</time>
      </trkpt>
      <trkpt lat="45.0069" lon="5.36254">
        <ele>1087.87</ele>
        <time>2022-05-17T11:52:45Z</time>
      </trkpt>
      <trkpt lat="45.0069" lon="5.3625">
        <ele>1087.87</ele>
        <time>2022-05-17T11:53:02Z</time>
      </trkpt>
      <trkpt lat="45.00686" lon="5.36247">
        <ele>1087.39</ele>
        <time>2022-05-17T11:53:07Z</time>
      </trkpt>
      <trkpt lat="45.00684" lon="5.36241">
        <ele>1086.91</ele>
        <time>2022-05-17T11:53:13Z</time>
      </trkpt>
      <trkpt lat="45.00674" lon="5.36229">
        <ele>1085.95</ele>
        <time>2022-05-17T11:53:31Z</time>
      </trkpt>
      <trkpt lat="45.00669" lon="5.3622">
        <ele>1084.02</ele>
        <time>2022-05-17T11:53:47Z</time>
      </trkpt>
      <trkpt lat="45.00665" lon="5.36216">
        <ele>1082.1</ele>
        <time>2022-05-17T11:54:02Z</time>
      </trkpt>
      <trkpt lat="45.00662" lon="5.36206">
        <ele>1080.18</ele>
        <time>2022-05-17T11:54:14Z</time>
      </trkpt>
      <trkpt lat="45.0066" lon="5.36191">
        <ele>1078.26</ele>
        <time>2022-05-17T11:54:26Z</time>
      </trkpt>
      <trkpt lat="45.00658" lon="5.36179">
        <ele>1077.78</ele>
        <time>2022-05-17T11:54:40Z</time>
      </trkpt>
      <trkpt lat="45.0066" lon="5.36174">
        <ele>1077.29</ele>
        <time>2022-05-17T11:54:53Z</time>
      </trkpt>
      <trkpt lat="45.00657" lon="5.36155">
        <ele>1076.33</ele>
        <time>2022-05-17T11:55:06Z</time>
      </trkpt>
      <trkpt lat="45.00651" lon="5.36145">
        <ele>1076.33</ele>
        <time>2022-05-17T11:55:16Z</time>
      </trkpt>
      <trkpt lat="45.00649" lon="5.36139">
        <ele>1076.33</ele>
        <time>2022-05-17T11:55:20Z</time>
      </trkpt>
      <trkpt lat="45.00632" lon="5.36137">
        <ele>1075.85</ele>
        <time>2022-05-17T11:55:38Z</time>
      </trkpt>
      <trkpt lat="45.00628" lon="5.36134">
        <ele>1075.85</ele>
        <time>2022-05-17T11:55:49Z</time>
      </trkpt>
      <trkpt lat="45.00632" lon="5.36128">
        <ele>1075.85</ele>
        <time>2022-05-17T11:55:54Z</time>
      </trkpt>
      <trkpt lat="45.00633" lon="5.36126">
        <ele>1077.29</ele>
        <time>2022-05-17T11:55:56Z</time>
      </trkpt>
      <trkpt lat="45.00639" lon="5.36118">
        <ele>1078.26</ele>
        <time>2022-05-17T11:56:09Z</time>
      </trkpt>
      <trkpt lat="45.00651" lon="5.36105">
        <ele>1078.74</ele>
        <time>2022-05-17T11:56:25Z</time>
      </trkpt>
      <trkpt lat="45.00661" lon="5.36096">
        <ele>1078.74</ele>
        <time>2022-05-17T11:56:38Z</time>
      </trkpt>
      <trkpt lat="45.00673" lon="5.36087">
        <ele>1078.74</ele>
        <time>2022-05-17T11:56:51Z</time>
      </trkpt>
      <trkpt lat="45.00683" lon="5.36072">
        <ele>1078.74</ele>
        <time>2022-05-17T11:57:07Z</time>
      </trkpt>
      <trkpt lat="45.00686" lon="5.36052">
        <ele>1079.7</ele>
        <time>2022-05-17T11:57:23Z</time>
      </trkpt>
      <trkpt lat="45.00684" lon="5.36033">
        <ele>1079.22</ele>
        <time>2022-05-17T11:57:37Z</time>
      </trkpt>
      <trkpt lat="45.00682" lon="5.36027">
        <ele>1078.26</ele>
        <time>2022-05-17T11:57:43Z</time>
      </trkpt>
      <trkpt lat="45.0068" lon="5.36021">
        <ele>1077.78</ele>
        <time>2022-05-17T11:57:48Z</time>
      </trkpt>
      <trkpt lat="45.00684" lon="5.36008">
        <ele>1076.81</ele>
        <time>2022-05-17T11:58:02Z</time>
      </trkpt>
      <trkpt lat="45.00686" lon="5.36002">
        <ele>1076.81</ele>
        <time>2022-05-17T11:58:16Z</time>
      </trkpt>
      <trkpt lat="45.00683" lon="5.35997">
        <ele>1076.81</ele>
        <time>2022-05-17T11:58:28Z</time>
      </trkpt>
      <trkpt lat="45.00685" lon="5.35986">
        <ele>1076.33</ele>
        <time>2022-05-17T11:58:45Z</time>
      </trkpt>
      <trkpt lat="45.00686" lon="5.35981">
        <ele>1076.33</ele>
        <time>2022-05-17T11:59:02Z</time>
      </trkpt>
      <trkpt lat="45.00688" lon="5.35969">
        <ele>1076.33</ele>
        <time>2022-05-17T11:59:18Z</time>
      </trkpt>
      <trkpt lat="45.00682" lon="5.35953">
        <ele>1076.33</ele>
        <time>2022-05-17T11:59:33Z</time>
      </trkpt>
      <trkpt lat="45.00674" lon="5.35938">
        <ele>1076.33</ele>
        <time>2022-05-17T11:59:51Z</time>
      </trkpt>
      <trkpt lat="45.0066" lon="5.35925">
        <ele>1074.89</ele>
        <time>2022-05-17T12:00:06Z</time>
      </trkpt>
      <trkpt lat="45.00648" lon="5.35906">
        <ele>1074.89</ele>
        <time>2022-05-17T12:00:22Z</time>
      </trkpt>
      <trkpt lat="45.0064" lon="5.3589">
        <ele>1074.89</ele>
        <time>2022-05-17T12:00:36Z</time>
      </trkpt>
      <trkpt lat="45.00633" lon="5.35876">
        <ele>1074.41</ele>
        <time>2022-05-17T12:00:46Z</time>
      </trkpt>
      <trkpt lat="45.00616" lon="5.35857">
        <ele>1073.93</ele>
        <time>2022-05-17T12:01:03Z</time>
      </trkpt>
      <trkpt lat="45.00601" lon="5.35852">
        <ele>1073.93</ele>
        <time>2022-05-17T12:01:16Z</time>
      </trkpt>
      <trkpt lat="45.00588" lon="5.35847">
        <ele>1073.93</ele>
        <time>2022-05-17T12:01:30Z</time>
      </trkpt>
      <trkpt lat="45.00577" lon="5.35837">
        <ele>1073.45</ele>
        <time>2022-05-17T12:01:45Z</time>
      </trkpt>
      <trkpt lat="45.00563" lon="5.35825">
        <ele>1072.49</ele>
        <time>2022-05-17T12:02:00Z</time>
      </trkpt>
      <trkpt lat="45.00561" lon="5.35822">
        <ele>1072.01</ele>
        <time>2022-05-17T12:02:02Z</time>
      </trkpt>
      <trkpt lat="45.0056" lon="5.35809">
        <ele>1071.53</ele>
        <time>2022-05-17T12:02:17Z</time>
      </trkpt>
      <trkpt lat="45.00562" lon="5.358">
        <ele>1071.05</ele>
        <time>2022-05-17T12:02:42Z</time>
      </trkpt>
      <trkpt lat="45.00568" lon="5.35791">
        <ele>1069.12</ele>
        <time>2022-05-17T12:02:55Z</time>
      </trkpt>
      <trkpt lat="45.00575" lon="5.35777">
        <ele>1067.2</ele>
        <time>2022-05-17T12:03:11Z</time>
      </trkpt>
      <trkpt lat="45.00578" lon="5.35769">
        <ele>1065.28</ele>
        <time>2022-05-17T12:03:19Z</time>
      </trkpt>
      <trkpt lat="45.00576" lon="5.35747">
        <ele>1062.39</ele>
        <time>2022-05-17T12:03:34Z</time>
      </trkpt>
      <trkpt lat="45.00566" lon="5.3573">
        <ele>1060.47</ele>
        <time>2022-05-17T12:03:50Z</time>
      </trkpt>
      <trkpt lat="45.00561" lon="5.3572">
        <ele>1058.07</ele>
        <time>2022-05-17T12:04:05Z</time>
      </trkpt>
      <trkpt lat="45.00552" lon="5.35706">
        <ele>1054.7</ele>
        <time>2022-05-17T12:04:20Z</time>
      </trkpt>
      <trkpt lat="45.00542" lon="5.35697">
        <ele>1051.82</ele>
        <time>2022-05-17T12:04:34Z</time>
      </trkpt>
      <trkpt lat="45.00536" lon="5.35677">
        <ele>1048.45</ele>
        <time>2022-05-17T12:04:52Z</time>
      </trkpt>
      <trkpt lat="45.00535" lon="5.35662">
        <ele>1046.05</ele>
        <time>2022-05-17T12:05:07Z</time>
      </trkpt>
      <trkpt lat="45.00538" lon="5.35659">
        <ele>1045.57</ele>
        <time>2022-05-17T12:05:27Z</time>
      </trkpt>
      <trkpt lat="45.00531" lon="5.35643">
        <ele>1042.69</ele>
        <time>2022-05-17T12:05:42Z</time>
      </trkpt>
      <trkpt lat="45.00537" lon="5.35626">
        <ele>1040.28</ele>
        <time>2022-05-17T12:05:56Z</time>
      </trkpt>
      <trkpt lat="45.00538" lon="5.35624">
        <ele>1040.28</ele>
        <time>2022-05-17T12:05:58Z</time>
      </trkpt>
      <trkpt lat="45.00547" lon="5.35611">
        <ele>1038.36</ele>
        <time>2022-05-17T12:06:11Z</time>
      </trkpt>
      <trkpt lat="45.00563" lon="5.356">
        <ele>1037.88</ele>
        <time>2022-05-17T12:06:27Z</time>
      </trkpt>
      <trkpt lat="45.00568" lon="5.35595">
        <ele>1036.92</ele>
        <time>2022-05-17T12:06:40Z</time>
      </trkpt>
      <trkpt lat="45.00578" lon="5.3559">
        <ele>1035</ele>
        <time>2022-05-17T12:06:57Z</time>
      </trkpt>
      <trkpt lat="45.00579" lon="5.3559">
        <ele>1035</ele>
        <time>2022-05-17T12:06:58Z</time>
      </trkpt>
      <trkpt lat="45.0059" lon="5.3559">
        <ele>1033.07</ele>
        <time>2022-05-17T12:07:11Z</time>
      </trkpt>
      <trkpt lat="45.00599" lon="5.35586">
        <ele>1031.15</ele>
        <time>2022-05-17T12:07:20Z</time>
      </trkpt>
      <trkpt lat="45.0061" lon="5.3558">
        <ele>1028.27</ele>
        <time>2022-05-17T12:07:32Z</time>
      </trkpt>
      <trkpt lat="45.00614" lon="5.35574">
        <ele>1028.27</ele>
        <time>2022-05-17T12:07:39Z</time>
      </trkpt>
      <trkpt lat="45.00624" lon="5.3556">
        <ele>1026.34</ele>
        <time>2022-05-17T12:07:50Z</time>
      </trkpt>
      <trkpt lat="45.00631" lon="5.3555">
        <ele>1025.38</ele>
        <time>2022-05-17T12:07:59Z</time>
      </trkpt>
      <trkpt lat="45.00646" lon="5.35543">
        <ele>1025.38</ele>
        <time>2022-05-17T12:08:15Z</time>
      </trkpt>
      <trkpt lat="45.00656" lon="5.35539">
        <ele>1024.42</ele>
        <time>2022-05-17T12:08:28Z</time>
      </trkpt>
      <trkpt lat="45.00674" lon="5.35539">
        <ele>1022.5</ele>
        <time>2022-05-17T12:08:41Z</time>
      </trkpt>
      <trkpt lat="45.0069" lon="5.35541">
        <ele>1021.54</ele>
        <time>2022-05-17T12:08:54Z</time>
      </trkpt>
      <trkpt lat="45.00701" lon="5.35539">
        <ele>1020.1</ele>
        <time>2022-05-17T12:09:03Z</time>
      </trkpt>
      <trkpt lat="45.00715" lon="5.35537">
        <ele>1018.17</ele>
        <time>2022-05-17T12:09:16Z</time>
      </trkpt>
      <trkpt lat="45.00731" lon="5.35541">
        <ele>1016.73</ele>
        <time>2022-05-17T12:09:29Z</time>
      </trkpt>
      <trkpt lat="45.0074" lon="5.35546">
        <ele>1015.77</ele>
        <time>2022-05-17T12:09:40Z</time>
      </trkpt>
      <trkpt lat="45.00747" lon="5.3555">
        <ele>1015.77</ele>
        <time>2022-05-17T12:09:45Z</time>
      </trkpt>
      <trkpt lat="45.00765" lon="5.35563">
        <ele>1015.29</ele>
        <time>2022-05-17T12:10:00Z</time>
      </trkpt>
      <trkpt lat="45.00777" lon="5.35572">
        <ele>1014.33</ele>
        <time>2022-05-17T12:10:11Z</time>
      </trkpt>
      <trkpt lat="45.00793" lon="5.3558">
        <ele>1011.93</ele>
        <time>2022-05-17T12:10:25Z</time>
      </trkpt>
      <trkpt lat="45.00808" lon="5.35584">
        <ele>1010.96</ele>
        <time>2022-05-17T12:10:38Z</time>
      </trkpt>
      <trkpt lat="45.0082" lon="5.3559">
        <ele>1009.04</ele>
        <time>2022-05-17T12:10:51Z</time>
      </trkpt>
      <trkpt lat="45.00833" lon="5.35589">
        <ele>1006.64</ele>
        <time>2022-05-17T12:11:03Z</time>
      </trkpt>
      <trkpt lat="45.00844" lon="5.3559">
        <ele>1005.68</ele>
        <time>2022-05-17T12:11:15Z</time>
      </trkpt>
      <trkpt lat="45.00853" lon="5.35587">
        <ele>1004.72</ele>
        <time>2022-05-17T12:11:26Z</time>
      </trkpt>
      <trkpt lat="45.00871" lon="5.35591">
        <ele>1002.31</ele>
        <time>2022-05-17T12:11:42Z</time>
      </trkpt>
      <trkpt lat="45.00884" lon="5.35595">
        <ele>1001.35</ele>
        <time>2022-05-17T12:11:55Z</time>
      </trkpt>
      <trkpt lat="45.00895" lon="5.35599">
        <ele>999.43</ele>
        <time>2022-05-17T12:12:08Z</time>
      </trkpt>
      <trkpt lat="45.00905" lon="5.35606">
        <ele>997.02</ele>
        <time>2022-05-17T12:12:20Z</time>
      </trkpt>
      <trkpt lat="45.00914" lon="5.35614">
        <ele>994.62</ele>
        <time>2022-05-17T12:12:31Z</time>
      </trkpt>
      <trkpt lat="45.00924" lon="5.35619">
        <ele>992.22</ele>
        <time>2022-05-17T12:12:44Z</time>
      </trkpt>
      <trkpt lat="45.00935" lon="5.35623">
        <ele>989.81</ele>
        <time>2022-05-17T12:12:58Z</time>
      </trkpt>
      <trkpt lat="45.00948" lon="5.35629">
        <ele>988.37</ele>
        <time>2022-05-17T12:13:13Z</time>
      </trkpt>
      <trkpt lat="45.00962" lon="5.35632">
        <ele>985.97</ele>
        <time>2022-05-17T12:13:27Z</time>
      </trkpt>
      <trkpt lat="45.00971" lon="5.35635">
        <ele>985.01</ele>
        <time>2022-05-17T12:13:41Z</time>
      </trkpt>
      <trkpt lat="45.00979" lon="5.35639">
        <ele>984.05</ele>
        <time>2022-05-17T12:14:03Z</time>
      </trkpt>
      <trkpt lat="45.00985" lon="5.3564">
        <ele>982.6</ele>
        <time>2022-05-17T12:14:18Z</time>
      </trkpt>
      <trkpt lat="45.00995" lon="5.3564">
        <ele>980.68</ele>
        <time>2022-05-17T12:14:30Z</time>
      </trkpt>
      <trkpt lat="45.01006" lon="5.35644">
        <ele>978.28</ele>
        <time>2022-05-17T12:14:45Z</time>
      </trkpt>
      <trkpt lat="45.01015" lon="5.35648">
        <ele>974.91</ele>
        <time>2022-05-17T12:15:00Z</time>
      </trkpt>
      <trkpt lat="45.01026" lon="5.35647">
        <ele>972.99</ele>
        <time>2022-05-17T12:15:14Z</time>
      </trkpt>
      <trkpt lat="45.01037" lon="5.35637">
        <ele>972.03</ele>
        <time>2022-05-17T12:15:28Z</time>
      </trkpt>
      <trkpt lat="45.01047" lon="5.35627">
        <ele>970.11</ele>
        <time>2022-05-17T12:15:42Z</time>
      </trkpt>
      <trkpt lat="45.01056" lon="5.35618">
        <ele>969.15</ele>
        <time>2022-05-17T12:15:55Z</time>
      </trkpt>
      <trkpt lat="45.01065" lon="5.35603">
        <ele>967.22</ele>
        <time>2022-05-17T12:16:11Z</time>
      </trkpt>
      <trkpt lat="45.01072" lon="5.35592">
        <ele>965.78</ele>
        <time>2022-05-17T12:16:22Z</time>
      </trkpt>
      <trkpt lat="45.01076" lon="5.35581">
        <ele>964.34</ele>
        <time>2022-05-17T12:16:34Z</time>
      </trkpt>
      <trkpt lat="45.01083" lon="5.35565">
        <ele>962.42</ele>
        <time>2022-05-17T12:16:48Z</time>
      </trkpt>
      <trkpt lat="45.01091" lon="5.35546">
        <ele>961.94</ele>
        <time>2022-05-17T12:17:02Z</time>
      </trkpt>
      <trkpt lat="45.01098" lon="5.35531">
        <ele>960.98</ele>
        <time>2022-05-17T12:17:16Z</time>
      </trkpt>
      <trkpt lat="45.01101" lon="5.35524">
        <ele>960.98</ele>
        <time>2022-05-17T12:17:22Z</time>
      </trkpt>
      <trkpt lat="45.01099" lon="5.3552">
        <ele>960.49</ele>
        <time>2022-05-17T12:17:24Z</time>
      </trkpt>
      <trkpt lat="45.01099" lon="5.35518">
        <ele>960.49</ele>
        <time>2022-05-17T12:17:26Z</time>
      </trkpt>
      <trkpt lat="45.01102" lon="5.35512">
        <ele>959.53</ele>
        <time>2022-05-17T12:17:30Z</time>
      </trkpt>
      <trkpt lat="45.01114" lon="5.35502">
        <ele>959.05</ele>
        <time>2022-05-17T12:17:46Z</time>
      </trkpt>
      <trkpt lat="45.01125" lon="5.35481">
        <ele>957.61</ele>
        <time>2022-05-17T12:18:02Z</time>
      </trkpt>
      <trkpt lat="45.01128" lon="5.35465">
        <ele>954.73</ele>
        <time>2022-05-17T12:18:15Z</time>
      </trkpt>
      <trkpt lat="45.01128" lon="5.35461">
        <ele>954.73</ele>
        <time>2022-05-17T12:18:17Z</time>
      </trkpt>
      <trkpt lat="45.01132" lon="5.35445">
        <ele>952.8</ele>
        <time>2022-05-17T12:18:30Z</time>
      </trkpt>
      <trkpt lat="45.01136" lon="5.35426">
        <ele>950.88</ele>
        <time>2022-05-17T12:18:43Z</time>
      </trkpt>
      <trkpt lat="45.01141" lon="5.35409">
        <ele>948.96</ele>
        <time>2022-05-17T12:18:56Z</time>
      </trkpt>
      <trkpt lat="45.01146" lon="5.35392">
        <ele>947.52</ele>
        <time>2022-05-17T12:19:10Z</time>
      </trkpt>
      <trkpt lat="45.01149" lon="5.35375">
        <ele>945.59</ele>
        <time>2022-05-17T12:19:23Z</time>
      </trkpt>
      <trkpt lat="45.01155" lon="5.35363">
        <ele>944.63</ele>
        <time>2022-05-17T12:19:32Z</time>
      </trkpt>
      <trkpt lat="45.01163" lon="5.3534">
        <ele>943.19</ele>
        <time>2022-05-17T12:19:48Z</time>
      </trkpt>
      <trkpt lat="45.01169" lon="5.35321">
        <ele>941.75</ele>
        <time>2022-05-17T12:20:02Z</time>
      </trkpt>
      <trkpt lat="45.0117" lon="5.35317">
        <ele>941.75</ele>
        <time>2022-05-17T12:20:05Z</time>
      </trkpt>
      <trkpt lat="45.01172" lon="5.3531">
        <ele>940.79</ele>
        <time>2022-05-17T12:20:11Z</time>
      </trkpt>
      <trkpt lat="45.01181" lon="5.35289">
        <ele>940.31</ele>
        <time>2022-05-17T12:20:26Z</time>
      </trkpt>
      <trkpt lat="45.01185" lon="5.35283">
        <ele>939.35</ele>
        <time>2022-05-17T12:20:32Z</time>
      </trkpt>
      <trkpt lat="45.01186" lon="5.35281">
        <ele>938.86</ele>
        <time>2022-05-17T12:20:34Z</time>
      </trkpt>
      <trkpt lat="45.0119" lon="5.35275">
        <ele>938.38</ele>
        <time>2022-05-17T12:20:39Z</time>
      </trkpt>
      <trkpt lat="45.01192" lon="5.35269">
        <ele>937.9</ele>
        <time>2022-05-17T12:20:43Z</time>
      </trkpt>
      <trkpt lat="45.01204" lon="5.35254">
        <ele>936.94</ele>
        <time>2022-05-17T12:20:58Z</time>
      </trkpt>
      <trkpt lat="45.01213" lon="5.35246">
        <ele>936.46</ele>
        <time>2022-05-17T12:21:07Z</time>
      </trkpt>
      <trkpt lat="45.01228" lon="5.35235">
        <ele>935.98</ele>
        <time>2022-05-17T12:21:22Z</time>
      </trkpt>
      <trkpt lat="45.01242" lon="5.35229">
        <ele>935.98</ele>
        <time>2022-05-17T12:21:34Z</time>
      </trkpt>
      <trkpt lat="45.01253" lon="5.35217">
        <ele>935.5</ele>
        <time>2022-05-17T12:21:46Z</time>
      </trkpt>
      <trkpt lat="45.01267" lon="5.35207">
        <ele>934.06</ele>
        <time>2022-05-17T12:21:59Z</time>
      </trkpt>
      <trkpt lat="45.01272" lon="5.35202">
        <ele>933.1</ele>
        <time>2022-05-17T12:22:04Z</time>
      </trkpt>
      <trkpt lat="45.01274" lon="5.35201">
        <ele>933.1</ele>
        <time>2022-05-17T12:22:05Z</time>
      </trkpt>
      <trkpt lat="45.01285" lon="5.35194">
        <ele>932.14</ele>
        <time>2022-05-17T12:22:15Z</time>
      </trkpt>
      <trkpt lat="45.01288" lon="5.35193">
        <ele>932.14</ele>
        <time>2022-05-17T12:22:17Z</time>
      </trkpt>
      <trkpt lat="45.01306" lon="5.35182">
        <ele>931.17</ele>
        <time>2022-05-17T12:22:31Z</time>
      </trkpt>
      <trkpt lat="45.01314" lon="5.35176">
        <ele>931.65</ele>
        <time>2022-05-17T12:22:38Z</time>
      </trkpt>
      <trkpt lat="45.01315" lon="5.3517">
        <ele>931.65</ele>
        <time>2022-05-17T12:22:41Z</time>
      </trkpt>
      <trkpt lat="45.01318" lon="5.35163">
        <ele>931.17</ele>
        <time>2022-05-17T12:22:46Z</time>
      </trkpt>
      <trkpt lat="45.01324" lon="5.3514">
        <ele>930.69</ele>
        <time>2022-05-17T12:23:01Z</time>
      </trkpt>
      <trkpt lat="45.01332" lon="5.35121">
        <ele>930.21</ele>
        <time>2022-05-17T12:23:14Z</time>
      </trkpt>
      <trkpt lat="45.0134" lon="5.35111">
        <ele>930.21</ele>
        <time>2022-05-17T12:23:28Z</time>
      </trkpt>
      <trkpt lat="45.01347" lon="5.35099">
        <ele>929.73</ele>
        <time>2022-05-17T12:23:40Z</time>
      </trkpt>
      <trkpt lat="45.01352" lon="5.35094">
        <ele>929.73</ele>
        <time>2022-05-17T12:23:58Z</time>
      </trkpt>
      <trkpt lat="45.01356" lon="5.35068">
        <ele>926.85</ele>
        <time>2022-05-17T12:26:56Z</time>
      </trkpt>
      <trkpt lat="45.01361" lon="5.3505">
        <ele>925.41</ele>
        <time>2022-05-17T12:27:08Z</time>
      </trkpt>
      <trkpt lat="45.01366" lon="5.3503">
        <ele>923.48</ele>
        <time>2022-05-17T12:27:23Z</time>
      </trkpt>
      <trkpt lat="45.01374" lon="5.35013">
        <ele>921.56</ele>
        <time>2022-05-17T12:27:39Z</time>
      </trkpt>
      <trkpt lat="45.01375" lon="5.35009">
        <ele>921.56</ele>
        <time>2022-05-17T12:27:42Z</time>
      </trkpt>
      <trkpt lat="45.01383" lon="5.34994">
        <ele>918.68</ele>
        <time>2022-05-17T12:27:56Z</time>
      </trkpt>
      <trkpt lat="45.01389" lon="5.34978">
        <ele>916.27</ele>
        <time>2022-05-17T12:28:09Z</time>
      </trkpt>
      <trkpt lat="45.01398" lon="5.34959">
        <ele>913.39</ele>
        <time>2022-05-17T12:28:22Z</time>
      </trkpt>
      <trkpt lat="45.01402" lon="5.34949">
        <ele>911.95</ele>
        <time>2022-05-17T12:28:29Z</time>
      </trkpt>
      <trkpt lat="45.01406" lon="5.34933">
        <ele>909.54</ele>
        <time>2022-05-17T12:28:42Z</time>
      </trkpt>
      <trkpt lat="45.01409" lon="5.34919">
        <ele>908.1</ele>
        <time>2022-05-17T12:28:54Z</time>
      </trkpt>
      <trkpt lat="45.01408" lon="5.349">
        <ele>906.66</ele>
        <time>2022-05-17T12:29:08Z</time>
      </trkpt>
      <trkpt lat="45.01413" lon="5.34884">
        <ele>903.78</ele>
        <time>2022-05-17T12:29:20Z</time>
      </trkpt>
      <trkpt lat="45.01421" lon="5.34866">
        <ele>901.37</ele>
        <time>2022-05-17T12:29:35Z</time>
      </trkpt>
      <trkpt lat="45.01423" lon="5.34844">
        <ele>899.93</ele>
        <time>2022-05-17T12:29:48Z</time>
      </trkpt>
      <trkpt lat="45.01426" lon="5.34822">
        <ele>898.97</ele>
        <time>2022-05-17T12:30:02Z</time>
      </trkpt>
      <trkpt lat="45.01426" lon="5.34803">
        <ele>898.01</ele>
        <time>2022-05-17T12:30:16Z</time>
      </trkpt>
      <trkpt lat="45.01434" lon="5.34782">
        <ele>896.09</ele>
        <time>2022-05-17T12:30:31Z</time>
      </trkpt>
      <trkpt lat="45.01439" lon="5.34765">
        <ele>893.68</ele>
        <time>2022-05-17T12:30:43Z</time>
      </trkpt>
      <trkpt lat="45.01444" lon="5.34744">
        <ele>891.76</ele>
        <time>2022-05-17T12:30:58Z</time>
      </trkpt>
      <trkpt lat="45.0145" lon="5.34727">
        <ele>890.32</ele>
        <time>2022-05-17T12:31:11Z</time>
      </trkpt>
      <trkpt lat="45.01459" lon="5.34709">
        <ele>888.4</ele>
        <time>2022-05-17T12:31:26Z</time>
      </trkpt>
      <trkpt lat="45.01465" lon="5.34688">
        <ele>886.95</ele>
        <time>2022-05-17T12:31:40Z</time>
      </trkpt>
      <trkpt lat="45.01474" lon="5.34667">
        <ele>884.55</ele>
        <time>2022-05-17T12:31:56Z</time>
      </trkpt>
      <trkpt lat="45.01481" lon="5.34649">
        <ele>883.11</ele>
        <time>2022-05-17T12:32:10Z</time>
      </trkpt>
      <trkpt lat="45.01488" lon="5.34635">
        <ele>880.71</ele>
        <time>2022-05-17T12:32:23Z</time>
      </trkpt>
      <trkpt lat="45.01489" lon="5.34634">
        <ele>880.22</ele>
        <time>2022-05-17T12:32:24Z</time>
      </trkpt>
      <trkpt lat="45.015" lon="5.34617">
        <ele>877.34</ele>
        <time>2022-05-17T12:32:39Z</time>
      </trkpt>
      <trkpt lat="45.01508" lon="5.34604">
        <ele>874.94</ele>
        <time>2022-05-17T12:32:52Z</time>
      </trkpt>
      <trkpt lat="45.01517" lon="5.34591">
        <ele>872.53</ele>
        <time>2022-05-17T12:33:05Z</time>
      </trkpt>
      <trkpt lat="45.01529" lon="5.34578">
        <ele>870.61</ele>
        <time>2022-05-17T12:33:18Z</time>
      </trkpt>
      <trkpt lat="45.01538" lon="5.34565">
        <ele>868.21</ele>
        <time>2022-05-17T12:33:32Z</time>
      </trkpt>
      <trkpt lat="45.01548" lon="5.34551">
        <ele>865.8</ele>
        <time>2022-05-17T12:33:45Z</time>
      </trkpt>
      <trkpt lat="45.01557" lon="5.34532">
        <ele>864.36</ele>
        <time>2022-05-17T12:33:59Z</time>
      </trkpt>
      <trkpt lat="45.01559" lon="5.3453">
        <ele>864.36</ele>
        <time>2022-05-17T12:34:01Z</time>
      </trkpt>
      <trkpt lat="45.01568" lon="5.34512">
        <ele>861.96</ele>
        <time>2022-05-17T12:34:15Z</time>
      </trkpt>
      <trkpt lat="45.01574" lon="5.34495">
        <ele>860.04</ele>
        <time>2022-05-17T12:34:27Z</time>
      </trkpt>
      <trkpt lat="45.01582" lon="5.34477">
        <ele>858.11</ele>
        <time>2022-05-17T12:34:40Z</time>
      </trkpt>
      <trkpt lat="45.01588" lon="5.34465">
        <ele>854.75</ele>
        <time>2022-05-17T12:34:54Z</time>
      </trkpt>
      <trkpt lat="45.01599" lon="5.34449">
        <ele>852.35</ele>
        <time>2022-05-17T12:35:08Z</time>
      </trkpt>
      <trkpt lat="45.01604" lon="5.34439">
        <ele>849.94</ele>
        <time>2022-05-17T12:35:18Z</time>
      </trkpt>
      <trkpt lat="45.01608" lon="5.34434">
        <ele>848.98</ele>
        <time>2022-05-17T12:35:21Z</time>
      </trkpt>
      <trkpt lat="45.01619" lon="5.34419">
        <ele>845.62</ele>
        <time>2022-05-17T12:35:35Z</time>
      </trkpt>
      <trkpt lat="45.01629" lon="5.34401">
        <ele>842.73</ele>
        <time>2022-05-17T12:35:48Z</time>
      </trkpt>
      <trkpt lat="45.01638" lon="5.3439">
        <ele>840.33</ele>
        <time>2022-05-17T12:36:00Z</time>
      </trkpt>
      <trkpt lat="45.01644" lon="5.34366">
        <ele>837.45</ele>
        <time>2022-05-17T12:36:14Z</time>
      </trkpt>
      <trkpt lat="45.0165" lon="5.34354">
        <ele>835.04</ele>
        <time>2022-05-17T12:36:26Z</time>
      </trkpt>
      <trkpt lat="45.01659" lon="5.34341">
        <ele>831.68</ele>
        <time>2022-05-17T12:36:39Z</time>
      </trkpt>
      <trkpt lat="45.01667" lon="5.34329">
        <ele>828.79</ele>
        <time>2022-05-17T12:36:52Z</time>
      </trkpt>
      <trkpt lat="45.01677" lon="5.34312">
        <ele>825.91</ele>
        <time>2022-05-17T12:37:08Z</time>
      </trkpt>
      <trkpt lat="45.01685" lon="5.34295">
        <ele>822.55</ele>
        <time>2022-05-17T12:37:22Z</time>
      </trkpt>
      <trkpt lat="45.01693" lon="5.34282">
        <ele>819.18</ele>
        <time>2022-05-17T12:37:35Z</time>
      </trkpt>
      <trkpt lat="45.01699" lon="5.34267">
        <ele>816.78</ele>
        <time>2022-05-17T12:37:48Z</time>
      </trkpt>
      <trkpt lat="45.01705" lon="5.34245">
        <ele>814.37</ele>
        <time>2022-05-17T12:38:02Z</time>
      </trkpt>
      <trkpt lat="45.01711" lon="5.34222">
        <ele>812.93</ele>
        <time>2022-05-17T12:38:16Z</time>
      </trkpt>
      <trkpt lat="45.01717" lon="5.34202">
        <ele>810.53</ele>
        <time>2022-05-17T12:38:30Z</time>
      </trkpt>
      <trkpt lat="45.01725" lon="5.34182">
        <ele>808.61</ele>
        <time>2022-05-17T12:38:46Z</time>
      </trkpt>
      <trkpt lat="45.01729" lon="5.34171">
        <ele>807.16</ele>
        <time>2022-05-17T12:38:54Z</time>
      </trkpt>
      <trkpt lat="45.01733" lon="5.34155">
        <ele>805.24</ele>
        <time>2022-05-17T12:39:08Z</time>
      </trkpt>
      <trkpt lat="45.01733" lon="5.34154">
        <ele>805.24</ele>
        <time>2022-05-17T12:39:29Z</time>
      </trkpt>
      <trkpt lat="45.01734" lon="5.34152">
        <ele>805.24</ele>
        <time>2022-05-17T12:39:50Z</time>
      </trkpt>
      <trkpt lat="45.01734" lon="5.34145">
        <ele>804.76</ele>
        <time>2022-05-17T12:40:28Z</time>
      </trkpt>
      <trkpt lat="45.01735" lon="5.34145">
        <ele>804.76</ele>
        <time>2022-05-17T12:40:51Z</time>
      </trkpt>
      <trkpt lat="45.01736" lon="5.34144">
        <ele>804.76</ele>
        <time>2022-05-17T12:41:16Z</time>
      </trkpt>
      <trkpt lat="45.01736" lon="5.3414">
        <ele>804.76</ele>
        <time>2022-05-17T12:41:36Z</time>
      </trkpt>
      <trkpt lat="45.01736" lon="5.34121">
        <ele>804.76</ele>
        <time>2022-05-17T12:41:50Z</time>
      </trkpt>
      <trkpt lat="45.01737" lon="5.34109">
        <ele>804.76</ele>
        <time>2022-05-17T12:42:03Z</time>
      </trkpt>
      <trkpt lat="45.01736" lon="5.34097">
        <ele>806.2</ele>
        <time>2022-05-17T12:42:16Z</time>
      </trkpt>
      <trkpt lat="45.01738" lon="5.34085">
        <ele>806.68</ele>
        <time>2022-05-17T12:42:30Z</time>
      </trkpt>
      <trkpt lat="45.0174" lon="5.34069">
        <ele>807.64</ele>
        <time>2022-05-17T12:42:43Z</time>
      </trkpt>
      <trkpt lat="45.01742" lon="5.34053">
        <ele>807.64</ele>
        <time>2022-05-17T12:42:55Z</time>
      </trkpt>
      <trkpt lat="45.01743" lon="5.34035">
        <ele>808.13</ele>
        <time>2022-05-17T12:43:10Z</time>
      </trkpt>
      <trkpt lat="45.01748" lon="5.34021">
        <ele>808.13</ele>
        <time>2022-05-17T12:43:24Z</time>
      </trkpt>
      <trkpt lat="45.0175" lon="5.34002">
        <ele>808.61</ele>
        <time>2022-05-17T12:43:38Z</time>
      </trkpt>
      <trkpt lat="45.01752" lon="5.33981">
        <ele>809.57</ele>
        <time>2022-05-17T12:43:52Z</time>
      </trkpt>
      <trkpt lat="45.01759" lon="5.33967">
        <ele>810.05</ele>
        <time>2022-05-17T12:44:06Z</time>
      </trkpt>
      <trkpt lat="45.01765" lon="5.33948">
        <ele>811.01</ele>
        <time>2022-05-17T12:44:18Z</time>
      </trkpt>
      <trkpt lat="45.01772" lon="5.33932">
        <ele>811.97</ele>
        <time>2022-05-17T12:44:31Z</time>
      </trkpt>
      <trkpt lat="45.01779" lon="5.33915">
        <ele>811.49</ele>
        <time>2022-05-17T12:44:45Z</time>
      </trkpt>
      <trkpt lat="45.01785" lon="5.33906">
        <ele>810.53</ele>
        <time>2022-05-17T12:44:53Z</time>
      </trkpt>
      <trkpt lat="45.01794" lon="5.33893">
        <ele>809.09</ele>
        <time>2022-05-17T12:45:08Z</time>
      </trkpt>
      <trkpt lat="45.01801" lon="5.33884">
        <ele>809.09</ele>
        <time>2022-05-17T12:45:21Z</time>
      </trkpt>
      <trkpt lat="45.01807" lon="5.33873">
        <ele>809.57</ele>
        <time>2022-05-17T12:45:37Z</time>
      </trkpt>
      <trkpt lat="45.01811" lon="5.33866">
        <ele>809.57</ele>
        <time>2022-05-17T12:45:50Z</time>
      </trkpt>
      <trkpt lat="45.01815" lon="5.33858">
        <ele>810.05</ele>
        <time>2022-05-17T12:46:05Z</time>
      </trkpt>
      <trkpt lat="45.01817" lon="5.33851">
        <ele>811.01</ele>
        <time>2022-05-17T12:46:20Z</time>
      </trkpt>
      <trkpt lat="45.0182" lon="5.33842">
        <ele>812.45</ele>
        <time>2022-05-17T12:46:35Z</time>
      </trkpt>
      <trkpt lat="45.01825" lon="5.33834">
        <ele>812.93</ele>
        <time>2022-05-17T12:46:48Z</time>
      </trkpt>
      <trkpt lat="45.01826" lon="5.33825">
        <ele>815.34</ele>
        <time>2022-05-17T12:47:05Z</time>
      </trkpt>
      <trkpt lat="45.01827" lon="5.33815">
        <ele>817.26</ele>
        <time>2022-05-17T12:47:20Z</time>
      </trkpt>
      <trkpt lat="45.01833" lon="5.33803">
        <ele>817.74</ele>
        <time>2022-05-17T12:47:36Z</time>
      </trkpt>
      <trkpt lat="45.01832" lon="5.33798">
        <ele>818.7</ele>
        <time>2022-05-17T12:47:51Z</time>
      </trkpt>
      <trkpt lat="45.01829" lon="5.33792">
        <ele>821.1</ele>
        <time>2022-05-17T12:48:06Z</time>
      </trkpt>
      <trkpt lat="45.01824" lon="5.33795">
        <ele>823.51</ele>
        <time>2022-05-17T12:48:20Z</time>
      </trkpt>
      <trkpt lat="45.01818" lon="5.33793">
        <ele>824.95</ele>
        <time>2022-05-17T12:48:38Z</time>
      </trkpt>
      <trkpt lat="45.01819" lon="5.33792">
        <ele>823.99</ele>
        <time>2022-05-17T12:56:04Z</time>
      </trkpt>
      <trkpt lat="45.01822" lon="5.33791">
        <ele>822.55</ele>
        <time>2022-05-17T12:56:19Z</time>
      </trkpt>
      <trkpt lat="45.01828" lon="5.33789">
        <ele>820.14</ele>
        <time>2022-05-17T12:56:33Z</time>
      </trkpt>
      <trkpt lat="45.01833" lon="5.33795">
        <ele>818.7</ele>
        <time>2022-05-17T12:56:51Z</time>
      </trkpt>
      <trkpt lat="45.01835" lon="5.33799">
        <ele>816.3</ele>
        <time>2022-05-17T12:57:04Z</time>
      </trkpt>
      <trkpt lat="45.01829" lon="5.33811">
        <ele>815.82</ele>
        <time>2022-05-17T12:57:18Z</time>
      </trkpt>
      <trkpt lat="45.01827" lon="5.33823">
        <ele>814.37</ele>
        <time>2022-05-17T12:57:32Z</time>
      </trkpt>
      <trkpt lat="45.01825" lon="5.33833">
        <ele>811.97</ele>
        <time>2022-05-17T12:57:46Z</time>
      </trkpt>
      <trkpt lat="45.01821" lon="5.33843">
        <ele>811.01</ele>
        <time>2022-05-17T12:58:00Z</time>
      </trkpt>
      <trkpt lat="45.01818" lon="5.33852">
        <ele>809.09</ele>
        <time>2022-05-17T12:58:17Z</time>
      </trkpt>
      <trkpt lat="45.01816" lon="5.33859">
        <ele>808.13</ele>
        <time>2022-05-17T12:58:27Z</time>
      </trkpt>
      <trkpt lat="45.0181" lon="5.33869">
        <ele>807.16</ele>
        <time>2022-05-17T12:58:40Z</time>
      </trkpt>
      <trkpt lat="45.01806" lon="5.3388">
        <ele>807.16</ele>
        <time>2022-05-17T12:58:52Z</time>
      </trkpt>
      <trkpt lat="45.018" lon="5.33889">
        <ele>806.68</ele>
        <time>2022-05-17T12:59:05Z</time>
      </trkpt>
      <trkpt lat="45.01792" lon="5.339">
        <ele>806.68</ele>
        <time>2022-05-17T12:59:19Z</time>
      </trkpt>
      <trkpt lat="45.01791" lon="5.33901">
        <ele>808.13</ele>
        <time>2022-05-17T12:59:21Z</time>
      </trkpt>
      <trkpt lat="45.01781" lon="5.33909">
        <ele>809.57</ele>
        <time>2022-05-17T12:59:36Z</time>
      </trkpt>
      <trkpt lat="45.01774" lon="5.33923">
        <ele>810.53</ele>
        <time>2022-05-17T12:59:52Z</time>
      </trkpt>
      <trkpt lat="45.01769" lon="5.33937">
        <ele>810.05</ele>
        <time>2022-05-17T13:00:06Z</time>
      </trkpt>
      <trkpt lat="45.01767" lon="5.33941">
        <ele>809.09</ele>
        <time>2022-05-17T13:00:11Z</time>
      </trkpt>
      <trkpt lat="45.01762" lon="5.33958">
        <ele>808.13</ele>
        <time>2022-05-17T13:00:25Z</time>
      </trkpt>
      <trkpt lat="45.01758" lon="5.33974">
        <ele>807.64</ele>
        <time>2022-05-17T13:00:40Z</time>
      </trkpt>
      <trkpt lat="45.01754" lon="5.33996">
        <ele>806.68</ele>
        <time>2022-05-17T13:00:57Z</time>
      </trkpt>
      <trkpt lat="45.0175" lon="5.34013">
        <ele>805.72</ele>
        <time>2022-05-17T13:01:11Z</time>
      </trkpt>
      <trkpt lat="45.01745" lon="5.34035">
        <ele>805.72</ele>
        <time>2022-05-17T13:01:26Z</time>
      </trkpt>
      <trkpt lat="45.01743" lon="5.34056">
        <ele>805.72</ele>
        <time>2022-05-17T13:01:42Z</time>
      </trkpt>
      <trkpt lat="45.01741" lon="5.34073">
        <ele>805.24</ele>
        <time>2022-05-17T13:01:56Z</time>
      </trkpt>
      <trkpt lat="45.0174" lon="5.34086">
        <ele>804.76</ele>
        <time>2022-05-17T13:02:10Z</time>
      </trkpt>
      <trkpt lat="45.0174" lon="5.34106">
        <ele>803.32</ele>
        <time>2022-05-17T13:02:25Z</time>
      </trkpt>
      <trkpt lat="45.01738" lon="5.34122">
        <ele>802.84</ele>
        <time>2022-05-17T13:02:38Z</time>
      </trkpt>
      <trkpt lat="45.0174" lon="5.3414">
        <ele>802.84</ele>
        <time>2022-05-17T13:02:55Z</time>
      </trkpt>
      <trkpt lat="45.01741" lon="5.34142">
        <ele>802.36</ele>
        <time>2022-05-17T13:04:46Z</time>
      </trkpt>
      <trkpt lat="45.01742" lon="5.34143">
        <ele>802.36</ele>
        <time>2022-05-17T13:05:15Z</time>
      </trkpt>
      <trkpt lat="45.01744" lon="5.34143">
        <ele>802.36</ele>
        <time>2022-05-17T13:05:43Z</time>
      </trkpt>
      <trkpt lat="45.01745" lon="5.34142">
        <ele>802.36</ele>
        <time>2022-05-17T13:06:09Z</time>
      </trkpt>
      <trkpt lat="45.01747" lon="5.3413">
        <ele>799.47</ele>
        <time>2022-05-17T13:06:30Z</time>
      </trkpt>
      <trkpt lat="45.01752" lon="5.34114">
        <ele>797.07</ele>
        <time>2022-05-17T13:06:45Z</time>
      </trkpt>
      <trkpt lat="45.01756" lon="5.34101">
        <ele>796.11</ele>
        <time>2022-05-17T13:06:56Z</time>
      </trkpt>
      <trkpt lat="45.01761" lon="5.34082">
        <ele>793.22</ele>
        <time>2022-05-17T13:07:11Z</time>
      </trkpt>
      <trkpt lat="45.01769" lon="5.34065">
        <ele>790.34</ele>
        <time>2022-05-17T13:07:27Z</time>
      </trkpt>
      <trkpt lat="45.01777" lon="5.34053">
        <ele>788.42</ele>
        <time>2022-05-17T13:07:41Z</time>
      </trkpt>
      <trkpt lat="45.01784" lon="5.34043">
        <ele>785.05</ele>
        <time>2022-05-17T13:07:54Z</time>
      </trkpt>
      <trkpt lat="45.01793" lon="5.34039">
        <ele>781.69</ele>
        <time>2022-05-17T13:08:07Z</time>
      </trkpt>
      <trkpt lat="45.018" lon="5.34036">
        <ele>778.32</ele>
        <time>2022-05-17T13:08:20Z</time>
      </trkpt>
      <trkpt lat="45.01812" lon="5.3402">
        <ele>775.92</ele>
        <time>2022-05-17T13:08:35Z</time>
      </trkpt>
      <trkpt lat="45.01819" lon="5.34003">
        <ele>773.52</ele>
        <time>2022-05-17T13:08:49Z</time>
      </trkpt>
      <trkpt lat="45.01827" lon="5.33987">
        <ele>770.63</ele>
        <time>2022-05-17T13:09:03Z</time>
      </trkpt>
      <trkpt lat="45.01836" lon="5.3397">
        <ele>767.27</ele>
        <time>2022-05-17T13:09:17Z</time>
      </trkpt>
      <trkpt lat="45.01849" lon="5.3396">
        <ele>764.39</ele>
        <time>2022-05-17T13:09:31Z</time>
      </trkpt>
      <trkpt lat="45.01861" lon="5.33954">
        <ele>761.02</ele>
        <time>2022-05-17T13:09:43Z</time>
      </trkpt>
      <trkpt lat="45.01872" lon="5.33942">
        <ele>758.14</ele>
        <time>2022-05-17T13:10:01Z</time>
      </trkpt>
      <trkpt lat="45.01881" lon="5.33935">
        <ele>754.77</ele>
        <time>2022-05-17T13:10:12Z</time>
      </trkpt>
      <trkpt lat="45.01883" lon="5.33934">
        <ele>754.29</ele>
        <time>2022-05-17T13:10:15Z</time>
      </trkpt>
      <trkpt lat="45.01892" lon="5.33925">
        <ele>750.93</ele>
        <time>2022-05-17T13:10:27Z</time>
      </trkpt>
      <trkpt lat="45.01899" lon="5.3392">
        <ele>747.56</ele>
        <time>2022-05-17T13:10:39Z</time>
      </trkpt>
      <trkpt lat="45.01906" lon="5.33911">
        <ele>743.72</ele>
        <time>2022-05-17T13:10:52Z</time>
      </trkpt>
      <trkpt lat="45.01915" lon="5.339">
        <ele>741.31</ele>
        <time>2022-05-17T13:11:06Z</time>
      </trkpt>
      <trkpt lat="45.01921" lon="5.33894">
        <ele>738.43</ele>
        <time>2022-05-17T13:11:17Z</time>
      </trkpt>
      <trkpt lat="45.01931" lon="5.33885">
        <ele>735.07</ele>
        <time>2022-05-17T13:11:30Z</time>
      </trkpt>
      <trkpt lat="45.0194" lon="5.33875">
        <ele>731.7</ele>
        <time>2022-05-17T13:11:40Z</time>
      </trkpt>
      <trkpt lat="45.01949" lon="5.33864">
        <ele>729.3</ele>
        <time>2022-05-17T13:11:54Z</time>
      </trkpt>
      <trkpt lat="45.01955" lon="5.33856">
        <ele>725.93</ele>
        <time>2022-05-17T13:12:05Z</time>
      </trkpt>
      <trkpt lat="45.01961" lon="5.33848">
        <ele>723.05</ele>
        <time>2022-05-17T13:12:19Z</time>
      </trkpt>
      <trkpt lat="45.01962" lon="5.33845">
        <ele>722.09</ele>
        <time>2022-05-17T13:12:22Z</time>
      </trkpt>
      <trkpt lat="45.01969" lon="5.33834">
        <ele>718.24</ele>
        <time>2022-05-17T13:12:33Z</time>
      </trkpt>
      <trkpt lat="45.01972" lon="5.33826">
        <ele>715.84</ele>
        <time>2022-05-17T13:12:42Z</time>
      </trkpt>
      <trkpt lat="45.01976" lon="5.33807">
        <ele>713.92</ele>
        <time>2022-05-17T13:12:57Z</time>
      </trkpt>
      <trkpt lat="45.01976" lon="5.33806">
        <ele>713.92</ele>
        <time>2022-05-17T13:12:58Z</time>
      </trkpt>
      <trkpt lat="45.01978" lon="5.33792">
        <ele>711.51</ele>
        <time>2022-05-17T13:13:13Z</time>
      </trkpt>
      <trkpt lat="45.01982" lon="5.33808">
        <ele>710.55</ele>
        <time>2022-05-17T13:13:25Z</time>
      </trkpt>
      <trkpt lat="45.01987" lon="5.33828">
        <ele>708.63</ele>
        <time>2022-05-17T13:13:40Z</time>
      </trkpt>
      <trkpt lat="45.0199" lon="5.33848">
        <ele>706.71</ele>
        <time>2022-05-17T13:13:55Z</time>
      </trkpt>
      <trkpt lat="45.01992" lon="5.33871">
        <ele>704.78</ele>
        <time>2022-05-17T13:14:10Z</time>
      </trkpt>
      <trkpt lat="45.01992" lon="5.33874">
        <ele>704.78</ele>
        <time>2022-05-17T13:14:12Z</time>
      </trkpt>
      <trkpt lat="45.01992" lon="5.33884">
        <ele>702.86</ele>
        <time>2022-05-17T13:14:21Z</time>
      </trkpt>
      <trkpt lat="45.02001" lon="5.3389">
        <ele>702.38</ele>
        <time>2022-05-17T13:14:34Z</time>
      </trkpt>
      <trkpt lat="45.02006" lon="5.33893">
        <ele>701.42</ele>
        <time>2022-05-17T13:14:40Z</time>
      </trkpt>
      <trkpt lat="45.02018" lon="5.33899">
        <ele>700.94</ele>
        <time>2022-05-17T13:14:52Z</time>
      </trkpt>
      <trkpt lat="45.02028" lon="5.33905">
        <ele>699.98</ele>
        <time>2022-05-17T13:15:06Z</time>
      </trkpt>
      <trkpt lat="45.02042" lon="5.33914">
        <ele>697.57</ele>
        <time>2022-05-17T13:15:21Z</time>
      </trkpt>
      <trkpt lat="45.02046" lon="5.33918">
        <ele>697.09</ele>
        <time>2022-05-17T13:15:42Z</time>
      </trkpt>
      <trkpt lat="45.02054" lon="5.33919">
        <ele>697.09</ele>
        <time>2022-05-17T13:16:08Z</time>
      </trkpt>
      <trkpt lat="45.02059" lon="5.33921">
        <ele>695.65</ele>
        <time>2022-05-17T13:16:53Z</time>
      </trkpt>
      <trkpt lat="45.02068" lon="5.33926">
        <ele>694.21</ele>
        <time>2022-05-17T13:17:07Z</time>
      </trkpt>
      <trkpt lat="45.02072" lon="5.3393">
        <ele>693.73</ele>
        <time>2022-05-17T13:17:12Z</time>
      </trkpt>
      <trkpt lat="45.02079" lon="5.33938">
        <ele>693.73</ele>
        <time>2022-05-17T13:17:20Z</time>
      </trkpt>
      <trkpt lat="45.02091" lon="5.33947">
        <ele>691.81</ele>
        <time>2022-05-17T13:17:35Z</time>
      </trkpt>
      <trkpt lat="45.02097" lon="5.33948">
        <ele>690.84</ele>
        <time>2022-05-17T13:17:40Z</time>
      </trkpt>
      <trkpt lat="45.02105" lon="5.33948">
        <ele>689.88</ele>
        <time>2022-05-17T13:17:47Z</time>
      </trkpt>
      <trkpt lat="45.02113" lon="5.33958">
        <ele>689.4</ele>
        <time>2022-05-17T13:17:57Z</time>
      </trkpt>
      <trkpt lat="45.02128" lon="5.33972">
        <ele>686.52</ele>
        <time>2022-05-17T13:18:13Z</time>
      </trkpt>
      <trkpt lat="45.0214" lon="5.3398">
        <ele>685.56</ele>
        <time>2022-05-17T13:18:26Z</time>
      </trkpt>
      <trkpt lat="45.02144" lon="5.3398">
        <ele>685.56</ele>
        <time>2022-05-17T13:18:40Z</time>
      </trkpt>
      <trkpt lat="45.02151" lon="5.33982">
        <ele>685.56</ele>
        <time>2022-05-17T13:18:58Z</time>
      </trkpt>
      <trkpt lat="45.02154" lon="5.33978">
        <ele>685.08</ele>
        <time>2022-05-17T13:19:29Z</time>
      </trkpt>
      <trkpt lat="45.02154" lon="5.3398">
        <ele>685.08</ele>
        <time>2022-05-17T13:19:53Z</time>
      </trkpt>
      <trkpt lat="45.02157" lon="5.33979">
        <ele>684.6</ele>
        <time>2022-05-17T13:20:13Z</time>
      </trkpt>
      <trkpt lat="45.0216" lon="5.3398">
        <ele>684.6</ele>
        <time>2022-05-17T13:20:15Z</time>
      </trkpt>
      <trkpt lat="45.02174" lon="5.33987">
        <ele>681.71</ele>
        <time>2022-05-17T13:20:31Z</time>
      </trkpt>
      <trkpt lat="45.02188" lon="5.33991">
        <ele>680.75</ele>
        <time>2022-05-17T13:20:45Z</time>
      </trkpt>
      <trkpt lat="45.02198" lon="5.33991">
        <ele>678.35</ele>
        <time>2022-05-17T13:20:58Z</time>
      </trkpt>
      <trkpt lat="45.02195" lon="5.33984">
        <ele>675.94</ele>
        <time>2022-05-17T13:21:11Z</time>
      </trkpt>
      <trkpt lat="45.02184" lon="5.33981">
        <ele>672.58</ele>
        <time>2022-05-17T13:21:25Z</time>
      </trkpt>
      <trkpt lat="45.02181" lon="5.33981">
        <ele>672.58</ele>
        <time>2022-05-17T13:21:28Z</time>
      </trkpt>
      <trkpt lat="45.02165" lon="5.33975">
        <ele>670.18</ele>
        <time>2022-05-17T13:21:45Z</time>
      </trkpt>
      <trkpt lat="45.02163" lon="5.33974">
        <ele>670.18</ele>
        <time>2022-05-17T13:21:47Z</time>
      </trkpt>
      <trkpt lat="45.02152" lon="5.33958">
        <ele>667.77</ele>
        <time>2022-05-17T13:22:03Z</time>
      </trkpt>
      <trkpt lat="45.0214" lon="5.33945">
        <ele>665.37</ele>
        <time>2022-05-17T13:22:18Z</time>
      </trkpt>
      <trkpt lat="45.02129" lon="5.33928">
        <ele>662.49</ele>
        <time>2022-05-17T13:22:33Z</time>
      </trkpt>
      <trkpt lat="45.02117" lon="5.33911">
        <ele>660.56</ele>
        <time>2022-05-17T13:22:47Z</time>
      </trkpt>
      <trkpt lat="45.02105" lon="5.33891">
        <ele>657.68</ele>
        <time>2022-05-17T13:23:04Z</time>
      </trkpt>
      <trkpt lat="45.02096" lon="5.33878">
        <ele>655.76</ele>
        <time>2022-05-17T13:23:17Z</time>
      </trkpt>
      <trkpt lat="45.02095" lon="5.3387">
        <ele>653.83</ele>
        <time>2022-05-17T13:23:25Z</time>
      </trkpt>
      <trkpt lat="45.02102" lon="5.33871">
        <ele>650.95</ele>
        <time>2022-05-17T13:23:38Z</time>
      </trkpt>
      <trkpt lat="45.02116" lon="5.33881">
        <ele>649.03</ele>
        <time>2022-05-17T13:23:53Z</time>
      </trkpt>
      <trkpt lat="45.0213" lon="5.33891">
        <ele>647.1</ele>
        <time>2022-05-17T13:24:08Z</time>
      </trkpt>
      <trkpt lat="45.02142" lon="5.33895">
        <ele>644.7</ele>
        <time>2022-05-17T13:24:22Z</time>
      </trkpt>
      <trkpt lat="45.02153" lon="5.33904">
        <ele>643.26</ele>
        <time>2022-05-17T13:24:33Z</time>
      </trkpt>
      <trkpt lat="45.02158" lon="5.33908">
        <ele>642.3</ele>
        <time>2022-05-17T13:24:39Z</time>
      </trkpt>
      <trkpt lat="45.02168" lon="5.33914">
        <ele>640.86</ele>
        <time>2022-05-17T13:24:50Z</time>
      </trkpt>
      <trkpt lat="45.02175" lon="5.33914">
        <ele>640.38</ele>
        <time>2022-05-17T13:25:06Z</time>
      </trkpt>
      <trkpt lat="45.02186" lon="5.33917">
        <ele>639.41</ele>
        <time>2022-05-17T13:25:19Z</time>
      </trkpt>
      <trkpt lat="45.02201" lon="5.33914">
        <ele>636.53</ele>
        <time>2022-05-17T13:25:35Z</time>
      </trkpt>
      <trkpt lat="45.02209" lon="5.33909">
        <ele>634.61</ele>
        <time>2022-05-17T13:25:43Z</time>
      </trkpt>
      <trkpt lat="45.02223" lon="5.3391">
        <ele>632.68</ele>
        <time>2022-05-17T13:25:58Z</time>
      </trkpt>
      <trkpt lat="45.02234" lon="5.33915">
        <ele>631.24</ele>
        <time>2022-05-17T13:26:09Z</time>
      </trkpt>
      <trkpt lat="45.02243" lon="5.33922">
        <ele>628.36</ele>
        <time>2022-05-17T13:26:24Z</time>
      </trkpt>
      <trkpt lat="45.02259" lon="5.33922">
        <ele>626.44</ele>
        <time>2022-05-17T13:26:39Z</time>
      </trkpt>
      <trkpt lat="45.02262" lon="5.3392">
        <ele>625.96</ele>
        <time>2022-05-17T13:26:42Z</time>
      </trkpt>
      <trkpt lat="45.02266" lon="5.33915">
        <ele>624.99</ele>
        <time>2022-05-17T13:26:47Z</time>
      </trkpt>
      <trkpt lat="45.02268" lon="5.33912">
        <ele>624.51</ele>
        <time>2022-05-17T13:26:49Z</time>
      </trkpt>
      <trkpt lat="45.02277" lon="5.33897">
        <ele>620.67</ele>
        <time>2022-05-17T13:27:04Z</time>
      </trkpt>
      <trkpt lat="45.02281" lon="5.3389">
        <ele>619.23</ele>
        <time>2022-05-17T13:27:11Z</time>
      </trkpt>
      <trkpt lat="45.02296" lon="5.3389">
        <ele>616.82</ele>
        <time>2022-05-17T13:27:27Z</time>
      </trkpt>
      <trkpt lat="45.02302" lon="5.33888">
        <ele>613.94</ele>
        <time>2022-05-17T13:27:41Z</time>
      </trkpt>
      <trkpt lat="45.02292" lon="5.33876">
        <ele>611.06</ele>
        <time>2022-05-17T13:27:57Z</time>
      </trkpt>
      <trkpt lat="45.02283" lon="5.33869">
        <ele>607.69</ele>
        <time>2022-05-17T13:28:10Z</time>
      </trkpt>
      <trkpt lat="45.02281" lon="5.33864">
        <ele>606.25</ele>
        <time>2022-05-17T13:28:19Z</time>
      </trkpt>
      <trkpt lat="45.02283" lon="5.33859">
        <ele>604.33</ele>
        <time>2022-05-17T13:28:24Z</time>
      </trkpt>
      <trkpt lat="45.02272" lon="5.33858">
        <ele>601.44</ele>
        <time>2022-05-17T13:28:38Z</time>
      </trkpt>
      <trkpt lat="45.02261" lon="5.33863">
        <ele>598.08</ele>
        <time>2022-05-17T13:28:51Z</time>
      </trkpt>
      <trkpt lat="45.02257" lon="5.33863">
        <ele>597.12</ele>
        <time>2022-05-17T13:28:55Z</time>
      </trkpt>
      <trkpt lat="45.02244" lon="5.33867">
        <ele>593.27</ele>
        <time>2022-05-17T13:29:10Z</time>
      </trkpt>
      <trkpt lat="45.02238" lon="5.33861">
        <ele>590.39</ele>
        <time>2022-05-17T13:29:24Z</time>
      </trkpt>
      <trkpt lat="45.02241" lon="5.33854">
        <ele>587.98</ele>
        <time>2022-05-17T13:29:31Z</time>
      </trkpt>
      <trkpt lat="45.0225" lon="5.33843">
        <ele>585.58</ele>
        <time>2022-05-17T13:29:44Z</time>
      </trkpt>
      <trkpt lat="45.02255" lon="5.33836">
        <ele>584.14</ele>
        <time>2022-05-17T13:29:59Z</time>
      </trkpt>
      <trkpt lat="45.02252" lon="5.33839">
        <ele>583.66</ele>
        <time>2022-05-17T13:30:22Z</time>
      </trkpt>
      <trkpt lat="45.0224" lon="5.3384">
        <ele>580.29</ele>
        <time>2022-05-17T13:30:37Z</time>
      </trkpt>
      <trkpt lat="45.02238" lon="5.33829">
        <ele>577.41</ele>
        <time>2022-05-17T13:30:51Z</time>
      </trkpt>
      <trkpt lat="45.02241" lon="5.33822">
        <ele>575.01</ele>
        <time>2022-05-17T13:31:03Z</time>
      </trkpt>
      <trkpt lat="45.02229" lon="5.33826">
        <ele>572.6</ele>
        <time>2022-05-17T13:31:16Z</time>
      </trkpt>
      <trkpt lat="45.02219" lon="5.33828">
        <ele>569.24</ele>
        <time>2022-05-17T13:31:30Z</time>
      </trkpt>
      <trkpt lat="45.02209" lon="5.33824">
        <ele>565.87</ele>
        <time>2022-05-17T13:31:43Z</time>
      </trkpt>
      <trkpt lat="45.02213" lon="5.33816">
        <ele>562.51</ele>
        <time>2022-05-17T13:31:56Z</time>
      </trkpt>
      <trkpt lat="45.02207" lon="5.33814">
        <ele>559.62</ele>
        <time>2022-05-17T13:32:09Z</time>
      </trkpt>
      <trkpt lat="45.02211" lon="5.33807">
        <ele>556.74</ele>
        <time>2022-05-17T13:32:22Z</time>
      </trkpt>
      <trkpt lat="45.02206" lon="5.338">
        <ele>554.82</ele>
        <time>2022-05-17T13:32:31Z</time>
      </trkpt>
      <trkpt lat="45.02197" lon="5.33797">
        <ele>551.45</ele>
        <time>2022-05-17T13:32:45Z</time>
      </trkpt>
      <trkpt lat="45.02191" lon="5.33794">
        <ele>549.05</ele>
        <time>2022-05-17T13:32:54Z</time>
      </trkpt>
      <trkpt lat="45.02188" lon="5.33782">
        <ele>546.65</ele>
        <time>2022-05-17T13:33:07Z</time>
      </trkpt>
      <trkpt lat="45.02182" lon="5.33774">
        <ele>543.28</ele>
        <time>2022-05-17T13:33:20Z</time>
      </trkpt>
      <trkpt lat="45.02181" lon="5.3377">
        <ele>542.32</ele>
        <time>2022-05-17T13:33:24Z</time>
      </trkpt>
      <trkpt lat="45.0219" lon="5.3377">
        <ele>539.44</ele>
        <time>2022-05-17T13:33:38Z</time>
      </trkpt>
      <trkpt lat="45.02186" lon="5.33761">
        <ele>536.07</ele>
        <time>2022-05-17T13:33:51Z</time>
      </trkpt>
      <trkpt lat="45.02181" lon="5.33754">
        <ele>532.71</ele>
        <time>2022-05-17T13:34:05Z</time>
      </trkpt>
      <trkpt lat="45.02188" lon="5.33751">
        <ele>530.3</ele>
        <time>2022-05-17T13:34:15Z</time>
      </trkpt>
      <trkpt lat="45.02196" lon="5.33753">
        <ele>528.38</ele>
        <time>2022-05-17T13:34:27Z</time>
      </trkpt>
      <trkpt lat="45.02197" lon="5.33744">
        <ele>525.02</ele>
        <time>2022-05-17T13:34:40Z</time>
      </trkpt>
      <trkpt lat="45.02196" lon="5.33743">
        <ele>524.54</ele>
        <time>2022-05-17T13:34:42Z</time>
      </trkpt>
      <trkpt lat="45.02186" lon="5.33739">
        <ele>522.13</ele>
        <time>2022-05-17T13:34:57Z</time>
      </trkpt>
      <trkpt lat="45.02175" lon="5.33732">
        <ele>518.77</ele>
        <time>2022-05-17T13:35:13Z</time>
      </trkpt>
      <trkpt lat="45.02169" lon="5.33721">
        <ele>515.88</ele>
        <time>2022-05-17T13:35:28Z</time>
      </trkpt>
      <trkpt lat="45.02172" lon="5.33706">
        <ele>512.52</ele>
        <time>2022-05-17T13:35:43Z</time>
      </trkpt>
      <trkpt lat="45.02173" lon="5.33699">
        <ele>511.56</ele>
        <time>2022-05-17T13:35:57Z</time>
      </trkpt>
      <trkpt lat="45.02172" lon="5.33694">
        <ele>511.56</ele>
        <time>2022-05-17T13:36:19Z</time>
      </trkpt>
      <trkpt lat="45.02173" lon="5.33688">
        <ele>511.08</ele>
        <time>2022-05-17T13:36:41Z</time>
      </trkpt>
      <trkpt lat="45.02174" lon="5.3369">
        <ele>511.08</ele>
        <time>2022-05-17T13:37:09Z</time>
      </trkpt>
      <trkpt lat="45.0218" lon="5.33692">
        <ele>511.08</ele>
        <time>2022-05-17T13:37:34Z</time>
      </trkpt>
      <trkpt lat="45.02176" lon="5.33684">
        <ele>510.12</ele>
        <time>2022-05-17T13:37:59Z</time>
      </trkpt>
      <trkpt lat="45.02175" lon="5.33672">
        <ele>509.16</ele>
        <time>2022-05-17T13:38:12Z</time>
      </trkpt>
      <trkpt lat="45.02177" lon="5.33651">
        <ele>507.23</ele>
        <time>2022-05-17T13:38:28Z</time>
      </trkpt>
      <trkpt lat="45.02179" lon="5.3363">
        <ele>503.87</ele>
        <time>2022-05-17T13:38:46Z</time>
      </trkpt>
      <trkpt lat="45.02175" lon="5.33606">
        <ele>501.46</ele>
        <time>2022-05-17T13:39:03Z</time>
      </trkpt>
      <trkpt lat="45.02172" lon="5.33595">
        <ele>500.02</ele>
        <time>2022-05-17T13:39:10Z</time>
      </trkpt>
      <trkpt lat="45.02167" lon="5.33572">
        <ele>496.66</ele>
        <time>2022-05-17T13:39:26Z</time>
      </trkpt>
      <trkpt lat="45.02167" lon="5.33567">
        <ele>496.66</ele>
        <time>2022-05-17T13:39:29Z</time>
      </trkpt>
      <trkpt lat="45.02159" lon="5.33545">
        <ele>494.26</ele>
        <time>2022-05-17T13:39:43Z</time>
      </trkpt>
      <trkpt lat="45.02153" lon="5.33526">
        <ele>492.33</ele>
        <time>2022-05-17T13:39:57Z</time>
      </trkpt>
      <trkpt lat="45.02148" lon="5.33511">
        <ele>490.89</ele>
        <time>2022-05-17T13:40:07Z</time>
      </trkpt>
      <trkpt lat="45.02146" lon="5.33503">
        <ele>489.45</ele>
        <time>2022-05-17T13:40:12Z</time>
      </trkpt>
      <trkpt lat="45.02139" lon="5.33482">
        <ele>487.05</ele>
        <time>2022-05-17T13:40:27Z</time>
      </trkpt>
      <trkpt lat="45.02134" lon="5.3346">
        <ele>484.64</ele>
        <time>2022-05-17T13:40:43Z</time>
      </trkpt>
      <trkpt lat="45.02133" lon="5.33441">
        <ele>481.28</ele>
        <time>2022-05-17T13:40:59Z</time>
      </trkpt>
      <trkpt lat="45.0213" lon="5.33417">
        <ele>479.35</ele>
        <time>2022-05-17T13:41:13Z</time>
      </trkpt>
      <trkpt lat="45.02123" lon="5.33393">
        <ele>477.43</ele>
        <time>2022-05-17T13:41:28Z</time>
      </trkpt>
      <trkpt lat="45.0212" lon="5.33378">
        <ele>475.99</ele>
        <time>2022-05-17T13:41:43Z</time>
      </trkpt>
      <trkpt lat="45.02119" lon="5.33366">
        <ele>475.51</ele>
        <time>2022-05-17T13:42:08Z</time>
      </trkpt>
      <trkpt lat="45.02117" lon="5.33364">
        <ele>477.43</ele>
        <time>2022-05-17T13:42:47Z</time>
      </trkpt>
      <trkpt lat="45.02114" lon="5.33351">
        <ele>478.39</ele>
        <time>2022-05-17T13:43:01Z</time>
      </trkpt>
      <trkpt lat="45.02109" lon="5.33338">
        <ele>481.76</ele>
        <time>2022-05-17T13:43:17Z</time>
      </trkpt>
      <trkpt lat="45.02108" lon="5.33325">
        <ele>483.68</ele>
        <time>2022-05-17T13:43:33Z</time>
      </trkpt>
      <trkpt lat="45.02107" lon="5.33312">
        <ele>486.08</ele>
        <time>2022-05-17T13:43:51Z</time>
      </trkpt>
      <trkpt lat="45.02103" lon="5.33297">
        <ele>489.45</ele>
        <time>2022-05-17T13:44:09Z</time>
      </trkpt>
      <trkpt lat="45.02098" lon="5.33284">
        <ele>489.45</ele>
        <time>2022-05-17T13:44:24Z</time>
      </trkpt>
      <trkpt lat="45.0209" lon="5.33273">
        <ele>489.93</ele>
        <time>2022-05-17T13:44:39Z</time>
      </trkpt>
      <trkpt lat="45.0209" lon="5.33261">
        <ele>488.01</ele>
        <time>2022-05-17T13:44:54Z</time>
      </trkpt>
      <trkpt lat="45.02088" lon="5.33257">
        <ele>487.53</ele>
        <time>2022-05-17T13:45:12Z</time>
      </trkpt>
      <trkpt lat="45.02087" lon="5.33256">
        <ele>487.53</ele>
        <time>2022-05-17T13:45:29Z</time>
      </trkpt>
      <trkpt lat="45.02084" lon="5.33257">
        <ele>488.01</ele>
        <time>2022-05-17T13:45:44Z</time>
      </trkpt>
      <trkpt lat="45.02081" lon="5.33254">
        <ele>488.97</ele>
        <time>2022-05-17T13:45:59Z</time>
      </trkpt>
      <trkpt lat="45.02078" lon="5.33254">
        <ele>488.49</ele>
        <time>2022-05-17T13:46:19Z</time>
      </trkpt>
      <trkpt lat="45.02076" lon="5.33252">
        <ele>488.49</ele>
        <time>2022-05-17T13:46:37Z</time>
      </trkpt>
      <trkpt lat="45.02073" lon="5.33248">
        <ele>487.05</ele>
        <time>2022-05-17T13:47:01Z</time>
      </trkpt>
      <trkpt lat="45.0207" lon="5.33244">
        <ele>486.08</ele>
        <time>2022-05-17T13:47:14Z</time>
      </trkpt>
      <trkpt lat="45.02066" lon="5.33243">
        <ele>485.12</ele>
        <time>2022-05-17T13:47:33Z</time>
      </trkpt>
      <trkpt lat="45.02065" lon="5.33242">
        <ele>484.64</ele>
        <time>2022-05-17T13:47:52Z</time>
      </trkpt>
      <trkpt lat="45.02063" lon="5.33239">
        <ele>484.64</ele>
        <time>2022-05-17T13:48:28Z</time>
      </trkpt>
      <trkpt lat="45.02059" lon="5.33241">
        <ele>484.16</ele>
        <time>2022-05-17T13:48:51Z</time>
      </trkpt>
      <trkpt lat="45.0205" lon="5.33242">
        <ele>482.24</ele>
        <time>2022-05-17T13:49:06Z</time>
      </trkpt>
      <trkpt lat="45.02044" lon="5.3324">
        <ele>480.8</ele>
        <time>2022-05-17T13:49:21Z</time>
      </trkpt>
      <trkpt lat="45.02035" lon="5.33235">
        <ele>477.91</ele>
        <time>2022-05-17T13:49:35Z</time>
      </trkpt>
      <trkpt lat="45.02025" lon="5.33233">
        <ele>475.51</ele>
        <time>2022-05-17T13:49:52Z</time>
      </trkpt>
      <trkpt lat="45.0202" lon="5.33227">
        <ele>473.59</ele>
        <time>2022-05-17T13:50:08Z</time>
      </trkpt>
      <trkpt lat="45.02015" lon="5.33229">
        <ele>474.55</ele>
        <time>2022-05-17T13:50:23Z</time>
      </trkpt>
      <trkpt lat="45.02007" lon="5.33236">
        <ele>476.95</ele>
        <time>2022-05-17T13:50:36Z</time>
      </trkpt>
      <trkpt lat="45.02006" lon="5.33237">
        <ele>477.91</ele>
        <time>2022-05-17T13:50:38Z</time>
      </trkpt>
      <trkpt lat="45.02002" lon="5.33246">
        <ele>479.35</ele>
        <time>2022-05-17T13:50:52Z</time>
      </trkpt>
      <trkpt lat="45.01996" lon="5.33256">
        <ele>483.2</ele>
        <time>2022-05-17T13:51:10Z</time>
      </trkpt>
      <trkpt lat="45.01989" lon="5.33264">
        <ele>485.6</ele>
        <time>2022-05-17T13:51:25Z</time>
      </trkpt>
      <trkpt lat="45.0198" lon="5.33267">
        <ele>487.53</ele>
        <time>2022-05-17T13:51:40Z</time>
      </trkpt>
      <trkpt lat="45.01975" lon="5.33264">
        <ele>488.01</ele>
        <time>2022-05-17T13:51:56Z</time>
      </trkpt>
      <trkpt lat="45.01975" lon="5.33263">
        <ele>488.01</ele>
        <time>2022-05-17T13:52:15Z</time>
      </trkpt>
      <trkpt lat="45.01972" lon="5.33258">
        <ele>488.01</ele>
        <time>2022-05-17T13:52:34Z</time>
      </trkpt>
      <trkpt lat="45.0197" lon="5.33254">
        <ele>486.56</ele>
        <time>2022-05-17T13:52:38Z</time>
      </trkpt>
      <trkpt lat="45.01965" lon="5.33244">
        <ele>483.68</ele>
        <time>2022-05-17T13:52:52Z</time>
      </trkpt>
      <trkpt lat="45.0196" lon="5.33239">
        <ele>482.24</ele>
        <time>2022-05-17T13:53:05Z</time>
      </trkpt>
      <trkpt lat="45.01958" lon="5.33235">
        <ele>481.76</ele>
        <time>2022-05-17T13:53:09Z</time>
      </trkpt>
      <trkpt lat="45.01951" lon="5.33232">
        <ele>482.24</ele>
        <time>2022-05-17T13:53:17Z</time>
      </trkpt>
      <trkpt lat="45.0194" lon="5.33224">
        <ele>483.2</ele>
        <time>2022-05-17T13:53:32Z</time>
      </trkpt>
      <trkpt lat="45.0193" lon="5.33213">
        <ele>480.8</ele>
        <time>2022-05-17T13:53:48Z</time>
      </trkpt>
      <trkpt lat="45.01927" lon="5.33201">
        <ele>477.43</ele>
        <time>2022-05-17T13:53:58Z</time>
      </trkpt>
      <trkpt lat="45.01909" lon="5.33196">
        <ele>475.51</ele>
        <time>2022-05-17T13:54:16Z</time>
      </trkpt>
      <trkpt lat="45.01904" lon="5.33185">
        <ele>472.14</ele>
        <time>2022-05-17T13:54:30Z</time>
      </trkpt>
      <trkpt lat="45.01901" lon="5.33186">
        <ele>472.14</ele>
        <time>2022-05-17T13:54:44Z</time>
      </trkpt>
      <trkpt lat="45.019" lon="5.33186">
        <ele>472.14</ele>
        <time>2022-05-17T13:55:48Z</time>
      </trkpt>
      <trkpt lat="45.01887" lon="5.33194">
        <ele>473.11</ele>
        <time>2022-05-17T13:56:06Z</time>
      </trkpt>
      <trkpt lat="45.01878" lon="5.33199">
        <ele>474.55</ele>
        <time>2022-05-17T13:56:21Z</time>
      </trkpt>
      <trkpt lat="45.01867" lon="5.33207">
        <ele>476.95</ele>
        <time>2022-05-17T13:56:35Z</time>
      </trkpt>
      <trkpt lat="45.01854" lon="5.33214">
        <ele>479.35</ele>
        <time>2022-05-17T13:56:50Z</time>
      </trkpt>
      <trkpt lat="45.0184" lon="5.33215">
        <ele>478.87</ele>
        <time>2022-05-17T13:57:07Z</time>
      </trkpt>
      <trkpt lat="45.01828" lon="5.33215">
        <ele>477.91</ele>
        <time>2022-05-17T13:57:20Z</time>
      </trkpt>
      <trkpt lat="45.01814" lon="5.33213">
        <ele>475.03</ele>
        <time>2022-05-17T13:57:35Z</time>
      </trkpt>
      <trkpt lat="45.01807" lon="5.33207">
        <ele>471.66</ele>
        <time>2022-05-17T13:57:47Z</time>
      </trkpt>
      <trkpt lat="45.01801" lon="5.33203">
        <ele>468.3</ele>
        <time>2022-05-17T13:57:57Z</time>
      </trkpt>
      <trkpt lat="45.01792" lon="5.33195">
        <ele>465.42</ele>
        <time>2022-05-17T13:58:10Z</time>
      </trkpt>
      <trkpt lat="45.01784" lon="5.33189">
        <ele>463.49</ele>
        <time>2022-05-17T13:58:24Z</time>
      </trkpt>
      <trkpt lat="45.01776" lon="5.33181">
        <ele>460.13</ele>
        <time>2022-05-17T13:58:36Z</time>
      </trkpt>
      <trkpt lat="45.01768" lon="5.33174">
        <ele>457.24</ele>
        <time>2022-05-17T13:58:48Z</time>
      </trkpt>
      <trkpt lat="45.01756" lon="5.33171">
        <ele>454.36</ele>
        <time>2022-05-17T13:59:02Z</time>
      </trkpt>
      <trkpt lat="45.01746" lon="5.33167">
        <ele>451</ele>
        <time>2022-05-17T13:59:15Z</time>
      </trkpt>
      <trkpt lat="45.01736" lon="5.33162">
        <ele>447.63</ele>
        <time>2022-05-17T13:59:28Z</time>
      </trkpt>
      <trkpt lat="45.01724" lon="5.33158">
        <ele>444.75</ele>
        <time>2022-05-17T13:59:41Z</time>
      </trkpt>
      <trkpt lat="45.01718" lon="5.33153">
        <ele>440.9</ele>
        <time>2022-05-17T13:59:53Z</time>
      </trkpt>
      <trkpt lat="45.0171" lon="5.33144">
        <ele>437.54</ele>
        <time>2022-05-17T14:00:06Z</time>
      </trkpt>
      <trkpt lat="45.01703" lon="5.33138">
        <ele>434.65</ele>
        <time>2022-05-17T14:00:18Z</time>
      </trkpt>
      <trkpt lat="45.01692" lon="5.3313">
        <ele>431.29</ele>
        <time>2022-05-17T14:00:32Z</time>
      </trkpt>
      <trkpt lat="45.01685" lon="5.33121">
        <ele>427.92</ele>
        <time>2022-05-17T14:00:44Z</time>
      </trkpt>
      <trkpt lat="45.01677" lon="5.3311">
        <ele>425.04</ele>
        <time>2022-05-17T14:00:56Z</time>
      </trkpt>
      <trkpt lat="45.01674" lon="5.33098">
        <ele>421.68</ele>
        <time>2022-05-17T14:01:08Z</time>
      </trkpt>
      <trkpt lat="45.01672" lon="5.33093">
        <ele>420.23</ele>
        <time>2022-05-17T14:01:24Z</time>
      </trkpt>
      <trkpt lat="45.01671" lon="5.3309">
        <ele>419.75</ele>
        <time>2022-05-17T14:01:48Z</time>
      </trkpt>
      <trkpt lat="45.01679" lon="5.33087">
        <ele>421.19</ele>
        <time>2022-05-17T14:02:04Z</time>
      </trkpt>
      <trkpt lat="45.01686" lon="5.33087">
        <ele>421.19</ele>
        <time>2022-05-17T14:02:10Z</time>
      </trkpt>
      <trkpt lat="45.01697" lon="5.3308">
        <ele>419.75</ele>
        <time>2022-05-17T14:02:23Z</time>
      </trkpt>
      <trkpt lat="45.0171" lon="5.33069">
        <ele>416.87</ele>
        <time>2022-05-17T14:02:39Z</time>
      </trkpt>
      <trkpt lat="45.01721" lon="5.33061">
        <ele>413.98</ele>
        <time>2022-05-17T14:02:53Z</time>
      </trkpt>
      <trkpt lat="45.01731" lon="5.33053">
        <ele>411.1</ele>
        <time>2022-05-17T14:03:05Z</time>
      </trkpt>
      <trkpt lat="45.01739" lon="5.33043">
        <ele>409.18</ele>
        <time>2022-05-17T14:03:20Z</time>
      </trkpt>
      <trkpt lat="45.01745" lon="5.33032">
        <ele>408.7</ele>
        <time>2022-05-17T14:03:33Z</time>
      </trkpt>
      <trkpt lat="45.01746" lon="5.33031">
        <ele>408.7</ele>
        <time>2022-05-17T14:03:34Z</time>
      </trkpt>
      <trkpt lat="45.01749" lon="5.33027">
        <ele>408.7</ele>
        <time>2022-05-17T14:03:38Z</time>
      </trkpt>
      <trkpt lat="45.01764" lon="5.33015">
        <ele>408.7</ele>
        <time>2022-05-17T14:03:54Z</time>
      </trkpt>
      <trkpt lat="45.01765" lon="5.33013">
        <ele>408.7</ele>
        <time>2022-05-17T14:03:56Z</time>
      </trkpt>
      <trkpt lat="45.01767" lon="5.33011">
        <ele>408.7</ele>
        <time>2022-05-17T14:03:58Z</time>
      </trkpt>
      <trkpt lat="45.01769" lon="5.33008">
        <ele>409.66</ele>
        <time>2022-05-17T14:04:00Z</time>
      </trkpt>
      <trkpt lat="45.01771" lon="5.33006">
        <ele>409.66</ele>
        <time>2022-05-17T14:04:02Z</time>
      </trkpt>
      <trkpt lat="45.01772" lon="5.33004">
        <ele>409.66</ele>
        <time>2022-05-17T14:04:04Z</time>
      </trkpt>
      <trkpt lat="45.01784" lon="5.32986">
        <ele>409.66</ele>
        <time>2022-05-17T14:04:21Z</time>
      </trkpt>
      <trkpt lat="45.01787" lon="5.32983">
        <ele>408.22</ele>
        <time>2022-05-17T14:04:26Z</time>
      </trkpt>
      <trkpt lat="45.01786" lon="5.32986">
        <ele>408.22</ele>
        <time>2022-05-17T14:04:42Z</time>
      </trkpt>
      <trkpt lat="45.01785" lon="5.32987">
        <ele>408.22</ele>
        <time>2022-05-17T14:04:46Z</time>
      </trkpt>
      <trkpt lat="45.01783" lon="5.3299">
        <ele>409.18</ele>
        <time>2022-05-17T14:04:49Z</time>
      </trkpt>
      <trkpt lat="45.01775" lon="5.32998">
        <ele>409.66</ele>
        <time>2022-05-17T14:04:58Z</time>
      </trkpt>
      <trkpt lat="45.01766" lon="5.33005">
        <ele>409.66</ele>
        <time>2022-05-17T14:05:08Z</time>
      </trkpt>
      <trkpt lat="45.01759" lon="5.33011">
        <ele>408.22</ele>
        <time>2022-05-17T14:05:14Z</time>
      </trkpt>
      <trkpt lat="45.01758" lon="5.33012">
        <ele>408.22</ele>
        <time>2022-05-17T14:05:16Z</time>
      </trkpt>
      <trkpt lat="45.01748" lon="5.33024">
        <ele>407.74</ele>
        <time>2022-05-17T14:05:27Z</time>
      </trkpt>
      <trkpt lat="45.01746" lon="5.33027">
        <ele>407.74</ele>
        <time>2022-05-17T14:05:31Z</time>
      </trkpt>
      <trkpt lat="45.01742" lon="5.33033">
        <ele>407.74</ele>
        <time>2022-05-17T14:05:44Z</time>
      </trkpt>
      <trkpt lat="45.01742" lon="5.33037">
        <ele>407.74</ele>
        <time>2022-05-17T14:06:06Z</time>
      </trkpt>
      <trkpt lat="45.01734" lon="5.33038">
        <ele>407.74</ele>
        <time>2022-05-17T14:06:20Z</time>
      </trkpt>
      <trkpt lat="45.0173" lon="5.33041">
        <ele>407.74</ele>
        <time>2022-05-17T14:06:40Z</time>
      </trkpt>
      <trkpt lat="45.01729" lon="5.33033">
        <ele>407.26</ele>
        <time>2022-05-17T14:07:01Z</time>
      </trkpt>
      <trkpt lat="45.01729" lon="5.3303">
        <ele>406.29</ele>
        <time>2022-05-17T14:07:24Z</time>
      </trkpt>
      <trkpt lat="45.0173" lon="5.33027">
        <ele>404.85</ele>
        <time>2022-05-17T14:07:45Z</time>
      </trkpt>
      <trkpt lat="45.01725" lon="5.33019">
        <ele>402.93</ele>
        <time>2022-05-17T14:07:59Z</time>
      </trkpt>
      <trkpt lat="45.01717" lon="5.33008">
        <ele>401.49</ele>
        <time>2022-05-17T14:08:11Z</time>
      </trkpt>
      <trkpt lat="45.01715" lon="5.33">
        <ele>399.57</ele>
        <time>2022-05-17T14:08:16Z</time>
      </trkpt>
      <trkpt lat="45.01714" lon="5.32994">
        <ele>398.12</ele>
        <time>2022-05-17T14:08:20Z</time>
      </trkpt>
      <trkpt lat="45.01714" lon="5.32993">
        <ele>398.6</ele>
        <time>2022-05-17T14:08:21Z</time>
      </trkpt>
      <trkpt lat="45.01706" lon="5.32989">
        <ele>396.2</ele>
        <time>2022-05-17T14:08:36Z</time>
      </trkpt>
      <trkpt lat="45.01705" lon="5.32992">
        <ele>396.2</ele>
        <time>2022-05-17T14:08:52Z</time>
      </trkpt>
      <trkpt lat="45.01702" lon="5.32996">
        <ele>395.72</ele>
        <time>2022-05-17T14:09:10Z</time>
      </trkpt>
      <trkpt lat="45.01693" lon="5.32998">
        <ele>394.76</ele>
        <time>2022-05-17T14:09:25Z</time>
      </trkpt>
      <trkpt lat="45.01679" lon="5.32995">
        <ele>393.32</ele>
        <time>2022-05-17T14:09:41Z</time>
      </trkpt>
      <trkpt lat="45.0167" lon="5.32992">
        <ele>390.43</ele>
        <time>2022-05-17T14:09:53Z</time>
      </trkpt>
      <trkpt lat="45.01654" lon="5.32991">
        <ele>389.47</ele>
        <time>2022-05-17T14:10:05Z</time>
      </trkpt>
      <trkpt lat="45.01632" lon="5.32996">
        <ele>388.51</ele>
        <time>2022-05-17T14:10:23Z</time>
      </trkpt>
      <trkpt lat="45.01626" lon="5.33002">
        <ele>389.95</ele>
        <time>2022-05-17T14:10:31Z</time>
      </trkpt>
      <trkpt lat="45.01614" lon="5.33021">
        <ele>390.91</ele>
        <time>2022-05-17T14:10:46Z</time>
      </trkpt>
      <trkpt lat="45.01603" lon="5.33043">
        <ele>390.91</ele>
        <time>2022-05-17T14:11:03Z</time>
      </trkpt>
      <trkpt lat="45.01602" lon="5.33046">
        <ele>390.91</ele>
        <time>2022-05-17T14:11:07Z</time>
      </trkpt>
      <trkpt lat="45.01594" lon="5.33078">
        <ele>391.39</ele>
        <time>2022-05-17T14:11:29Z</time>
      </trkpt>
      <trkpt lat="45.0158" lon="5.33099">
        <ele>391.39</ele>
        <time>2022-05-17T14:11:45Z</time>
      </trkpt>
      <trkpt lat="45.01564" lon="5.33119">
        <ele>391.39</ele>
        <time>2022-05-17T14:12:02Z</time>
      </trkpt>
      <trkpt lat="45.01549" lon="5.33137">
        <ele>391.39</ele>
        <time>2022-05-17T14:12:18Z</time>
      </trkpt>
      <trkpt lat="45.01532" lon="5.33158">
        <ele>391.39</ele>
        <time>2022-05-17T14:12:37Z</time>
      </trkpt>
      <trkpt lat="45.01516" lon="5.33178">
        <ele>391.39</ele>
        <time>2022-05-17T14:12:55Z</time>
      </trkpt>
      <trkpt lat="45.01503" lon="5.33188">
        <ele>391.39</ele>
        <time>2022-05-17T14:13:10Z</time>
      </trkpt>
      <trkpt lat="45.01492" lon="5.33195">
        <ele>391.87</ele>
        <time>2022-05-17T14:13:26Z</time>
      </trkpt>
    </trkseg>
  </trk>
</gpx>